[[{"header":{"parameterUnit":"m.s-1","parameterCategory":1,"la1":31.0,"la2":29.5877,"lo1":-88.7671,"lo2":-86.6584,"dy":0.0162,"dx":0.0185,"nx":115,"ny":88,"refTime":"2023-04-29T06:00:00:Z","depth":0,"parameterNumber":2,"parameterNumberName":"U-component_of_WINDS"},"data":[0.0,0.0,0.0,0.0,0.0,0.0,0.0,0.0,0.0,0.0,0.0,0.0,0.0,0.0,0.0,0.0,0.0,0.0,0.0,0.0,0.0,0.0,0.0,0.0,0.0,0.0,0.0,0.0,0.0,0.0,0.0,0.0,0.0,0.0,0.0,0.0,0.0,0.0,0.0,0.0,0.0,0.0,0.0,0.0,0.0,0.0,0.0,0.0,0.0,0.0,0.0,0.0,0.0,0.0,0.0,0.0,0.0,0.0,0.0,0.0,0.0,0.0,0.0,0.0,0.0,0.0,0.0,0.0,0.0,0.0,0.0,0.0,0.0,0.0,0.0,0.0,0.0,0.0,0.0,0.0,0.0,0.0,0.0,0.0,0.0,0.0,0.0,0.0,0.0,0.0,0.0,0.0,0.0,0.0,0.0,0.0,0.0,0.0,0.0,0.0,0.0,0.0,0.0,0.0,0.0,0.0,0.0,0.0,0.0,0.0,0.0,0.0,0.0,0.0,0.0,0.0,0.0,0.0,0.0,0.0,0.0,0.0,0.0,0.0,0.0,0.0,0.0,0.0,0.0,0.0,0.0,0.0,0.0,0.0,0.0,0.0,0.0,0.0,0.0,0.0,0.0,0.0,0.0,0.0,0.0,0.0,0.0,0.0,0.0,0.0,0.0,0.0,0.0,0.0,0.0,0.0,0.0,0.0,0.0,0.0,0.0,0.0,0.0,0.0,0.0,0.0,0.0,0.0,0.0,0.0,0.0,0.0,0.0,0.0,0.0,0.0,0.0,0.0,0.0,0.0,0.0,0.0,0.0,0.0,0.0,0.0,0.0,0.0,0.0,0.0,0.0,0.0,0.0,0.0,0.0,0.0,0.0,0.0,0.0,0.0,0.0,0.0,0.0,0.0,0.0,0.0,0.0,0.0,0.0,0.0,0.0,0.0,0.0,0.0,0.0,0.0,0.0,0.0,0.0,0.0,0.0,0.0,0.0,0.0,0.0,0.0,0.0,0.0,0.0,0.0,0.0,0.0,0.0,0.0,0.0,0.0,0.0,0.0,0.0,0.0,0.0,0.0,0.0,0.0,0.0,0.0,0.0,0.0,0.0,0.0,0.0,0.0,0.0,0.0,0.0,0.0,0.0,0.0,0.0,0.0,0.0,0.0,0.0,0.0,0.0,0.0,0.0,0.0,0.0,0.0,0.0,0.0,0.0,0.0,0.0,0.0,0.0,0.0,0.0,0.0,0.0,0.0,0.0,0.0,0.0,0.0,0.0,0.0,0.0,0.0,0.0,0.0,0.0,0.0,0.0,0.0,0.0,0.0,0.0,0.0,0.0,0.0,0.0,0.0,0.0,0.0,0.0,0.0,0.0,0.0,0.0,0.0,0.0,0.0,0.0,0.0,0.0,0.0,0.0,0.0,0.0,0.0,0.0,0.0,0.0,0.0,0.0,0.0,0.0,0.0,0.0,0.0,0.0,0.0,0.0,0.0,0.0,0.0,0.0,0.0,0.0,0.0,0.0,0.0,0.0,0.0,0.0,0.0,0.0,0.0,0.0,0.0,0.0,0.0,0.0,0.0,0.0,0.0,0.0,0.0,0.0,0.0,0.0,0.0,0.0,0.0,0.0,0.0,0.0,0.0,0.0,0.0,0.0,0.0,0.0,0.0,0.0,0.0,0.0,0.0,0.0,0.0,0.0,0.0,0.0,0.0,0.0,0.0,0.0,0.0,0.0,0.0,0.0,0.0,0.0,0.0,0.0,0.0,0.0,0.0,0.0,0.0,0.0,0.0,0.0,0.0,0.0,0.0,0.0,0.0,0.0,0.0,0.0,0.0,0.0,0.0,0.0,0.0,0.0,0.0,0.0,0.0,0.0,0.0,0.0,0.0,0.0,0.0,0.0,0.0,0.0,0.0,0.0,0.0,0.0,0.0,0.0,0.0,0.0,0.0,0.0,0.0,0.0,0.0,0.0,0.0,0.0,0.0,0.0,0.0,0.0,0.0,0.0,0.0,0.0,0.0,0.0,0.0,0.0,0.0,0.0,0.0,0.0,0.0,0.0,0.0,0.0,0.0,0.0,0.0,0.0,0.0,0.0,0.0,0.0,0.0,0.0,0.0,0.0,0.0,0.0,0.0,0.0,0.0,0.0,0.0,0.0,0.0,0.0,0.0,0.0,0.0,0.0,0.0,0.0,0.0,0.0,0.0,0.0,0.0,0.0,0.0,0.0,0.0,0.0,0.0,0.0,0.0,0.0,0.0,0.0,0.0,0.0,0.0,0.0,0.0,0.0,0.0,0.0,0.0,0.0,0.0,0.0,0.0,0.0,0.0,0.0,0.0,0.0,0.0,0.0,0.0,0.0,0.0,0.0,0.0,0.0,0.0,0.0,0.0,0.0,0.0,0.0,0.0,0.0,0.0,0.0,0.0,0.0,0.0,0.0,0.0,0.0,0.0,0.0,0.0,0.0,0.0,0.0,0.0,0.0,0.0,0.0,0.0,0.0,0.0,0.0,0.0,0.0,0.0,0.0,0.0,0.0,0.0,0.0,0.0,0.0,0.0,0.0,0.0,0.0,0.0,0.0,0.0,0.0,0.0,0.0,0.0,0.0,0.0,0.0,0.0,0.0,0.0,0.0,0.0,0.0,0.0,0.0,0.0,0.0,0.0,0.0,0.0,0.0,0.0,0.0,0.0,0.0,0.0,0.0,0.0,0.0,0.0,0.0,0.0,0.0,0.0,0.0,0.0,0.0,0.0,0.0,0.0,0.0,0.0,0.0,0.0,0.0,0.0,0.0,0.0,0.0,0.0,0.0,0.0,0.0,0.0,0.0,0.0,0.0,0.0,0.0,0.0,0.0,0.0,0.0,0.0,0.0,0.0,0.0,0.0,0.0,0.0,0.0,0.0,0.0,0.0,0.0,0.0,0.0,0.0,0.0,0.0,0.0,0.0,0.0,0.0,0.0,0.0,0.0,0.0,0.0,0.0,0.0,0.0,0.0,0.0,0.0,0.0,0.0,0.0,0.0,0.0,0.0,0.0,0.0,0.0,0.0,0.0,0.0,0.0,0.0,0.0,0.0,0.0,0.0,0.0,0.0,0.0,0.0,0.0,0.0,0.0,0.0,0.0,0.0,0.0,0.0,0.0,0.0,0.0,0.0,0.0,0.0,0.0,0.0,0.0,0.0,0.0,0.0,0.0,0.0,0.0,0.0,0.0,0.0,0.0,0.0,0.0,0.0,0.0,0.0,0.0,0.0,0.0,0.0,0.0,0.0,0.0,0.0,0.0,0.0,0.0,0.0,0.0,0.0,0.0,0.0,0.0,0.0,0.0,0.0,0.0,0.0,0.0,0.0,0.0,0.0,0.0,0.0,0.0,0.0,0.0,0.0,0.0,0.0,0.0,0.0,0.0,0.0,0.0,0.0,0.0,0.0,0.0,0.0,0.0,0.0,0.0,0.0,0.0,0.0,0.0,0.0,0.0,0.0,0.0,0.0,0.0,0.0,0.0,0.0,0.0,0.0,0.0,0.0,0.0,0.0,0.0,0.0,0.0,0.0,0.0,0.0,0.0,0.0,0.0,0.0,0.0,0.0,0.0,0.0,0.0,0.0,0.0,0.0,0.0,0.0,0.0,0.0,0.0,0.0,0.0,0.0,0.0,0.0,0.0,0.0,0.0,0.0,0.0,0.0,0.0,0.0,0.0,0.0,0.0,0.0,0.0,0.0,0.0,0.0,0.0,0.0,0.0,0.0,0.0,0.0,0.0,0.0,0.0,0.0,0.0,0.0,0.0,0.0,0.0,0.0,0.0,0.0,0.0,0.0,0.0,0.0,0.0,0.0,0.0,0.0,0.0,0.0,0.0,0.0,0.0,0.0,0.0,0.0,0.0,0.0,0.0,0.0,0.0,0.0,0.0,0.0,0.0,0.0,0.0,0.0,0.0,0.0,0.0,0.0,0.0,0.0,0.0,0.0,0.0,0.0,0.0,0.0,0.0,0.0,0.0,0.0,0.0,0.0,0.0,0.0,0.0,0.0,0.0,0.0,0.0,0.0,0.0,0.0,0.0,0.0,0.0,0.0,0.0,0.0,0.0,0.0,0.0,0.0,0.0,0.0,0.0,0.0,0.0,0.0,0.0,0.0,0.0,0.0,0.0,0.0,0.0,0.0,0.0,0.0,0.0,0.0,0.0,0.0,0.0,0.0,0.0,0.0,0.0,0.0,0.0,0.0,0.0,0.0,0.0,0.0,0.0,0.0,0.0,0.0,0.0,0.0,0.0,-0.0,0.0,0.0,0.0,0.0,0.0,0.0,0.0,0.0,0.0,0.0,0.0,0.0,0.0,0.0,0.0,0.0,0.0,0.0,0.0,0.0,0.0,0.0,0.0,0.0,0.0,0.0,0.0,0.0,0.0,0.0,0.0,0.0,0.0,0.0,0.0,0.0,0.0,0.0,0.0,0.0,0.0,0.0,0.0,0.0,0.0,0.0,0.0,0.0,0.0,0.0,0.0,0.0,0.0,0.0,0.0,0.0,0.0,0.0,0.0,0.0,0.0,0.0,0.0,0.0,0.0,0.0,0.0,0.0,0.0,0.0,0.0,0.0,0.0,0.0,0.0,0.0,0.0,0.0,0.0,0.0,0.0,0.0,0.0,0.0,0.0,0.0,0.0,0.0,0.0,0.0,0.0,0.0,0.0,0.0,0.0,0.0,0.0,0.0,0.0,0.0,0.0,0.0,0.0,0.0,0.0,0.0,0.0,0.0,0.0,0.0,0.0828,0.0492,0.0492,0.0492,0.0516,0.0,0.0,0.0,0.0,0.0,0.0,0.0,0.0,0.0,0.0,0.0,0.0,0.0,0.0,0.0,0.0,0.0,0.0,0.0,0.0,0.0,0.0,0.0,0.0,0.0,0.0,0.0,0.0,0.0,0.0,0.0,0.0,0.0,0.0,0.0,0.0,0.0,0.0,0.0,0.0,0.0,0.0,0.0,0.0,0.0,0.0,0.0,0.0,0.0,0.0,0.0,0.0,0.0,0.0,0.0,0.0,0.0,0.0,0.0,0.0,0.0,0.0,0.0,0.0,0.0,0.0,0.0,0.0,0.0,0.0,0.0,0.0,0.0,0.0,0.0,0.0,0.0,0.0,0.0,0.0,0.0,0.0,0.0,0.0,0.0,0.0,0.0,0.0,0.0,0.0,0.0,0.0,0.0,0.0,0.0,0.0,0.0,0.0,0.0,0.0,0.0,0.0,0.0,0.0,0.0,0.0,0.0,0.0,0.0,0.0,0.0,0.0,0.1284,0.1309,0.1117,0.0,0.0,0.0,0.0,0.0,0.0,0.0,0.0,0.0,0.0,0.0,0.0,0.0,0.0,0.0,0.0,0.0,0.0,0.0,0.0,0.0,0.0,0.0,0.0,0.0,0.0,0.0,0.0,0.0,0.0,0.0,0.0,0.0,0.0,0.0,0.0,0.0,0.0,0.0,0.0,0.0,0.0,0.0,0.0,0.0,0.0,0.0,0.0,0.0,0.0,0.0,0.0,0.0,0.0,0.0,0.0,0.0,0.0,0.0,0.0,0.0,0.0,0.0,0.0,0.0,0.0,0.0,0.0,0.0,0.0,0.0,0.0,0.0,0.0,0.0,0.0,0.0,0.0,0.0,0.0,0.0,0.0,0.0,0.0,0.0,0.0,0.0,0.0,0.0,0.0,0.0,0.0,0.0,0.0,0.0,0.0,0.0,0.0,0.0,0.0,0.0,0.0,0.0,0.0,0.0,0.0,0.0,0.0,0.0,0.0,0.1766,0.1728,0.2464,0.0,0.1795,0.0,0.0,0.0,0.0,0.0,0.0,0.0,0.0,0.0,0.0,0.0,0.0,0.0,0.0,0.0,0.0,0.0,0.0,0.0,0.0,0.0,0.0,0.0,0.0,0.0,0.0,0.0,0.0,0.0,0.0,0.0,0.0,0.0,0.0,0.0,0.0,0.0,0.0,0.0,0.0,0.0,0.0,0.0,0.0,0.0,0.0,0.0,0.0,0.0,0.0,0.0,0.0,0.0,0.0,0.0,0.0,0.0,0.0,0.0,0.0,0.0,0.0,0.0,0.0,0.0,0.0,0.0,0.0,0.0,0.0,0.0,0.0,0.0,0.0,0.0,0.0,0.0,0.0,0.0,0.0,0.0,0.0,0.0,0.0,0.0,0.0,0.0,0.0,0.0,0.0,0.0,0.0,0.0,0.0,0.0,0.0,0.0,0.0,0.0,0.0,0.0,0.0,0.0,0.0,0.0,0.0,0.0,0.0,0.0,0.0,0.2392,0.2058,0.2391,0.2321,0.0,0.0,0.0,0.0,0.0,0.0,0.0,0.0,0.0,0.0,0.0,0.0,0.0,0.0,0.0,0.0,0.0,0.0,0.0,0.0,0.0,0.0,0.0,0.0,0.0,0.0,0.0,0.0,0.0,0.0,0.0,0.0,0.0,0.0,0.0,0.0,0.0,0.0,0.0,0.0,0.0,0.0,0.0,0.0,0.0,0.0,0.0,0.0,0.0,0.0,0.0,0.0,0.0,0.0,0.0,0.0,0.0,0.0,0.0,0.0,0.0,0.0,0.0,0.0,0.0,0.0,0.0,0.0,0.0,0.0,0.0,0.0,0.0,0.0,0.0,0.0,0.0,0.0,0.0,0.0,0.0,0.0,0.0,0.0,0.0,0.0,0.0,0.0,0.0,0.0,0.0,0.0,0.0,0.0,0.0,0.0,0.0,0.0,0.0,0.0,0.0,0.0,0.0,0.0,0.0,0.0,0.0,0.0,0.0,0.0,0.3074,0.3226,0.2767,0.2383,0.2143,0.211,0.0,0.0,0.0,0.0,0.0,0.0,0.0,0.0,0.0,0.0,0.0,0.0,0.0,0.0,0.0,0.0,0.0,0.0,0.0,0.0,0.0,0.0,0.0,0.0,0.0,0.0,0.0,0.0,0.0,0.0,0.0,0.0,0.0,0.0,0.0,0.0,0.0,0.0,0.0,0.0,0.0,0.0,0.0,0.0,0.0,0.0,0.0,0.0,0.0,0.0,0.0,0.0,0.0,0.0,0.0,0.0,0.0,0.0,0.0,0.0,0.0,0.0,0.0,0.0,0.0,0.0,0.0,0.0,0.0,0.0,0.0,0.0,0.0,0.0,0.0,0.0,0.0,0.0,0.0,0.0,0.0,0.0,0.0,0.0,0.0,0.0,0.0,0.0,0.0,0.0,0.0,0.0,0.0,0.0,0.0,0.0,0.0,0.0,0.0,0.0,0.0,0.0,0.0,0.0,0.0,0.0,0.0,0.0,0.3628,0.4106,0.4281,0.4044,0.2865,0.2416,0.0,0.0,0.0,0.0,0.0,0.0,0.0,0.0,0.0,0.0,0.0,0.0,0.0,0.0,0.0,0.0,0.0,0.0,0.0,0.0,0.0,0.0,0.0,0.0,0.0,0.0,0.0,0.0,0.0,0.0,0.0,0.0,0.0,0.0,0.0,0.0,0.0,0.0,0.0,0.0,0.0,0.0,0.0,0.0,0.0,0.0,0.0,0.0,0.0,0.0,0.0,0.0,0.0,0.0,0.0,0.0,0.0,0.0,0.0,0.0,0.0,0.0,0.0,0.0,0.0,0.0,0.0,0.0,0.0,0.0,0.0,0.0,0.0,0.0,0.0,0.0,0.0,0.0,0.0,0.0,0.0,0.0,0.0,0.0,0.0,0.0,0.0,0.0,0.0,0.0,0.0,0.0,0.0,0.0,0.0,0.0,0.0,0.0,0.0,0.0,0.0,0.0,0.0,0.0,0.0,0.0,0.0,0.0,0.0,0.3067,0.3403,0.3536,0.3476,0.3017,0.2864,0.0,0.0,0.0,0.0,0.0,0.0,0.0,0.0,0.0,0.0,0.0,0.0,0.0,0.0,0.0,0.0,0.0,0.0,0.0,0.0,0.0,0.0,0.0,0.0,0.0,0.0,0.0,0.0,0.0,0.0,0.0,0.0,0.0,0.0,0.0,0.0,0.0,0.0,0.0,0.0,0.0,0.0,0.0,0.0,0.0,0.0,0.0,0.0,0.0,0.0,0.0,0.0,0.0,0.0,0.0,0.0,0.0,0.0,0.0,0.0,0.0,0.0,0.0,0.0,0.0,0.0,0.0,0.0,0.0,0.0,0.0,0.0,0.0,0.0,0.0,0.0,0.0,0.0,0.0,0.0,0.0,0.0,0.0,0.0,0.0,0.0,0.0,0.0,0.0,0.0,0.0,0.0,0.0,0.0,0.0,0.0,0.0,0.0,0.0,0.0,0.0,0.0,0.0,0.0,0.0,0.0,0.0,0.0,0.0,0.2944,0.0,0.3535,0.35,0.3245,0.3107,0.0,0.0,0.0,0.0,0.0,0.0,0.0,0.0,0.0,0.0,0.0,0.0,0.0,0.0,0.0,0.0,0.0,0.0,0.0,0.0,0.0,0.0,0.0,0.0,0.0,0.0,0.0,0.0,0.0,0.0,0.0,0.0,0.0,0.0,0.0,0.0,0.0,0.0,0.0,0.0,0.0,0.0,0.0,0.0,0.0,0.0,0.0,0.0,0.0,0.0,0.0,0.0,0.0,0.0,0.0,0.0,0.0,0.0,0.0,0.0,0.0,0.0,0.0,0.0,0.0,0.0,0.0,0.0,0.0,0.0,0.0,0.0,0.0,0.0,0.0,0.0,0.0,0.0,0.0,0.0,0.0,0.0,0.0,0.0,0.0,0.0,0.0,0.0,0.0,0.0,0.0,0.0,0.0,0.0,0.0,0.0,0.0,0.0,0.0,0.0,0.0,0.0,0.0,0.0,0.0,0.0,0.0,0.0,0.2992,0.3487,0.4061,0.4382,0.4402,0.3576,0.3134,0.0,0.0,0.0,0.0,0.0,0.0,0.0,0.0,0.0,0.0,0.0,0.0,0.0,0.0,0.0,0.0,0.0,0.0,0.0,0.0,0.0,0.0,0.0,0.0,0.0,0.0,0.0,0.0,0.0,0.0,0.0,0.0,0.0,0.0,0.0,0.0,0.0,0.0,0.0,0.0,0.0,0.0,0.0,0.0,0.0,0.0,0.0,0.0,0.0,0.0,0.0,0.0,0.0,0.0,0.0,0.0,0.0,0.0,0.0,0.0,0.0,0.0,0.0,0.0,0.0,0.0,0.0,0.0,0.0,0.0,0.0,0.0,0.0,0.0,0.0,0.0,0.0,0.0,0.0,0.0,0.0,0.0,0.0,0.0,0.0,0.0,0.0,0.0,0.0,0.0,0.0,0.0,0.0,0.0,0.0,0.0,0.0,0.0,0.0,0.0,0.0,0.0,0.0,0.0,0.0,0.0,0.0,0.0,0.0,0.3524,0.4442,0.4965,0.498,0.3944,0.3761,0.0,0.0,0.0,0.0,0.0,0.0,0.0,0.0,0.0,0.0,0.0,0.0,0.0,0.0,0.0,0.0,0.0,0.0,0.0,0.0,0.0,0.0,0.0,0.0,0.0,0.0,0.0,0.0,0.0,0.0,0.0,0.0,0.0,0.0,0.0,0.0,0.0,0.0,0.0,0.0,0.0,0.0,0.0,0.0,0.0,0.0,0.0,0.0,0.0,0.0,0.0,0.0,0.0,0.0,0.0,0.0,0.0,0.0,0.0,0.0,0.0,0.0,0.0,0.0,0.0,0.0,0.0,0.0,0.0,0.0,0.0,0.0,0.0,0.0,0.0,0.0,0.0,0.0,0.0,0.0,0.0,0.0,0.0,0.0,0.0,0.0,0.0,0.0,0.0,0.0,0.0,0.0,0.0,0.0,0.0,0.0,0.0,0.0,0.0,0.0,0.0,0.0,0.0,0.0,0.0,0.0,0.0,0.0,0.0,0.6022,0.5744,0.5545,0.54,0.4581,0.4382,0.4934,0.0,0.0,0.0,0.0,0.0,0.0,0.0,0.0,0.0,0.0,0.0,0.0,0.0,0.0,0.0,0.0,0.0,0.0,0.0,0.0,0.0,0.0,0.0,0.0,0.0,0.0,0.0,0.0,0.0,0.0,0.0,0.0,0.0,0.0,0.0,0.0,0.0,0.0,0.0,0.0,0.0,0.0,0.0,0.0,0.0,0.0,0.0,0.0,0.0,0.0,0.0,0.0,0.0,0.0,0.0,0.0,0.0,0.0,0.0,0.0,0.0,0.0,0.0,0.0,0.0,0.0,0.0,0.0,0.0,0.0,0.0,0.0,0.0,0.0,0.0,0.0,0.0,0.0,0.0,0.0,0.0,0.0,0.0,0.0,0.0,0.0,0.0,0.0,0.0,0.0,0.0,0.0,0.0,0.0,0.0,0.0,0.0,0.0,0.0,0.0,0.0,0.0,0.0,0.0,0.0,0.0,0.0,0.0,1.0417,0.7888,0.6337,0.577,0.542,0.5008,0.0,0.0,0.0,0.0,0.0,0.0,0.0,0.0,0.0,0.0,0.0,0.0,0.0,0.0,0.0,0.0,0.0,0.0,0.0,0.0,0.0,0.0,0.0,0.0,0.0,0.0,0.0,0.0,0.0,0.0,0.0,0.0,0.0,0.0,0.0,0.0,0.0,0.0,0.0,0.0,0.0,0.0,0.0,0.0,0.0,0.0,0.0,0.0,0.0,0.0,0.0,0.0,0.0,0.0,0.0,0.0,0.0,0.0,0.0,0.0,0.0,0.0,0.0,0.0,0.0,0.0,0.0,0.0,0.0,0.0,0.0,0.0,0.0,0.0,0.0,0.0,0.0,0.0,0.0,0.0,0.0,0.0,0.0,0.0,0.0,0.0,0.0,0.0,0.0,0.0,0.0,0.0,0.0,0.0,0.0,0.0,0.0,0.0,0.0,0.0,0.0,0.0,0.0,0.0,0.0,0.0,0.0,0.0,0.0,1.1983,1.0556,0.8986,0.7559,0.6351,0.5742,0.0,0.0,0.0,0.0,0.0,0.0,0.0,0.0,0.0,0.0,0.0,0.0,0.0,0.0,0.0,0.0,0.0,0.0,0.0,0.0,0.0,0.0,0.0,0.0,0.0,0.0,0.0,0.0,0.0,0.0,0.0,0.0,0.0,0.0,0.0,0.0,0.0,0.0,0.0,0.0,0.0,0.0,0.0,0.0,0.0,0.0,0.0,0.0,0.0,0.0,0.0,0.0,0.0,0.0,0.0,0.0,0.0,0.0,0.0,0.0,0.0,0.0,0.0,0.0,0.0,0.0,0.0,0.0,0.0,0.0,0.0,0.0,0.0,0.0,0.0,0.0,0.0,0.0,0.0,0.0,0.0,0.0,0.0,0.0,0.0,0.0,0.0,0.0,0.0,0.0,0.0,0.0,0.0,0.0,0.0,0.0,0.0,0.0,0.0,0.0,0.0,0.0,0.0,0.0,0.0,0.0,0.0,0.0,0.9347,1.2821,1.2127,1.1061,0.965,0.8308,0.7195,0.0,0.0,0.0,0.0,0.0,0.0,0.0,0.0,0.0,0.0,0.0,0.0,0.0,0.0,0.0,0.0,0.0,0.0,0.0,0.0,0.0,0.0,0.0,0.0,0.0,0.0,0.0,0.0,0.0,0.0,0.0,0.0,0.0,0.0,0.0,0.0,0.0,0.0,0.0,0.0,0.0,0.0,0.0,0.0,0.0,0.0,0.0,0.0,0.0,0.0,0.0,0.0,0.0,0.0,0.0,0.0,0.0,0.0,0.0,0.0,0.0,0.0,0.0,0.0,0.0,0.0,0.0,0.0,0.0,0.0,0.0,0.0,0.0,0.0,0.0,0.0,0.0,0.0,0.0,0.0,0.0,0.0,0.0,0.0,0.0,0.0,0.0,0.0,0.0,0.0,0.0,0.0,0.0,0.0,0.0,0.0,0.0,0.0,0.0,0.0,0.0,0.0,0.0,0.0,0.0,0.0,0.0,0.0,0.9889,1.2803,1.2926,1.248,1.1694,1.046,0.8839,0.0,0.0,0.0,0.0,0.0,0.0,0.0,0.0,0.0,0.0,0.0,0.0,0.0,0.0,0.0,0.0,0.0,0.0,0.0,0.0,0.0,0.0,0.0,0.0,0.0,0.0,0.0,0.0,0.0,0.0,0.0,0.0,0.0,0.0,0.0,0.0,0.0,0.0,0.0,0.0,0.0,0.0,0.0,0.0,0.0,0.0,0.0,0.0,0.0,0.0,0.0,0.0,0.0,0.0,0.0,0.0,0.0,0.0,0.0,0.0,0.0,0.0,0.0,0.0,0.0,0.0,0.0,0.0,0.0,0.0,0.0,0.0,0.0,0.0,0.0,0.0,0.0,0.0,0.0,0.0,0.0,0.0,0.0,0.0,0.0,0.0,0.0,0.0,0.0,0.0,0.0,0.0,0.0,0.0,0.0,0.0,0.0,0.0,0.0,0.0,0.0,0.0,0.0,0.0,0.0,0.0,0.0,0.0,0.9262,1.2777,1.2906,1.2627,1.21,1.0295,0.8921,0.0,0.0,0.0,0.0,0.0,0.0,0.0,0.0,0.0,0.0,0.0,0.0,0.0,0.0,0.0,0.0,0.0,0.0,0.0,0.0,0.0,0.0,0.0,0.0,0.0,0.0,0.0,0.0,0.0,0.0,0.0,0.0,0.0,0.0,0.0,0.0,0.0,0.0,0.0,0.0,0.0,0.0,0.0,0.0,0.0,0.0,0.0,0.0,0.545,0.0,0.0,0.0,0.0,0.0,0.0,0.0,0.0,0.0,0.0,0.0,0.0,0.0,0.0,0.0,0.0,0.0,0.0,0.0,0.0,0.0,0.0,0.0,0.0,0.0,0.0,0.0,0.0,0.0,0.0,0.0,0.0,0.0,0.0,0.0,0.0,0.0,0.0,0.0,0.0,0.0,0.0,0.0,0.0,0.0,0.0,0.0,0.0,0.0,0.0,0.0,0.0,0.0,0.0,0.0,0.0,0.0,0.0,0.0,0.9513,1.2765,1.2624,1.2404,1.2141,1.0377,0.9159,0.0,0.0,0.0,0.0,0.0,0.0,0.0,0.0,0.0,0.0,0.0,0.0,0.0,0.0,0.0,0.0,0.0,0.0,0.0,0.0,0.0,0.0,0.0,0.0,0.0,0.0,0.0,0.0,0.0,0.0,0.0,0.0,0.0,0.0,0.0,0.0,0.0,0.0,0.0,0.0,0.0,0.0,0.0,0.0,0.0,0.0,0.0,0.0,0.0,0.0,0.0,0.0,0.0,0.0,0.0,0.0,0.0,0.0,0.0,0.0,0.0,0.0,0.0,0.0,0.0,0.0,0.0,0.0,0.0,0.0,0.0,0.0,0.0,0.0,0.0,0.0,0.0,0.0,0.0,0.0,0.0,0.0,0.0,0.0,0.0,0.0,0.0,0.0,0.0,0.0,0.0,0.0,0.0,0.0,0.0,0.0,0.0,0.0,0.0,0.0,0.0,0.0,0.0,0.0,0.0,0.0,0.0,0.7322,0.9848,1.2546,1.2192,1.2008,1.21,1.0538,0.952,0.9097,0.0,0.0,0.0,0.0,0.0,0.0,0.0,0.0,0.0,0.0,0.0,0.0,0.0,0.0,0.0,0.0,0.0,0.0,0.0,0.0,0.0,0.0,0.0,0.0,0.0,0.0,0.0,0.0,0.0,0.0,0.0,0.0,0.0,0.0,0.0,0.0,0.0,0.0,0.4411,0.6238,0.0,0.0,0.0,0.0,0.0,0.0,0.0,0.0,0.6596,0.0,0.0,0.0,0.0,0.0,0.0,0.0,0.0,0.0,0.0,0.0,0.0,0.0,0.0,0.0,0.0,0.0,0.0,0.0,0.0,0.0,0.0,0.0,0.0,0.0,0.0,0.0,0.0,0.0,0.0,0.0,0.0,0.0,0.0,0.0,0.0,0.0,0.0,0.0,0.0,0.0,0.0,0.0,0.0,0.0,0.0,0.0,0.0,0.0,0.0,0.0,0.0,0.0,0.0,0.0,0.0,0.8193,0.7983,0.9124,1.1716,1.1701,1.166,1.1685,1.0643,0.9908,0.9471,0.0,0.0,0.0,0.0,0.0,0.0,0.0,0.0,0.0,0.0,0.0,0.0,0.0,0.0,0.0,0.0,0.0,0.0,0.0,0.0,0.0,0.0,0.0,0.0,0.0,0.0,0.0,0.0,0.0,0.0,0.0,0.0,0.0,0.0,0.0,0.0,0.0,0.0,0.0,0.6008,0.7461,0.0,0.0,0.0,0.0,0.0,0.0,0.0,0.0,0.7069,0.0,0.0,0.0,0.0,0.0,0.0,0.0,0.0,0.0,0.0,0.0,0.0,0.0,0.0,0.0,0.0,0.0,0.0,0.0,0.0,0.0,0.0,0.0,0.0,0.0,0.0,0.0,0.0,0.0,0.0,0.0,0.0,0.0,0.0,0.0,0.0,0.0,0.0,0.0,0.0,0.0,0.0,0.0,0.0,0.0,0.0,0.0,0.0,0.0,0.0,0.0,0.0,0.0,0.0,0.0,0.8289,0.8361,0.9208,1.0818,1.0504,1.0454,1.0869,1.0036,0.9368,0.0,0.0,0.0,0.0,0.0,0.0,0.0,0.0,0.0,0.0,0.0,0.0,0.0,0.0,0.0,0.0,0.0,0.0,0.0,0.0,0.0,0.0,0.0,0.0,0.0,0.0,0.0,0.0,0.0,0.0,0.0,0.0,0.0,0.0,0.0,0.0,0.0,0.0,0.0,0.0,0.6505,0.7404,0.9599,0.0,0.0,0.0,0.0,0.0,0.0,0.8489,0.7969,0.0,0.0,0.0,0.0,0.0,0.0,0.0,0.0,0.0,0.0,0.0,0.0,0.0,0.0,0.0,0.0,0.0,0.0,0.0,0.0,0.0,0.0,0.0,0.0,0.0,0.0,0.0,0.0,0.0,0.0,0.0,0.0,0.0,0.0,0.0,0.0,0.0,0.0,0.0,0.0,0.0,0.0,0.0,0.0,0.0,0.0,0.0,0.0,0.0,0.0,0.0,0.0,0.0,0.0,0.0,0.7734,0.857,0.9523,1.0498,0.9704,0.9592,1.0384,0.9568,0.8962,0.0,0.0,0.0,0.0,0.0,0.0,0.0,0.0,0.0,0.0,0.0,0.0,0.0,0.0,0.0,0.0,0.0,0.0,0.0,0.0,0.0,0.0,0.0,0.0,0.0,0.0,0.0,0.0,0.0,0.0,0.0,0.0,0.0,0.0,0.0,0.0,0.0,0.0,0.0,0.0,0.0,0.7404,0.958,0.9604,0.0,0.0,0.0,0.0,1.0174,0.9869,0.0,0.0,0.0,0.0,0.0,0.0,0.0,0.0,0.0,0.0,0.0,0.0,0.0,0.0,0.0,0.0,0.0,0.0,0.0,0.0,0.0,0.0,0.0,0.0,0.0,0.0,0.0,0.0,0.0,0.0,0.0,0.0,0.0,0.0,0.0,0.0,0.0,0.0,0.0,0.0,0.0,0.0,0.0,0.0,0.0,0.0,0.0,0.0,0.0,0.0,0.0,0.0,0.0,0.0,0.0,0.0,0.7744,0.857,0.9858,1.1489,1.0548,1.0246,1.0802,1.0208,0.9722,0.0,0.0,0.0,0.0,0.0,0.0,0.0,0.0,0.0,0.0,0.0,0.0,0.0,0.0,0.0,0.0,0.0,0.0,0.0,0.0,0.0,0.0,0.0,0.0,0.0,0.0,0.0,0.0,0.0,0.0,0.0,0.0,0.0,0.0,0.0,0.0,0.0,0.0,0.0,0.0,0.0,0.7413,0.9577,1.069,1.1165,0.0,0.0,1.1374,1.1624,1.2043,0.0,0.0,0.0,0.0,0.0,0.0,0.0,0.0,0.0,0.0,0.0,0.0,0.0,0.0,0.0,0.0,0.0,0.0,0.0,0.0,0.0,0.0,0.0,0.0,0.0,0.0,0.0,0.0,0.0,0.0,0.0,0.0,0.0,0.0,0.0,0.0,0.0,0.0,0.0,0.0,0.0,0.0,0.0,0.0,0.0,0.0,0.0,0.0,0.0,0.0,0.0,0.0,0.0,0.0,0.0,0.8303,0.8338,0.8695,0.9807,1.1595,1.1211,1.0663,1.012,0.9834,0.9619,0.0,0.0,0.0,0.0,0.0,0.0,0.0,0.0,0.0,0.0,0.0,0.0,0.0,0.0,0.0,0.0,0.0,0.0,0.0,0.0,0.0,0.0,0.0,0.0,0.0,0.0,0.0,0.0,0.0,0.0,0.0,0.0,0.0,0.0,0.0,0.0,0.0,0.0,0.0,0.0,0.0,0.0,0.9774,1.1176,0.0,0.0,0.0,1.2764,1.3414,0.0,0.0,0.0,0.0,0.0,0.0,0.0,0.0,0.0,0.0,0.0,0.0,0.0,0.0,0.0,0.0,0.0,0.0,0.0,0.0,0.0,0.0,0.0,0.0,0.0,0.0,0.0,0.0,0.0,0.0,0.0,0.0,0.0,0.0,0.0,0.0,0.0,0.0,0.0,0.0,0.0,0.0,0.0,0.0,0.0,0.0,0.0,0.0,0.0,0.0,0.0,0.0,0.0,0.0,0.0,0.0,0.0,0.8782,0.8965,0.9746,1.1104,1.1174,1.0749,0.9822,0.9762,0.0,0.0,0.0,0.0,0.0,0.0,0.0,0.0,0.0,0.0,0.0,0.0,0.0,0.0,0.0,0.0,0.0,0.0,0.0,0.0,0.0,0.0,0.0,0.0,0.0,0.0,0.0,0.75,0.0,0.0,0.0,0.0,0.0,0.0,0.0,0.0,0.0,0.0,0.0,0.0,0.0,0.0,1.0663,1.0405,1.179,1.3685,0.0,0.0,1.3976,1.4836,1.4982,1.4663,0.0,0.0,0.0,0.0,0.0,0.0,0.0,0.0,0.0,0.0,0.0,0.0,0.0,0.0,0.0,0.0,0.0,0.0,0.0,0.0,0.0,0.0,0.0,0.0,0.0,0.0,0.0,0.0,0.0,0.0,0.0,0.0,0.0,0.0,0.0,0.0,0.0,0.0,0.0,0.0,0.0,0.0,0.0,0.0,0.0,0.0,0.0,0.0,0.0,0.0,0.0,0.0,0.0,0.0,0.0,0.8839,0.948,0.988,1.0016,1.0032,1.022,1.061,1.0628,1.06,0.0,0.0,0.0,0.0,0.0,0.0,0.0,0.0,0.0,0.0,0.0,0.0,0.0,0.0,0.0,0.0,0.0,0.0,0.0,0.0,0.0,0.0,0.0,0.0,0.0,0.0,0.0,0.0,0.0,0.0,0.0,0.0,0.0,0.0,0.0,0.0,0.0,0.0,0.0,0.0,0.0,1.2664,1.1781,1.2825,1.4385,0.0,0.0,1.5151,1.5639,1.5741,1.5698,1.5593,0.0,0.0,0.0,0.0,0.0,0.0,0.0,0.0,0.0,0.0,0.0,0.0,0.0,0.0,0.0,0.0,0.0,0.0,0.0,0.0,0.0,0.0,0.0,0.0,0.0,0.0,0.0,0.0,0.0,0.0,0.0,0.0,0.0,0.0,0.0,0.0,0.0,0.0,0.0,0.0,0.0,0.0,0.0,0.0,0.0,0.0,0.0,0.0,0.0,0.0,0.0,0.0,0.0,0.9276,0.8835,0.951,1.0225,1.0885,1.0265,1.0,1.0193,1.0546,1.0856,0.0,0.0,0.0,0.0,0.0,0.0,0.0,0.0,0.0,0.0,0.0,0.0,0.0,0.0,0.0,0.0,0.0,0.0,0.0,0.0,0.0,0.0,0.0,0.0,0.0,0.0,0.0,0.0,0.7548,0.7863,0.9034,0.0,0.0,0.0,0.0,0.0,0.0,0.0,0.0,0.0,0.0,1.4674,1.4296,1.5374,0.0,0.0,1.5885,1.5881,1.6308,1.6368,1.6219,1.5861,1.6172,0.0,0.0,0.0,0.0,0.0,0.0,0.0,0.0,0.0,0.0,0.0,0.0,0.0,0.0,0.0,0.0,0.0,0.0,0.0,0.0,0.0,0.0,0.0,0.0,0.0,0.0,0.0,0.0,0.0,0.0,0.0,0.0,0.0,0.0,0.0,0.0,0.0,0.0,0.0,0.0,0.0,0.0,0.0,0.0,0.0,0.0,0.0,0.0,0.0,0.0,0.0,0.0,0.94,0.8795,0.9528,1.061,1.2034,1.065,1.0065,1.0393,1.0784,1.1249,0.0,0.0,0.0,0.0,0.0,0.0,0.0,0.0,0.0,0.0,0.0,0.0,0.0,0.0,0.0,0.0,0.0,0.0,0.0,0.0,0.0,0.0,0.0,0.0,0.0,0.0,0.0,0.0,0.8045,0.8754,1.0612,0.0,0.0,0.0,0.0,0.0,0.0,0.0,0.0,0.0,0.0,1.6083,1.6849,1.7731,1.7869,1.6549,1.6498,1.677,1.7232,1.713,1.674,1.592,0.0,0.0,0.0,0.0,0.0,0.0,0.0,0.0,0.0,0.0,0.0,0.0,0.0,0.0,0.0,0.0,0.0,0.0,0.0,0.0,0.0,0.0,0.0,0.0,0.0,0.0,0.0,0.0,0.0,0.0,1.0204,0.0,0.0,0.0,0.0,0.0,0.0,0.0,0.0,0.0,0.0,0.0,0.0,0.0,0.0,0.0,0.0,0.0,0.0,0.0,0.0,0.0,0.0,0.968,0.8839,0.9558,1.0955,1.3014,1.1051,1.0463,1.1512,1.1563,1.1826,1.2379,0.0,0.0,0.0,0.0,0.0,0.0,0.0,0.0,0.0,0.0,0.0,0.0,0.0,0.0,0.0,0.0,0.0,0.0,0.0,0.0,0.0,0.0,0.0,0.0,0.0,0.0,0.9119,0.9542,1.0418,0.0,0.0,0.0,0.0,0.0,0.0,0.0,0.0,0.0,0.0,1.5237,1.6698,1.9138,1.9592,1.9061,1.7855,1.7652,1.7861,1.8493,1.8089,1.7252,0.0,0.0,0.0,0.0,0.0,0.0,0.0,0.0,0.0,0.0,0.0,0.0,0.0,0.0,0.0,0.0,0.0,0.0,0.0,0.0,0.0,0.0,0.0,0.0,0.0,0.0,0.0,0.9891,0.9844,0.0,0.0,0.0,0.0,0.0,0.0,0.0,0.0,0.0,0.0,0.0,1.3836,1.3097,0.0,0.0,0.0,0.0,0.0,0.0,0.0,0.0,0.0,0.0,0.0,0.0,1.0637,0.9644,1.0513,1.174,1.3122,1.2479,1.1952,1.16,1.1939,1.2539,1.337,0.0,0.0,0.0,0.0,0.0,0.0,0.0,0.0,0.0,0.0,0.0,0.0,0.0,0.0,0.0,0.0,0.0,0.0,0.0,0.0,0.0,0.0,0.0,0.0,0.0,1.0846,0.0,0.0,0.0,0.0,0.0,0.0,0.0,0.0,0.0,0.0,0.0,1.4184,1.4443,1.525,1.611,1.7014,1.7105,1.756,0.0,0.0,0.0,0.0,0.0,0.0,0.0,0.0,0.0,0.0,0.0,0.0,0.0,0.0,1.8193,1.6768,1.6732,1.6835,1.6544,0.0,0.0,0.0,0.0,0.0,0.0,0.0,0.0,0.0,0.0,0.0,0.0,0.0,0.0,0.0,0.0,1.0331,0.0,0.0,0.0,0.0,0.0,0.0,0.0,0.0,1.3494,1.4108,1.4864,1.4135,1.3787,0.0,1.4564,1.4663,0.0,0.0,0.0,0.0,0.0,0.0,0.0,0.0,1.1647,1.109,1.1411,1.2125,1.314,1.3226,1.2878,1.2178,1.2653,1.3239,1.3888,1.4019,1.4117,0.0,0.0,0.0,0.0,0.0,0.0,0.0,0.0,0.0,0.0,0.0,0.0,0.0,0.0,0.0,0.0,0.0,0.0,0.0,0.0,0.0,0.0,0.0,1.1891,0.0,0.0,0.0,0.0,0.0,0.0,0.0,0.0,0.0,1.4117,1.4353,1.4605,1.4911,1.5429,1.5814,1.5787,0.0,0.0,0.0,0.0,0.0,0.0,0.0,1.8497,1.8812,1.8856,1.9031,1.9622,1.9728,1.9705,1.9705,0.0,0.0,1.7848,1.7809,1.7928,1.7654,1.7856,1.7696,1.655,1.6389,1.6597,0.0,0.0,0.0,0.0,0.0,0.0,0.0,0.0,1.0391,1.0397,0.0,1.0358,0.0,0.0,0.0,0.0,0.0,0.0,0.0,0.0,1.5151,1.5417,1.5004,1.4952,1.4966,1.4927,1.4974,1.5495,1.6296,1.4854,0.0,0.0,0.0,0.0,0.0,0.0,1.2733,1.3116,1.2188,1.2164,1.322,1.3211,1.3205,1.3195,1.3622,1.3888,1.3921,1.4324,1.4533,1.4533,1.4533,0.0,0.0,0.0,0.0,0.0,0.0,0.0,0.0,0.0,0.0,0.0,0.0,0.0,0.0,0.0,0.0,0.0,0.0,0.0,0.0,1.2266,0.0,0.0,0.0,0.0,0.0,0.0,0.0,0.0,0.0,0.0,1.4675,1.4609,1.4852,1.5676,0.0,0.0,0.0,0.0,1.7751,1.7797,1.8862,1.9666,1.9645,1.966,1.9675,1.9675,0.0,0.0,1.9675,1.9705,1.9705,1.9705,1.9705,1.969,1.966,1.9579,1.963,1.9615,1.9101,1.8966,1.9398,1.8515,1.8128,1.03,0.0,0.0,0.0,0.0,1.1177,1.1778,1.2539,1.1924,1.1493,1.1241,1.1236,0.0,0.0,0.0,0.0,0.0,0.0,1.4029,1.4724,1.5081,1.5504,1.6057,1.6045,1.6043,1.6043,1.6032,1.6207,1.6452,1.5633,1.4888,1.4269,0.0,0.0,0.0,0.0,1.3104,1.3289,1.2931,1.3151,1.3968,1.3462,1.3213,1.321,1.3648,1.4019,1.431,1.4721,1.4951,1.4907,1.4907,0.0,0.0,0.0,0.0,0.0,0.0,0.0,0.0,0.0,0.0,0.0,0.0,0.0,0.0,0.0,0.0,0.0,0.0,0.0,1.343,1.3517,1.3758,0.0,0.0,0.0,0.0,0.0,0.0,0.0,0.0,0.0,1.636,1.584,1.5509,0.0,0.0,1.7879,1.6063,1.7682,1.9127,1.9118,0.0,0.0,0.0,1.9705,1.9705,1.9705,1.9705,1.9705,1.9705,1.9705,1.9705,1.9705,1.9705,1.9705,1.9705,1.9705,1.9705,1.9675,1.9525,1.9486,1.9617,1.9371,1.9226,1.2207,1.1524,1.132,1.1585,1.209,1.2348,1.2855,1.3467,1.2959,1.2308,1.1603,1.1584,1.208,1.2853,1.1864,0.0,0.0,0.0,1.5105,1.596,1.6181,1.6596,1.7117,1.6729,1.6535,1.6519,1.6527,1.6506,1.6514,1.6178,1.5856,1.5517,0.0,0.0,1.3343,1.389,1.4125,1.3985,1.3902,1.3997,1.4196,1.3534,1.321,1.3232,1.3648,1.4019,1.4246,1.4814,1.5104,1.5104,1.5285,1.531,0.0,0.0,0.0,0.0,0.0,0.0,0.0,0.0,0.0,0.0,0.0,1.302,0.0,0.0,0.0,0.0,1.4325,1.463,1.4962,1.4921,0.0,0.0,0.0,0.0,0.0,0.0,0.0,1.6718,1.7089,1.7426,1.7709,1.7042,1.655,1.656,1.8344,1.9111,1.7558,0.0,1.9716,1.9702,1.9346,1.9241,1.9615,1.9705,1.9705,1.9705,1.9705,1.9705,1.9705,1.9705,1.9705,1.9705,1.9705,1.9705,1.9705,1.9705,1.9705,1.9705,1.9705,1.9705,1.9705,1.9705,1.9717,1.4338,1.3865,1.3357,1.3176,1.336,1.3997,1.4072,1.3721,1.3711,1.303,1.1938,1.1805,1.2227,1.3008,1.3248,0.0,1.5626,1.624,1.6861,1.7521,1.7978,1.8204,1.8166,1.7131,1.6593,1.6511,1.661,1.6579,1.6516,1.6541,1.6534,1.6403,1.5994,1.499,1.3672,1.4891,1.5392,1.4979,1.4916,1.4664,1.416,1.3622,1.3336,1.3336,1.3846,1.4113,1.4113,1.4907,1.5323,1.5323,1.5728,1.6039,1.6195,0.0,0.0,0.0,0.0,0.0,0.0,0.0,0.0,0.0,0.0,0.0,0.0,0.0,0.0,0.0,1.5094,0.0,1.6634,1.6398,0.0,0.0,0.0,1.6663,1.6754,1.7096,1.7316,1.7316,0.0,0.0,1.8717,0.0,1.7846,1.7832,1.8943,1.97,1.9702,1.9662,1.9702,1.9717,1.9726,1.969,1.969,1.9705,1.9705,1.9705,1.9705,1.9705,1.9705,1.9705,1.9705,1.9705,1.9705,1.9705,1.9705,1.9705,1.9705,1.9705,1.9705,1.9705,1.9705,1.9705,1.9726,1.3616,1.3344,1.3566,1.4171,1.4907,1.541,1.5547,1.5508,1.5449,1.5129,1.4473,1.3793,1.3614,1.3882,1.5006,1.5504,1.56,1.7096,1.785,1.8016,1.8154,1.8204,1.8204,1.7922,1.7355,1.6609,1.7399,1.7352,1.6569,1.694,1.6735,1.5957,1.617,1.5886,1.5157,1.5114,1.5255,1.5492,1.5117,1.484,1.4727,1.4576,1.4475,1.4525,1.5318,1.5743,1.5729,1.6593,1.7077,1.7092,1.7188,1.7277,1.7314,1.764,0.0,0.0,0.0,0.0,0.0,0.0,0.0,0.0,0.0,1.6436,1.6311,0.0,1.6596,0.0,1.7013,1.704,1.7023,1.6925,0.0,0.0,1.7914,1.8194,1.8874,1.9034,1.907,1.907,1.9176,1.9271,1.9435,1.934,1.9209,1.9245,1.9476,1.9697,1.9726,1.9717,1.9722,1.9726,1.9705,1.9705,1.9705,1.9705,1.9705,1.9705,1.9705,1.9705,1.9705,1.9705,1.9705,1.9705,1.9705,1.9705,1.9705,1.9705,1.9705,1.9705,1.9705,1.9705,1.9705,1.9705,1.9705,1.3512,1.3685,1.4821,1.5562,1.5977,1.6015,1.6243,1.665,1.665,1.6441,1.5984,1.5478,1.5236,1.5285,1.5754,1.6436,1.7266,1.8061,1.8734,1.9296,1.9296,1.9158,1.8907,1.8927,1.8581,1.8006,1.8646,1.861,1.7991,1.7823,1.7426,1.6823,1.7112,1.6999,1.6446,1.5881,1.5756,1.6045,1.5517,1.5371,1.5578,1.5131,1.4903,1.4903,1.5634,1.6118,1.6297,1.704,1.7504,1.7697,1.7682,1.7849,1.8149,1.8418,1.761,0.0,0.0,0.0,0.0,0.0,0.0,0.0,0.0,0.0,0.0,0.0,1.746,0.0,1.7682,1.7736,1.7817,1.7752,1.7988,1.875,1.8921,1.9176,1.9645,1.9705,1.9705,1.9705,1.9705,1.9705,1.9705,1.9705,1.9705,1.9705,1.9705,1.9705,1.9705,1.9705,1.9705,1.9705,1.9705,1.9705,1.9705,1.9705,1.9705,1.9705,1.9705,1.9705,1.9705,1.9705,1.9705,1.9705,1.9705,1.9705,1.9705,1.9705,1.9705,1.9705,1.9705,1.9705,1.9705,1.9705,1.9705,1.3811,1.4297,1.5823,1.6419,1.6316,1.5961,1.6474,1.7461,1.7461,1.7227,1.688,1.6733,1.6768,1.6833,1.6161,1.7146,1.9268,1.8951,1.9461,2.0652,2.0589,2.0275,1.9798,1.9788,1.9787,1.9824,1.9788,1.9826,1.976,1.877,1.8267,1.8204,1.8204,1.7928,1.7388,1.6873,1.6584,1.6509,1.612,1.6185,1.6692,1.5716,1.523,1.523,1.5734,1.6167,1.6531,1.7112,1.7573,1.7936,1.7951,1.8238,1.8792,1.8657,1.8882,0.0,1.9705,0.0,0.0,0.0,0.0,0.0,0.0,0.0,0.0,1.7936,1.7951,1.7951,1.7951,1.8208,1.8762,1.8663,1.8887,1.96,1.9705,1.9705,1.9705,1.9705,1.9705,1.9705,1.9705,1.9705,1.9705,1.9705,1.9705,1.9705,1.9705,1.9705,1.9705,1.9705,1.9705,1.9705,1.9705,1.9705,1.9705,1.9705,1.9705,1.9705,1.9705,1.9705,1.9705,1.9705,1.9705,1.9705,1.9705,1.9705,1.9705,1.9705,1.9705,1.9705,1.9705,1.9705,1.9705,1.9705,1.9705,1.407,1.4111,1.3726,1.4116,1.501,1.5265,1.633,1.79,1.79,1.7839,1.77,1.6999,1.7115,1.7678,1.7083,1.7694,1.9179,1.9247,1.9758,2.0706,2.0188,1.9911,1.9823,1.9815,1.9797,1.9797,1.98,1.9783,1.9775,1.917,1.8643,1.8204,1.8204,1.7928,1.74,0.0,0.0,0.0,1.6873,1.7352,1.7823,1.7251,1.6942,1.6942,1.7396,0.0,1.7785,1.868,1.923,1.9316,1.9316,0.0,0.0,0.0,0.0,0.0,0.0,0.0,0.0,0.0,0.0,0.0,1.945,1.9316,1.9316,1.9316,1.9316,1.9316,1.9316,1.9361,1.9495,1.948,1.954,1.966,1.9705,1.9705,1.9705,1.9705,1.9705,1.9705,1.9705,1.9705,1.9705,1.9705,1.9705,1.9705,1.9705,1.9705,1.9705,1.9705,1.9705,1.9705,1.9705,1.9705,1.9705,1.9705,1.9705,1.9705,1.9705,1.9705,1.9705,1.9705,1.9705,1.9705,1.9705,1.9705,1.9705,1.9705,1.9705,1.9705,1.9705,1.9705,1.9705,1.9705,1.9705,1.4128,0.0,1.4006,1.4187,0.0,1.5931,1.6955,1.7887,1.7977,1.7988,1.7965,1.7513,1.7578,1.7971,1.7674,1.8133,1.9195,1.9072,1.9552,2.0421,2.0397,2.0335,2.0238,1.9956,2.0068,2.0593,2.0661,2.032,1.984,1.9508,1.9271,1.8995,1.8995,1.8719,1.8191,1.7652,1.7099,1.6534,1.681,1.7333,1.8122,1.739,1.6948,1.6992,0.0,0.0,0.0,0.0,0.0,0.0,0.0,0.0,0.0,0.0,0.0,1.9705,1.9705,1.9705,1.9705,1.9705,1.9705,1.9705,1.9705,1.9705,1.9705,1.9705,1.9705,1.9705,1.9705,1.9705,1.9705,1.9705,1.9705,1.9705,1.9705,1.9705,1.9705,1.9705,1.9705,1.9705,1.9705,1.9705,1.9705,1.9705,1.9705,1.9705,1.9705,1.9705,1.9705,1.9705,1.9705,1.9705,1.9705,1.9705,1.9705,1.9705,1.9705,1.9705,1.9705,1.9705,1.9705,1.9705,1.9705,1.9705,1.9705,1.9705,1.9705,1.9705,1.9705,1.9705,1.9705,1.9705,1.9705,1.9705,1.9705,1.4189,1.4128,1.4721,1.4758,1.4661,1.6615,1.7626,1.7962,0.0,0.0,0.0,1.8008,1.8008,1.7998,1.8002,1.8476,1.9267,1.8826,1.9135,2.0088,2.0475,2.0591,2.0598,2.0285,2.0584,2.15,2.1712,2.1087,1.9853,1.9877,1.9911,1.9811,1.9798,1.9535,1.8995,1.8028,1.7167,1.656,1.6604,1.7053,1.7835,1.7109,1.6703,1.6789,1.7652,1.8145,1.8249,1.9184,1.9705,1.9705,1.9705,1.9705,1.9705,1.9705,1.9705,1.9705,1.9705,1.9705,1.9705,1.9705,1.9705,1.9705,1.9705,1.9705,1.9705,1.9705,1.9705,1.9705,1.9705,1.9705,1.9705,1.9705,1.9705,1.9705,1.9705,1.9705,1.9705,1.9705,1.9705,1.9705,1.9705,1.9705,1.9705,1.9705,1.9705,1.9705,1.9705,1.9705,1.9705,1.9705,1.9705,1.9705,1.9705,1.9705,1.9705,1.9705,1.9705,1.9705,1.9705,1.9705,1.9705,1.9705,1.9705,1.9705,1.9705,1.9705,1.9705,1.9705,1.9705,1.9705,1.9705,1.9711,1.9702,1.9752,1.9818,1.4648,1.4136,1.4213,1.4162,1.4248,1.5802,1.745,1.902,1.8689,1.835,1.8008,1.8008,1.8008,1.8008,1.8037,1.8479,1.9278,1.8762,1.8944,0.0,1.9358,1.9597,2.027,2.0936,2.134,2.1555,2.2419,2.182,2.006,2.0345,2.03,1.9861,1.9798,1.9547,1.9007,1.8405,1.7576,1.6528,1.7015,1.7097,1.6737,1.7097,1.7505,1.7948,1.8018,1.8341,1.8765,1.9369,1.9705,1.9705,1.9705,1.9705,1.9705,1.9705,1.9705,1.9705,1.9705,1.9705,1.9705,1.9705,1.9705,1.9705,1.9705,1.9705,1.9705,1.9705,1.9705,1.9705,1.9705,1.9705,1.9705,1.9705,1.9705,1.9705,1.9705,1.9705,1.9705,1.9705,1.9705,1.9705,1.9705,1.9705,1.9705,1.9705,1.9705,1.9705,1.9705,1.9705,1.9705,1.9705,1.9705,1.9705,1.9705,1.9705,1.9705,1.9705,1.9705,1.9705,1.9705,1.9705,1.9705,1.9705,1.9705,1.9705,1.9705,1.9705,1.9705,1.9705,1.9762,1.9762,1.9782,1.9793,1.9756,1.9982,2.012,1.5035,1.4648,1.4415,1.4322,1.4453,1.6098,1.7888,1.9545,1.9414,1.8783,1.8033,1.8027,1.7992,1.8037,1.7987,1.8233,1.8586,1.8318,1.8534,1.905,1.9082,1.9627,2.0677,2.185,2.2359,2.2399,2.2857,2.2578,2.1624,2.1299,2.0991,2.0702,2.0426,1.9849,1.9045,1.848,1.7928,1.7458,1.742,1.713,1.6541,1.676,1.703,1.7278,1.7527,1.7894,1.8458,1.8968,1.9406,1.9675,1.9705,1.9705,1.9705,1.9705,1.9705,1.9705,1.9705,1.9705,1.9705,1.9705,1.9705,1.9705,1.9705,1.9705,1.9705,1.9705,1.9705,1.9705,1.9705,1.9705,1.9705,1.9705,1.9705,1.9705,1.9705,1.9705,1.9705,1.9705,1.9705,1.9705,1.9705,1.9705,1.9705,1.9705,1.9705,1.9705,1.9705,1.9705,1.9705,1.9705,1.9705,1.9705,1.9705,1.9705,1.9705,1.9705,1.9705,1.9705,1.9705,1.9705,1.9705,1.9705,1.9705,1.9705,1.9741,1.9705,1.9741,1.9874,2.0,2.007,2.0261,2.0221,1.9965,2.0537,2.0936,1.5252,1.514,1.483,1.4797,1.5241,1.6645,1.8373,2.0002,2.0059,1.9525,1.8639,1.8225,1.8114,1.8232,1.812,1.8033,1.8037,1.8008,1.8148,1.8393,1.8812,1.9727,2.1067,2.2118,2.2724,2.3056,2.3106,2.3094,2.3007,2.2261,2.1637,2.1305,2.092,2.0175,1.9208,1.8781,1.845,1.8185,1.7907,1.735,1.6559,1.6534,1.6565,1.671,1.7188,1.7747,1.8263,1.8803,1.9281,1.969,1.9705,1.9705,1.9705,1.9705,1.9705,1.9705,1.9705,1.9705,1.9705,1.9705,1.9705,1.9705,1.9705,1.9705,1.9705,1.9705,1.9705,1.9705,1.9705,1.9705,1.9705,1.9705,1.9705,1.9705,1.9705,1.9705,1.9705,1.9705,1.9705,1.9705,1.9705,1.9705,1.9705,1.9705,1.9705,1.9705,1.9705,1.9705,1.9705,1.9705,1.9705,1.9705,1.9705,1.9705,1.9705,1.9705,1.9705,1.9705,1.9705,1.9705,1.9705,1.9705,1.9705,1.9741,1.9929,2.0,1.997,2.0104,2.0246,2.028,2.0398,2.0469,2.0229,2.0724,2.1237,1.5531,1.5259,1.5044,1.5799,1.6926,1.7196,1.8443,2.0333,2.0498,2.0456,2.0163,1.8673,1.8476,1.9013,1.8373,1.8081,1.8057,1.8008,1.8066,1.8104,1.8124,1.9241,2.1194,2.104,2.1624,2.2983,2.3183,2.3178,2.3122,2.2981,2.2216,2.0932,2.0731,2.0376,1.9786,1.9648,1.9133,1.824,1.8635,1.8069,1.6635,1.6534,1.671,1.7242,1.7747,1.8249,1.8741,1.9317,1.9639,1.969,1.9705,1.9705,1.9705,1.9705,1.9705,1.9705,1.9705,1.9705,1.9705,1.9705,1.9705,1.9705,1.9705,1.9705,1.9705,1.9705,1.9705,1.9705,1.9705,1.9705,1.9705,1.9705,1.9705,1.9705,1.9705,1.9705,1.9705,1.9705,1.9705,1.9705,1.9705,1.9705,1.9705,1.9705,1.9705,1.9705,1.9705,1.9705,1.9705,1.9705,1.9705,1.9705,1.9705,1.9705,1.9705,1.9705,1.9705,1.9705,1.9705,1.9705,1.9705,1.9711,1.9705,1.9777,2.0207,2.0497,2.0462,2.0426,2.028,2.028,2.0243,2.0104,2.0553,2.0622,2.0222,1.5758,1.5504,1.515,1.5554,1.6343,1.6482,1.7769,1.9627,1.986,2.0153,2.0515,1.9821,1.9762,2.0011,1.9175,1.8783,1.8769,1.8769,1.8769,1.8769,1.8769,1.9535,2.0855,2.1969,2.3038,2.4002,2.4104,2.3766,2.3215,2.3097,2.2602,2.1681,2.1317,2.0865,2.03,1.9673,1.9246,1.9132,1.8485,1.8216,1.8351,1.7505,1.6992,1.6876,1.7034,1.7598,1.8341,1.865,1.9043,1.9654,1.9705,1.9705,1.9705,1.9705,1.9705,1.9705,1.9705,1.9705,1.9705,1.9705,1.9705,1.9705,1.9705,1.9705,1.9705,1.9705,1.9705,1.9705,1.9705,1.9705,1.9705,1.9705,1.9705,1.9705,1.9705,1.9705,1.9705,1.9705,1.9705,1.9705,1.9705,1.9705,1.9705,1.9705,1.9705,1.9705,1.9705,1.9705,1.9705,1.9705,1.9705,1.9705,1.9705,1.9705,1.9705,1.9705,1.9705,1.9705,1.9705,1.9705,1.9726,1.9703,1.9728,1.9747,2.007,2.04,2.0573,2.045,2.0314,2.033,2.0724,2.0901,2.1485,2.1392,2.1101,1.5825,1.5752,1.5284,1.5469,1.5911,1.603,1.7104,1.8731,1.9226,1.9931,2.0541,2.0632,2.0703,2.0843,2.0056,1.9574,1.9326,1.9277,1.9277,1.9277,1.9277,1.9835,2.0862,2.1881,2.3513,2.5056,2.5302,2.4595,2.3492,2.3131,2.2862,2.2322,2.1907,2.1443,2.0853,1.9936,1.9573,1.9687,1.8684,1.874,1.9486,1.8669,1.7705,1.7036,1.6954,1.7366,1.8072,1.8228,1.865,1.9442,1.9603,1.9705,1.9705,1.9705,1.9705,1.9705,1.9705,1.9705,1.9705,1.9705,1.9705,1.9705,1.9705,1.9705,1.9705,1.9705,1.9705,1.9705,1.9705,1.9705,1.9705,1.9705,1.9705,1.9705,1.9705,1.9705,1.9705,1.9705,1.9705,1.9705,1.9705,1.9705,1.9705,1.9705,1.9705,1.9705,1.9705,1.9705,1.9705,1.9705,1.9705,1.9705,1.9705,1.9705,1.9705,1.9705,1.9705,1.9705,1.9705,1.9705,1.9705,1.9708,2.0235,2.0538,2.0104,1.9863,2.0204,2.023,2.0499,2.0581,2.0922,2.1375,2.1616,2.2134,2.2183,1.5825,1.5778,1.5504,1.5784,1.6528,1.6152,1.6869,1.8234,1.9108,1.9934,2.056,2.0697,2.111,2.1794,2.1023,2.0113,1.9448,1.9355,1.9365,1.9365,1.9336,2.0015,2.1209,2.0461,2.2116,2.5607,2.617,2.5564,2.4155,2.3477,2.2802,2.2372,2.2309,2.1995,2.1443,2.0853,2.0304,1.9818,1.9617,1.9674,1.9784,1.9682,1.9101,1.8201,1.8087,1.8096,1.8246,1.8637,1.8884,1.8945,1.942,1.969,1.9705,1.9705,1.9705,1.9705,1.9705,1.9705,1.9705,1.9705,1.9705,1.9705,1.9705,1.9705,1.9705,1.9705,1.9705,1.9705,1.9705,1.9705,1.9705,1.9705,1.9705,1.9705,1.9705,1.9705,1.9705,1.9705,1.9705,1.9705,1.9705,1.9705,1.9705,1.9705,1.9705,1.9705,1.9705,1.9705,1.9705,1.9705,1.9705,1.9705,1.9705,1.9705,1.9705,1.9705,1.9705,1.9705,1.9705,1.9705,1.9705,1.9903,2.0696,2.1111,2.0431,2.0045,1.9999,2.0244,2.0764,2.094,2.0968,2.1308,2.215,2.2848,2.29,1.5718,1.5545,1.5438,1.549,1.5569,1.5436,1.5944,1.6885,1.7399,1.9117,2.1208,2.1425,2.1855,2.2641,2.2372,2.158,2.0537,2.0244,2.0107,2.0107,2.0107,2.0404,2.0817,2.1008,2.148,2.286,2.5274,2.5837,2.4682,2.4318,2.3929,2.3401,2.3,2.256,2.2008,2.1468,2.0784,1.9922,1.9809,1.98,1.9845,1.9799,1.9598,1.9208,1.8545,1.8384,1.8732,1.8582,1.8906,1.9993,1.9508,1.9523,2.0206,1.9914,1.9705,1.9705,1.9705,1.9705,1.9705,1.9705,1.9705,1.9705,1.9705,1.9735,1.9705,1.9705,1.9705,1.9705,1.9705,1.9705,1.9705,1.9705,1.9705,1.9705,1.9705,1.9705,1.9705,1.9705,1.9705,1.9705,1.9705,1.9705,1.9705,1.9705,1.9705,1.9705,1.9705,1.9705,1.9705,1.9705,1.9705,1.9705,1.9705,1.9705,1.9705,1.9705,1.9705,1.9705,1.9705,1.9705,1.9705,1.9718,2.0319,2.0513,2.0124,2.0237,2.0172,2.0382,2.0922,2.1633,2.1648,2.2148,2.2947,2.3522,2.3406,1.5718,1.5551,1.5538,1.5424,1.5237,1.5144,1.548,1.6066,1.661,1.8009,1.9924,2.1541,2.2588,2.3082,2.3066,2.2609,2.1631,2.1201,2.0986,2.0996,2.0986,2.0918,2.0948,2.1444,2.1364,2.135,2.4637,2.6088,2.5398,2.4996,2.4632,2.4243,2.3853,2.3401,2.2849,2.2309,2.1567,2.0945,2.0557,2.0365,2.0303,2.0002,1.9907,1.9936,1.9196,1.8907,1.9324,1.8968,1.9207,2.0155,1.9827,1.9773,2.0251,1.9944,1.9705,1.972,1.9914,2.0034,2.0049,2.0213,2.0363,2.0348,2.0333,2.0273,2.0064,2.0004,1.9914,1.9779,1.9705,1.9705,1.9705,1.9705,1.9705,1.9705,1.9705,1.9705,1.9705,1.9705,1.9705,1.9705,1.9705,1.9705,1.9705,1.9705,1.9705,1.9705,1.9705,1.9705,1.9705,1.9705,1.9705,1.9705,1.9705,1.9705,1.9705,1.9705,1.9705,1.9705,1.9705,1.9705,1.9732,1.9728,1.9752,1.9814,1.998,2.0208,2.0441,2.0618,2.1304,2.2232,2.2785,2.3211,2.3704,2.4083,2.428,1.5825,1.5805,1.5825,1.5785,1.5712,1.5464,1.5531,1.5905,1.6704,1.6786,1.7093,2.0775,2.2754,2.3066,2.3117,2.2843,2.2402,2.2051,2.1826,2.1768,2.1787,2.1572,2.125,2.1252,2.1095,2.0762,2.44,2.627,2.6296,2.534,2.4803,2.4781,2.4795,2.4406,2.3941,2.3326,2.3043,2.2647,2.1945,2.1481,2.1325,2.0486,2.0151,2.0464,1.9974,1.9798,1.9951,1.989,1.9878,2.0093,2.0436,2.037,2.0034,1.9899,1.9779,1.9959,2.0378,2.0677,2.0767,2.1231,2.147,2.147,2.159,2.1261,2.0812,2.0707,2.0468,1.9944,1.9809,1.975,1.972,1.9765,1.9765,1.9705,1.9705,1.9705,1.9705,1.9705,1.9705,1.9705,1.9705,1.9705,1.9705,1.9705,1.9705,1.9705,1.9705,1.9705,1.9705,1.9705,1.9705,1.9705,1.9705,1.9705,1.9705,1.9705,1.9705,1.9705,1.9705,1.9726,1.9696,1.9718,1.9738,1.9788,2.0122,2.0366,2.099,2.1279,2.1988,2.285,2.3456,2.4183,2.473,2.5213,2.5782,1.5825,1.5825,1.5825,1.5825,1.5792,1.5518,1.5458,1.5518,1.5865,1.5672,1.5991,1.906,2.1472,2.2862,2.3114,2.3055,2.293,2.2793,2.2451,2.1982,2.1904,2.1836,2.166,2.1377,2.1007,2.0777,2.1766,2.3967,2.5859,2.5432,2.5061,2.529,2.536,2.4858,2.4067,2.3803,2.355,2.3106,2.2769,2.2274,2.1574,2.1138,2.0683,2.01,1.9886,2.0003,2.0469,2.0201,2.0356,2.1055,2.0939,2.0892,2.1019,2.1081,2.1066,2.1096,2.1246,2.138,2.141,2.1575,2.1739,2.171,2.171,2.1605,2.144,2.1395,2.1096,2.0513,2.0378,2.0243,1.9884,2.0139,2.0198,1.9735,1.9705,1.972,1.9705,1.972,1.9705,1.9705,1.9705,1.9705,1.9705,1.972,1.9698,1.972,1.972,1.972,1.9705,1.9705,1.9705,1.9705,1.9705,1.9705,1.9705,1.9705,1.9705,1.9705,1.9705,1.9705,1.9711,1.9737,1.9722,2.0086,2.0384,2.0842,2.1424,2.2116,2.2866,2.3424,2.405,2.4862,2.5779,2.6302,2.659,1.5825,1.5825,1.5825,1.5825,1.5812,1.5625,1.5558,1.5538,1.5438,1.5329,1.593,1.8253,2.0837,2.2746,2.3144,2.3144,2.3144,2.3144,2.2861,2.2412,2.2353,2.2275,2.2051,2.1293,2.0889,2.0738,2.0928,2.2585,2.523,2.529,2.5453,2.5865,2.5925,2.5385,2.4406,2.428,2.3954,2.3226,2.3103,2.2761,2.2166,2.1718,2.1277,2.0752,2.0413,2.0409,2.0707,2.0213,2.0487,2.1397,2.1383,2.1433,2.1834,2.1769,2.1695,2.1739,2.1934,2.2069,2.2084,2.2308,2.2398,2.2413,2.2398,2.2278,2.2143,2.2069,2.1769,2.1201,2.1066,2.0902,2.0602,2.0782,2.0857,2.0498,2.0228,1.9989,1.9824,1.9929,1.9899,1.9899,2.0139,2.0273,2.0213,1.9812,1.9753,1.9716,1.9708,1.9707,1.9713,1.9705,1.9705,1.9705,1.9705,1.9705,1.9705,1.9705,1.9705,1.9705,1.9705,1.9705,1.9726,1.9737,1.9758,2.081,2.1371,2.1779,2.2346,2.3112,2.3868,2.4297,2.4543,2.5477,2.6232,2.6471,2.6691,1.5825,1.5825,1.5825,1.5825,1.5825,1.5805,1.5792,1.5772,1.5551,1.5562,1.6203,1.8327,2.0873,2.2726,2.3144,2.3144,2.3144,2.3135,2.3115,2.3047,2.3008,2.2822,2.2373,2.1342,2.0803,2.0762,2.1439,2.2558,2.4067,2.4931,2.5877,2.6371,2.6408,2.5925,2.5046,2.487,2.4242,2.323,2.3115,2.3065,2.2949,2.2138,2.1753,2.2033,2.133,2.0815,2.0633,2.0361,2.0625,2.1581,2.1877,2.2103,2.2263,2.1994,2.1934,2.1994,2.2413,2.2667,2.2847,2.3116,2.34,2.3385,2.337,2.337,2.2817,2.2697,2.2458,2.1829,2.1739,2.1695,2.1605,2.171,2.1695,2.1665,2.1126,2.0543,1.9944,2.0363,2.0528,2.0318,2.0902,2.1545,2.1066,2.0426,2.0099,1.9947,1.9891,1.973,1.9716,1.973,1.9698,1.9735,1.9743,1.9705,1.9705,1.9705,1.9705,1.975,1.9809,1.9951,1.9816,1.9797,2.0384,2.1453,2.2282,2.2712,2.3191,2.3867,2.4226,2.4384,2.5018,2.5977,2.6349,2.6435,2.6825,1.5825,1.5825,1.5825,1.5825,1.5825,1.5825,1.5825,1.5818,1.5745,1.5504,1.5881,1.8206,2.0837,2.295,2.3144,2.3144,2.3144,2.3144,2.3144,2.3144,2.3144,2.29,2.2473,2.1861,2.1253,2.0881,2.1565,2.2797,2.4307,2.4566,2.5297,2.6477,2.6452,2.6113,2.5485,2.536,2.4578,2.3306,2.3121,2.3117,2.3073,2.2857,2.2324,2.1694,2.1506,2.1129,2.0838,2.1022,2.1574,2.2388,2.2906,2.3146,2.3176,2.3071,2.2981,2.3026,2.3176,2.334,2.337,2.349,2.3595,2.3595,2.3595,2.3535,2.34,2.3355,2.3041,2.2562,2.2454,2.2218,2.1919,2.2143,2.2368,2.2379,2.1844,2.1216,2.0737,2.1006,2.144,2.1605,2.168,2.1799,2.1819,2.1545,2.1173,2.1045,2.0528,1.9792,1.9824,1.9938,2.0062,1.9782,1.9731,1.9743,1.9705,1.9705,1.972,1.9794,1.9974,2.031,2.0085,1.9903,2.0969,2.2241,2.2872,2.3382,2.3712,2.418,2.437,2.4713,2.5931,2.6983,2.628,2.6109,2.6828,1.5825,1.5825,1.5825,1.5825,1.5825,1.5825,1.5825,1.5798,1.5691,1.5551,1.5957,1.7939,2.0641,2.2988,2.3106,2.3144,2.3144,2.3144,2.3144,2.3144,2.3144,2.29,2.2588,2.2386,2.1964,2.1301,2.1958,2.2961,2.3948,2.4282,2.5124,2.5958,2.6345,2.6163,2.5611,2.5561,2.5081,2.3914,2.3392,2.3108,2.3088,2.309,2.285,2.2246,2.2171,2.1895,2.142,2.1496,2.1966,2.2569,2.3187,2.3595,2.3595,2.3595,2.3595,2.3595,2.3595,2.3595,2.3595,2.3595,2.3595,2.3595,2.3595,2.3595,2.358,2.3595,2.337,2.3131,2.3071,2.2877,2.2667,2.2847,2.2892,2.2682,2.2562,2.2099,2.1246,2.171,2.2084,2.2278,2.2413,2.2562,2.2802,2.2592,2.2499,2.2415,2.1989,2.0931,2.0113,2.0279,2.0467,2.0385,2.0101,2.0072,2.0288,2.0378,2.0117,2.0117,2.1061,2.1205,2.0805,2.0658,2.2303,2.3536,2.3779,2.3971,2.4262,2.4669,2.5216,2.5889,2.7122,2.7621,2.7122,2.697,2.7541,1.5825,1.5825,1.5825,1.5825,1.5825,1.5825,1.5825,1.5778,1.5598,1.5611,1.6068,1.756,2.0009,2.3022,2.3115,2.3086,2.3144,2.3144,2.3144,2.3144,2.3115,2.2939,2.2685,2.2886,2.2595,2.2217,2.2774,2.3049,2.3499,2.4241,2.5023,2.5713,2.6267,2.6202,2.6013,2.5812,2.5423,2.4946,2.4227,2.3529,2.3306,2.3317,2.3288,2.2949,2.2774,2.2523,2.2009,2.1874,2.1914,2.2301,2.3098,2.3465,2.3508,2.3595,2.3595,2.3595,2.3595,2.3595,2.3595,2.3595,2.3595,2.3595,2.3595,2.3595,2.3595,2.3595,2.3565,2.349,2.3595,2.3475,2.3445,2.355,2.3325,2.3026,2.3266,2.2951,2.2338,2.2413,2.2682,2.2503,2.3161,2.349,2.3595,2.358,2.3546,2.3077,2.2821,2.2222,2.1524,2.1609,2.1573,2.1322,2.095,2.0513,2.0812,2.1141,2.0739,2.0641,2.2152,2.2629,2.2011,2.2344,2.4095,2.5049,2.4509,2.4419,2.4713,2.5224,2.5805,2.659,2.7474,2.8236,2.8665,2.882,2.9248,1.5825,1.5825,1.5825,1.5825,1.5825,1.5825,1.5825,1.5818,1.5765,1.5759,1.5858,1.626,1.891,2.2923,2.2945,2.3144,2.3067,2.3047,2.3144,2.3144,2.3144,2.3105,2.2988,2.3095,2.2959,2.2861,2.2959,2.3133,2.3288,2.3935,2.4864,2.6019,2.5837,2.6212,2.6689,2.6214,2.6236,2.607,2.575,2.4745,2.3603,2.384,2.3829,2.3165,2.2799,2.2426,2.2311,2.2218,2.2075,2.2015,2.2498,2.3215,2.351,2.3611,2.367,2.367,2.364,2.3625,2.3595,2.3595,2.3595,2.3595,2.3595,2.3595,2.3595,2.3595,2.3595,2.3595,2.3595,2.3595,2.3595,2.3595,2.3505,2.3415,2.346,2.349,2.3266,2.3281,2.3295,2.334,2.3415,2.3595,2.3595,2.3595,2.3593,2.3603,2.3468,2.3299,2.308,2.2829,2.2531,2.2152,2.1511,2.1141,2.1635,2.1934,2.1764,2.1639,2.2955,2.3585,2.2968,2.3103,2.4553,2.4957,2.4744,2.4893,2.5297,2.5508,2.6043,2.6928,2.7881,2.8568,2.9289,2.9935,3.0441,1.5825,1.5825,1.5825,1.5825,1.5825,1.5825,1.5825,1.5825,1.5825,1.5778,1.5785,1.5798,1.732,1.9886,2.1906,2.2809,2.2539,2.2862,2.3144,2.3144,2.3144,2.3144,2.3144,2.3144,2.3144,2.3144,2.3135,2.3093,2.3228,2.369,2.4399,2.5228,2.5028,2.546,2.6299,2.6086,2.6089,2.6367,2.6496,2.5711,2.4551,2.3951,2.3867,2.3303,2.3075,2.3012,2.2698,2.2433,2.2402,2.2525,2.2839,2.324,2.3656,2.3896,2.4044,2.4073,2.4073,2.3879,2.3714,2.3595,2.3595,2.3595,2.3595,2.3595,2.3595,2.3595,2.3595,2.3595,2.3595,2.3595,2.3595,2.3595,2.3595,2.3595,2.3595,2.3595,2.3595,2.3595,2.3595,2.3595,2.3565,2.3595,2.3595,2.3595,2.3595,2.3578,2.3578,2.3441,2.3423,2.322,2.3149,2.2753,2.2054,2.1874,2.2443,2.2727,2.2828,2.302,2.377,2.3918,2.3481,2.3882,2.4605,2.4595,2.4614,2.56,2.5994,2.615,2.6689,2.789,2.879,2.9215,2.9652,3.0174,3.0628,1.5825,1.5825,1.5825,1.5825,1.5825,1.5825,1.5825,1.5825,1.5825,1.5818,1.5805,1.5852,1.6099,1.6836,1.9886,2.132,2.1802,2.2492,2.3144,2.3144,2.3144,2.3144,2.3144,2.3144,2.3144,2.3144,2.3144,2.3096,2.3248,2.3639,2.4065,2.4177,2.414,2.4983,2.548,2.5409,2.5667,2.6402,2.646,2.613,2.5357,2.4335,2.4016,2.3829,2.3853,2.3766,2.3326,2.298,2.2763,2.3171,2.3513,2.3747,2.3932,2.4395,2.4642,2.4597,2.4537,2.4208,2.3729,2.3595,2.3595,2.3595,2.3595,2.3595,2.3595,2.3595,2.3595,2.3595,2.3595,2.3595,2.3595,2.3595,2.3595,2.3595,2.3595,2.3595,2.3595,2.3595,2.3595,2.3595,2.3595,2.3595,2.3595,2.3595,2.3595,2.3595,2.3595,2.358,2.3606,2.3588,2.3441,2.3396,2.2768,2.2503,2.2996,2.3101,2.3263,2.351,2.4237,2.4048,2.3754,2.3945,2.4231,2.4348,2.4679,2.5783,2.6714,2.7049,2.78,2.9029,2.9617,2.988,3.0174,3.0482,3.1043,1.5825,1.5825,1.5825,1.5825,1.5825,1.5825,1.5825,1.5825,1.5825,1.5825,1.5818,1.5792,1.5792,1.6192,1.6337,1.853,2.0998,2.2492,2.3144,2.3144,2.3144,2.3144,2.3144,2.3144,2.3144,2.3144,2.3144,2.3144,2.3135,2.3231,2.3705,2.4293,2.4094,2.4628,2.568,2.5846,2.5757,2.6552,2.6533,2.6138,2.5732,2.5619,2.5265,2.4933,2.4732,2.4381,2.3991,2.3728,2.3349,2.27,2.362,2.4159,2.446,2.4985,2.5161,2.4881,2.4822,2.4582,2.3969,2.3714,2.364,2.3595,2.3729,2.367,2.3655,2.364,2.3714,2.3595,2.3595,2.3595,2.3595,2.3595,2.3595,2.3595,2.3595,2.3595,2.3595,2.3595,2.3595,2.3595,2.3595,2.3595,2.3595,2.3595,2.3595,2.3595,2.3595,2.3595,2.3608,2.3593,2.3563,2.3563,2.3475,2.3385,2.3505,2.3445,2.3488,2.351,2.3925,2.3934,2.3701,2.3659,2.382,2.496,2.5696,2.6582,2.7316,2.7853,2.8705,2.9762,3.0154,3.0492,3.0746,3.1103,3.2232,1.5825,1.5825,1.5825,1.5825,1.5825,1.5825,1.5825,1.5825,1.5825,1.5825,1.5825,1.5825,1.5792,1.5792,1.5785,1.7842,2.0792,2.258,2.3047,2.3144,2.3144,2.3144,2.3144,2.3144,2.3144,2.3144,2.3144,2.3144,2.3135,2.3135,2.3464,2.3614,2.3463,2.4175,2.5487,2.5509,2.6149,2.6816,2.6789,2.6489,2.6308,2.6527,2.605,2.5398,2.5234,2.4958,2.4544,2.4418,2.4029,2.3546,2.4189,2.452,2.4792,2.5327,2.5948,2.5655,2.5585,2.5315,2.4762,2.4642,2.4687,2.4657,2.4612,2.4448,2.4268,2.4223,2.4088,2.3729,2.3595,2.3595,2.3595,2.3595,2.3595,2.3595,2.3595,2.3595,2.3595,2.3595,2.3595,2.3595,2.3595,2.3595,2.3595,2.3595,2.3595,2.3595,2.3595,2.3595,2.3595,2.3595,2.3595,2.3595,2.3595,2.367,2.3714,2.3744,2.3627,2.3638,2.4021,2.4028,2.4089,2.4268,2.5544,2.7079,2.7615,2.7572,2.8274,2.8942,2.9738,3.042,3.0965,3.1371,3.1419,3.1907,3.2891,1.5825,1.5825,1.5825,1.5825,1.5825,1.5825,1.5825,1.5825,1.5825,1.5825,1.5825,1.5825,1.5825,1.5974,1.6635,1.8255,2.1114,2.2315,2.3047,2.3144,2.3144,2.3144,2.3144,2.3144,2.3144,2.3144,2.3144,2.3144,2.3144,2.3144,2.3144,2.3153,2.285,2.3375,2.4827,2.5228,2.6323,2.693,2.7341,2.7055,2.6951,2.6804,2.6189,2.5285,2.5548,2.5523,2.5034,2.4958,2.4682,2.4406,2.4667,2.4912,2.4749,2.5743,2.6489,2.6574,2.6579,2.6228,2.5749,2.551,2.5405,2.5375,2.554,2.5285,2.5046,2.4866,2.4747,2.4073,2.3849,2.3744,2.3655,2.3595,2.3595,2.3595,2.3595,2.3595,2.3595,2.3595,2.3595,2.3595,2.3595,2.364,2.3684,2.3595,2.3595,2.3595,2.3595,2.3595,2.3595,2.3595,2.3595,2.3595,2.364,2.3744,2.3849,2.4014,2.3807,2.3629,2.4373,2.4866,2.5017,2.5137,2.6702,2.807,2.8313,2.8363,2.9197,2.9922,3.0578,3.1241,3.1867,3.2249,3.2311,3.2538,3.3271,1.5825,1.5825,1.5825,1.5825,1.5825,1.5825,1.5825,1.5825,1.5825,1.5825,1.5825,1.5825,1.5825,1.6177,1.7995,1.9182,2.0305,2.2041,2.3057,2.3144,2.3144,2.3144,2.3144,2.3144,2.3144,2.3144,2.3144,2.3144,2.3144,2.3144,2.3144,2.3096,2.3134,2.3483,2.4469,2.5227,2.5892,2.6745,2.7496,2.7513,2.6884,2.7059,2.6804,2.6377,2.6251,2.6088,2.5611,2.5498,2.5247,2.4809,2.4916,2.5056,2.5143,2.5939,2.6379,2.6512,2.6503,2.6318,2.5884,2.5839,2.5854,2.5884,2.5794,2.5615,2.56,2.545,2.5255,2.4927,2.4627,2.4313,2.3954,2.3699,2.364,2.3626,2.3701,2.3656,2.367,2.361,2.361,2.3804,2.3879,2.3834,2.3834,2.3699,2.3595,2.3595,2.3595,2.3595,2.3595,2.3595,2.3595,2.3595,2.3864,2.4014,2.4223,2.4358,2.4343,2.395,2.4724,2.5721,2.5995,2.627,2.7083,2.817,2.8622,2.9265,2.9917,3.0625,3.1325,3.1952,3.256,3.2934,3.3177,3.3463,3.3869,1.5825,1.5825,1.5825,1.5825,1.5825,1.5825,1.5825,1.5825,1.5825,1.5825,1.5825,1.5825,1.5825,1.6278,1.7957,1.9058,1.9926,2.2041,2.3047,2.3144,2.3144,2.3144,2.3144,2.3144,2.3144,2.3144,2.3144,2.3144,2.3144,2.3144,2.3144,2.3144,2.3135,2.3557,2.4315,2.5563,2.6519,2.743,2.8074,2.8147,2.7691,2.7519,2.7344,2.654,2.6823,2.654,2.6201,2.6076,2.5799,2.5401,2.532,2.5051,2.5049,2.5833,2.6666,2.596,2.7143,2.7375,2.6871,2.6722,2.6632,2.6692,2.6692,2.6752,2.6587,2.6063,2.5749,2.5751,2.5375,2.5016,2.4686,2.4522,2.4566,2.4537,2.4224,2.4104,2.4014,2.3699,2.3684,2.3924,2.4208,2.4328,2.4313,2.4059,2.4044,2.4148,2.388,2.3596,2.3581,2.3595,2.3595,2.3595,2.3969,2.4298,2.4612,2.4837,2.5166,2.507,2.55,2.6399,2.6983,2.7491,2.8033,2.895,2.9938,3.047,3.0843,3.124,3.1783,3.2521,3.3254,3.3541,3.3826,3.4492,3.484,1.5655,1.5343,1.5635,1.5825,1.5825,1.5825,1.5825,1.5825,1.5825,1.5825,1.5825,1.5825,1.5825,1.617,1.7557,1.8827,1.967,2.2041,2.2872,2.3144,2.3144,2.3144,2.3144,2.3144,2.3144,2.3144,2.3144,2.3144,2.3144,2.3144,2.3144,2.3144,2.3144,2.3531,2.4457,2.5753,2.7013,2.853,2.8895,2.8924,2.8515,2.8192,2.7603,2.7055,2.6866,2.6961,2.6596,2.6496,2.6151,2.5912,2.564,2.5304,2.5329,2.629,2.697,2.6834,2.7988,2.8427,2.7874,2.7625,2.759,2.756,2.756,2.7365,2.7415,2.6587,2.6033,2.6336,2.6048,2.5794,2.5553,2.5282,2.5222,2.5179,2.5136,2.4925,2.4731,2.4477,2.4373,2.4657,2.4971,2.5255,2.5106,2.4597,2.4507,2.4627,2.4313,2.3747,2.3672,2.3761,2.3863,2.3953,2.4462,2.4866,2.5076,2.536,2.5689,2.6108,2.6542,2.6852,2.7375,2.789,2.8343,2.9529,3.1098,3.1805,3.2258,3.2188,3.2224,3.3143,3.3914,3.4124,3.452,3.5256,3.5571,1.514,1.4172,1.5343,1.5825,1.5825,1.5825,1.5825,1.5825,1.5825,1.5825,1.5825,1.5825,1.5825,1.6257,1.7565,1.8835,1.9588,2.2041,2.2862,2.3144,2.3144,2.3144,2.3144,2.3144,2.3144,2.3144,2.3144,2.3144,2.3144,2.3144,2.3144,2.3144,2.3144,2.3135,2.3973,2.5473,2.751,2.8986,2.9589,2.9618,2.925,2.8771,2.7908,2.7306,2.6829,2.6571,2.6533,2.6533,2.6483,2.6264,2.5937,2.5864,2.6064,2.6972,2.744,2.7755,2.8752,2.9092,2.8637,2.8038,2.7685,2.764,2.756,2.756,2.758,2.7595,2.7171,2.6756,2.6572,2.6318,2.5944,2.5615,2.5836,2.5991,2.6068,2.5995,2.5723,2.533,2.527,2.5465,2.5689,2.5929,2.6171,2.5768,2.5377,2.5465,2.4714,2.4134,2.4104,2.4134,2.4327,2.4537,2.5076,2.545,2.5615,2.5959,2.6449,2.6867,2.727,2.7372,2.7536,2.8062,2.8769,3.0798,3.2466,3.3047,3.3508,3.3461,3.3604,3.4115,3.4607,3.5053,3.5611,3.6366,3.6329,1.4082,1.514,1.5566,1.5825,1.5825,1.5825,1.5825,1.5825,1.5825,1.5825,1.5825,1.5825,1.5825,1.6358,1.8087,1.9165,1.9861,2.2041,2.2862,2.3144,2.3144,2.3144,2.3144,2.3144,2.3144,2.3144,2.3144,2.3144,2.3144,2.3144,2.3144,2.3144,2.3144,2.3135,2.3897,2.5326,2.758,2.9181,2.9802,2.977,2.9732,2.9416,2.8712,2.7821,2.767,2.7281,2.7005,2.6628,2.6584,2.6414,2.6239,2.6311,2.6531,2.7476,2.7944,2.8092,2.9256,2.968,2.925,2.8577,2.8053,2.7655,2.756,2.7619,2.7724,2.7655,2.755,2.731,2.7171,2.6901,2.6901,2.6826,2.695,2.6969,2.6962,2.6874,2.66,2.6126,2.6033,2.6168,2.6318,2.6497,2.6789,2.6943,2.6579,2.6246,2.5339,2.4697,2.4787,2.4878,2.5152,2.5364,2.5873,2.6078,2.6243,2.6767,2.7285,2.7578,2.7935,2.8137,2.8278,2.8695,2.975,3.1868,3.3693,3.4331,3.4675,3.4667,3.4829,3.5104,3.5656,3.6282,3.6903,3.7526,3.7452,1.2904,1.498,1.5185,1.5439,1.573,1.5825,1.5825,1.5825,1.5825,1.5825,1.5825,1.5825,1.5825,1.6473,1.8303,1.9397,2.0133,2.1765,2.2775,2.3144,2.3144,2.3144,2.3144,2.3144,2.3144,2.3144,2.3144,2.3144,2.3144,2.3144,2.3144,2.3144,2.3144,2.3144,2.3647,2.5337,2.7568,2.926,2.9811,2.9781,2.9809,2.953,2.9252,2.8348,2.8147,2.7871,2.7544,2.7256,2.6967,2.6841,2.6722,2.6595,2.6917,2.747,2.8228,2.8736,2.9334,3.0182,2.9839,2.925,2.8697,2.8412,2.8308,2.8278,2.8143,2.806,2.7919,2.7889,2.7739,2.759,2.7604,2.741,2.7365,2.736,2.7379,2.7293,2.7045,2.6707,2.6752,2.6826,2.6961,2.7051,2.7145,2.733,2.7199,2.6894,2.6582,2.6036,2.5929,2.6083,2.63,2.6529,2.6751,2.6849,2.6916,2.7485,2.7927,2.7787,2.821,2.9004,2.9343,2.9739,3.1033,3.3467,3.4939,3.5557,3.5874,3.5958,3.5966,3.5977,3.662,3.736,3.7936,3.8526,3.8914,1.1702,1.3197,1.3811,1.4752,1.573,1.5825,1.5825,1.5825,1.5825,1.5825,1.5825,1.5825,1.5825,1.6285,1.8095,1.8999,1.9951,2.1765,2.295,2.3047,2.3144,2.3144,2.3144,2.3144,2.3144,2.3144,2.3144,2.3144,2.3144,2.3144,2.3144,2.3144,2.3144,2.3135,2.3309,2.54,2.758,2.9401,2.9526,2.9792,2.9731,2.9365,2.9101,2.89,2.8473,2.8197,2.8084,2.7871,2.7582,2.7331,2.7268,2.7246,2.74,2.7656,2.8451,2.9582,2.9961,3.0368,3.044,2.9939,2.9624,2.931,2.9071,2.916,2.9235,2.8966,2.8562,2.8547,2.8083,2.7784,2.7664,2.7604,2.7634,2.791,2.7976,2.7946,2.7775,2.7679,2.7769,2.7829,2.7679,2.759,2.7575,2.7545,2.7555,2.7504,2.7546,2.7379,2.7037,2.7022,2.7164,2.7622,2.775,2.7735,2.7859,2.8248,2.8487,2.8243,2.8591,2.952,3.0235,3.0655,3.2451,3.4972,3.614,3.6719,3.7076,3.7313,3.7229,3.7212,3.7716,3.8391,3.8984,3.9374,3.9578,1.1614,1.3208,1.3715,1.4657,1.573,1.5825,1.5825,1.5825,1.5825,1.5825,1.5825,1.5825,1.5825,1.617,1.6642,1.8003,1.9662,2.0944,2.212,2.3047,2.3047,2.3144,2.3144,2.3144,2.3144,2.3144,2.3144,2.3144,2.3144,2.3144,2.3144,2.3144,2.3144,2.3144,2.3724,2.5231,2.7067,2.7778,2.8761,2.9779,2.9754,2.9591,2.9465,2.9428,2.8925,2.8674,2.8637,2.8423,2.8109,2.7871,2.7833,2.7733,2.7657,2.7721,2.8266,2.9077,2.9407,3.0864,3.1426,3.1495,3.0851,3.0208,2.9714,2.9729,2.9535,2.9415,2.928,2.9116,2.8622,2.8502,2.8816,2.798,2.7951,2.8876,2.9064,2.9049,2.8936,2.8936,2.8966,2.8996,2.8921,2.8248,2.7965,2.8107,2.8106,2.8231,2.8324,2.7801,2.738,2.754,2.768,2.8384,2.8695,2.8711,2.8816,2.9086,2.9301,2.9287,2.9584,3.0308,3.097,3.1573,3.3583,3.6005,3.6986,3.7836,3.8016,3.8176,3.8362,3.8531,3.8783,3.9054,3.9511,3.9765,3.9901,1.1114,1.3105,1.3227,1.4274,1.5635,1.5825,1.5825,1.5825,1.5825,1.5825,1.5825,1.5825,1.5825,1.5778,1.5953,1.6765,1.8932,2.0576,2.148,2.2492,2.295,2.3047,2.3144,2.3144,2.3144,2.3144,2.3144,2.3144,2.3144,2.3144,2.3144,2.3144,2.3144,2.3144,2.3724,2.4808,2.6152,2.6917,2.8211,2.9365,2.9611,2.9741,2.9754,2.9666,2.944,2.9239,2.9139,2.89,2.8586,2.8473,2.831,2.8034,2.7771,2.7697,2.8043,2.8438,2.9839,3.1427,3.2436,3.2452,3.1704,3.0956,3.0447,3.0268,3.0178,3.0073,2.9939,2.9714,2.9265,2.9295,2.937,2.8417,2.8708,2.9624,3.0042,3.0012,2.9654,2.9609,2.9564,2.9654,2.9654,2.8981,2.8596,2.8621,2.8806,2.8966,2.9072,2.8502,2.8047,2.8269,2.8471,2.9019,2.9493,2.9409,2.952,2.9789,3.0003,3.0216,3.0746,3.1309,3.1896,3.2622,3.4835,3.6856,3.788,3.8656,3.884,3.8988,3.9123,3.9225,3.9326,3.9648,4.002,4.0087,4.0087,1.0023,1.2705,1.2268,1.3403,1.5439,1.573,1.5825,1.5825,1.5825,1.5825,1.5825,1.5825,1.5825,1.5798,1.5846,1.6607,1.7925,2.0025,2.0935,2.1658,2.2394,2.2765,2.3047,2.3144,2.3144,2.3144,2.3144,2.3144,2.3144,2.3144,2.3144,2.3144,2.3144,2.3144,2.3551,2.4135,2.5146,2.5953,2.7556,2.8821,2.9534,2.9779,2.9779,2.9741,2.9666,2.9641,2.9603,2.9528,2.9315,2.9126,2.8925,2.8298,2.777,2.7381,2.7844,2.8985,3.0914,3.2182,3.324,3.3051,3.2721,3.2153,3.1749,3.1556,3.1183,3.0806,3.0627,3.0357,2.9998,2.9849,2.9684,2.9585,2.9501,3.0253,3.0879,3.0633,3.0128,2.9953,2.9894,2.9924,2.9953,2.9709,2.9754,2.9739,2.9714,3.0088,3.0183,2.9734,2.9391,2.947,2.9659,2.9672,3.0003,3.0083,3.0283,3.0731,3.0711,3.0893,3.1824,3.2449,3.2989,3.3525,3.4745,3.6437,3.8543,3.9426,3.9463,3.9614,3.9851,3.9918,3.9766,3.9834,4.0087,4.0087,4.0087,0.9122,1.0993,1.1663,1.2915,1.4459,1.5439,1.5825,1.5825,1.5825,1.5825,1.5825,1.5825,1.5825,1.5818,1.5778,1.6626,1.7475,1.8596,1.9852,2.0845,2.1667,2.2315,2.2775,2.3047,2.3047,2.3144,2.3144,2.3144,2.3144,2.3144,2.3144,2.3144,2.3144,2.3144,2.3222,2.3464,2.3859,2.4804,2.6725,2.839,2.9443,2.9779,2.9779,2.9779,2.9779,2.9779,2.9779,2.9779,2.9616,2.9553,2.9515,2.9101,2.8586,2.851,2.8848,3.0093,3.1369,3.2459,3.3813,3.3993,3.3634,3.308,3.2512,3.1988,3.1644,3.1273,3.1165,3.0896,3.0627,3.0432,3.0332,3.0317,3.0481,3.1054,3.1464,3.117,3.0761,3.0731,3.0657,3.0597,3.0627,3.0612,3.0657,3.0731,3.075,3.1234,3.1279,3.0824,3.069,3.0764,3.0875,3.0925,3.0919,3.1016,3.1495,3.1958,3.1708,3.1678,3.2571,3.3471,3.416,3.461,3.4826,3.6244,3.8612,3.963,3.9952,4.0087,4.0087,4.0087,3.9969,4.0037,4.0087,4.0087,4.0087,0.8825,1.0096,1.1365,1.2915,1.4657,1.5439,1.5825,1.5825,1.5825,1.5825,1.5825,1.5825,1.5825,1.5825,1.5818,1.619,1.6842,1.7684,1.8588,1.9405,2.0845,2.1667,2.2306,2.2862,2.3047,2.3144,2.3144,2.3144,2.3144,2.3144,2.3144,2.3144,2.3144,2.3144,2.3135,2.3183,2.3186,2.4242,2.5858,2.8036,2.9209,2.9792,2.9792,2.9779,2.9779,2.9779,2.9779,2.9779,2.9779,2.9779,2.9779,2.9503,2.9026,2.895,2.9346,3.0465,3.164,3.2758,3.3857,3.4077,3.3841,3.341,3.2691,3.2003,3.1704,3.1392,3.1435,3.1345,3.115,3.0944,3.0917,3.1021,3.1409,3.187,3.1809,3.1689,3.1644,3.1629,3.1554,3.148,3.1435,3.142,3.1407,3.1482,3.1511,3.1498,3.1499,3.1338,3.1499,3.194,3.2143,3.2307,3.2178,3.2123,3.2602,3.2916,3.2766,3.272,3.3272,3.4197,3.5074,3.6026,3.654,3.7536,3.8973,3.9598,3.9952,4.007,4.0087,4.0087,4.0087,4.0087,4.0087,4.0087,4.0087,0.8726,0.9903,1.1365,1.3403,1.5635,1.5825,1.5825,1.5825,1.5825,1.5825,1.5825,1.5825,1.5825,1.5825,1.5825,1.5825,1.6292,1.6943,1.7498,1.7785,1.9579,2.0755,2.1676,2.2422,2.3008,2.3076,2.3144,2.3144,2.3144,2.3144,2.3144,2.3144,2.3144,2.3144,2.3144,2.3144,2.3103,2.3537,2.5287,2.7325,2.9101,2.9764,2.9714,2.9792,2.9779,2.9779,2.9779,2.9779,2.9779,2.9779,2.9716,2.949,2.9264,2.9076,2.9674,3.0375,3.1608,3.2598,3.3427,3.3657,3.3523,3.3035,3.2347,3.1869,3.1644,3.1482,3.1467,3.1467,3.1315,3.1285,3.1258,3.1541,3.1988,3.2123,3.2048,3.1988,3.1958,3.1943,3.1928,3.1943,3.2138,3.2049,3.1827,3.1871,3.1516,3.1516,3.2229,3.2287,3.2481,3.3141,3.3336,3.3531,3.3066,3.2931,3.3335,3.3636,3.3697,3.3877,3.4297,3.4607,3.5272,3.6706,3.8398,3.8616,3.8725,3.9358,3.9731,3.9782,3.985,4.0087,4.0087,4.0087,4.0087,4.0104,4.0104,0.8137,0.8726,1.0974,1.3397,1.5635,1.5825,1.5825,1.5825,1.5825,1.5825,1.5825,1.5825,1.5825,1.5825,1.5825,1.5825,1.6015,1.6292,1.685,1.7404,1.8588,1.9761,2.1159,2.2152,2.2909,2.3096,2.3144,2.3144,2.3144,2.3144,2.3144,2.3144,2.3144,2.3144,2.3144,2.3135,2.3152,2.3238,2.444,2.6539,2.8667,2.8864,2.8767,2.9365,2.9714,2.9779,2.9779,2.9779,2.9779,2.9779,2.9779,2.9691,2.9591,2.9578,3.0075,3.0874,3.1356,3.2187,3.2885,3.3165,3.3108,3.2868,3.2348,3.1959,3.1734,3.1599,3.1482,3.1482,3.1511,3.1511,3.1704,3.2063,3.2377,3.2362,3.2332,3.2302,3.2287,3.2287,3.2273,3.2482,3.2736,3.2661,3.2407,3.2078,3.1659,3.2435,3.397,3.4577,3.4378,3.4652,3.45,3.4501,3.3728,3.3651,3.4023,3.4277,3.434,3.48,3.5256,3.5431,3.558,3.7451,3.9104,3.8343,3.8259,3.8834,3.9196,3.9193,3.9368,3.9901,4.0087,4.0087,4.0104,4.0104,4.012,0.8038,0.8333,1.0774,1.3403,1.5534,1.5825,1.5825,1.5825,1.5825,1.5825,1.5825,1.5825,1.5825,1.5825,1.5825,1.5825,1.5825,1.5825,1.6197,1.6763,1.7591,1.8503,1.9928,2.1545,2.2504,2.29,2.3076,2.3144,2.3144,2.3144,2.3144,2.3144,2.3144,2.3144,2.3144,2.3115,2.3134,2.313,2.3796,2.5242,2.7382,2.7614,2.8164,2.8949,2.9456,2.9624,2.9779,2.9779,2.9779,2.9779,2.9779,2.9779,2.9741,2.9729,3.005,3.0456,3.1005,3.1535,3.2207,3.2652,3.2804,3.257,3.2512,3.2154,3.2168,3.2033,3.1779,3.1794,3.2033,3.2063,3.2258,3.2587,3.2572,3.2542,3.2811,3.2961,3.2961,3.2961,3.2946,3.3021,3.32,3.3336,3.3109,3.2974,3.2837,3.3707,3.5276,3.5396,3.5455,3.5485,3.5485,3.5332,3.4508,3.4415,3.4786,3.4981,3.5011,3.5537,3.5958,3.6307,3.6607,3.8527,3.9713,3.8286,3.7688,3.8324,3.8564,3.8978,3.9385,4.002,4.0087,4.0104,4.0104,4.0323,4.0931,0.8233,0.8821,1.0974,1.3403,1.5635,1.5825,1.5825,1.5825,1.5825,1.5825,1.5825,1.5825,1.5825,1.5825,1.5825,1.5825,1.5825,1.5825,1.592,1.6204,1.6943,1.7677,1.868,1.9968,2.1598,2.2732,2.3037,2.3076,2.3144,2.3144,2.3144,2.3144,2.3144,2.3144,2.3144,2.3135,2.3086,2.3066,2.3347,2.3229,2.4524,2.6166,2.7463,2.8438,2.9118,2.9702,2.9779,2.9779,2.9779,2.9779,2.9779,2.9779,2.9779,2.9779,2.9779,3.0139,3.0495,3.1027,3.1519,3.2263,3.243,3.2518,3.2537,3.2602,3.2632,3.2512,3.2258,3.2332,3.2557,3.2691,3.2871,3.3095,3.3051,3.2916,3.326,3.3499,3.3499,3.3574,3.3619,3.3634,3.383,3.3935,3.395,3.3875,3.4297,3.5178,3.548,3.5488,3.5499,3.5503,3.5473,3.5488,3.512,3.5205,3.5429,3.5563,3.5582,3.5706,3.6115,3.677,3.7327,3.8018,3.8129,3.7422,3.7118,3.8068,3.8832,3.9355,3.9813,4.0189,4.0696,4.0865,4.0306,4.0692,4.2066,0.9213,1.1165,1.175,1.3403,1.5635,1.5825,1.5825,1.5825,1.5825,1.5825,1.5825,1.5825,1.5825,1.5825,1.5825,1.5825,1.5825,1.5825,1.5825,1.6015,1.6292,1.685,1.7863,1.9314,2.1069,2.2353,2.3086,2.3067,2.3144,2.3144,2.3144,2.3144,2.3144,2.3144,2.3144,2.3144,2.3144,2.3144,2.3144,2.3153,2.374,2.5325,2.7,2.8119,2.9197,2.9611,2.9779,2.9779,2.9779,2.9779,2.9779,2.9779,2.9779,2.9779,2.9779,2.9779,3.0216,3.0664,3.128,3.1929,3.2157,3.3006,3.3121,3.332,3.3305,3.3305,3.32,3.3275,3.341,3.3365,3.3559,3.3978,3.4053,3.3634,3.3664,3.3694,3.3709,3.4038,3.4292,3.4472,3.4681,3.4865,3.4921,3.4876,3.4891,3.5484,3.5469,3.5524,3.5509,3.5474,3.5489,3.5489,3.5489,3.5489,3.5474,3.5913,3.6072,3.6117,3.6211,3.6646,3.6723,3.6321,3.6206,3.6704,3.7329,3.8232,3.8974,3.9714,4.0079,4.056,4.1508,4.1726,4.1028,4.1112,4.2402]},{"header":{"parameterUnit":"m.s-1","parameterCategory":1,"la1":31.0,"la2":29.5877,"lo1":-88.7671,"lo2":-86.6584,"dy":0.0162,"dx":0.0185,"nx":115,"ny":88,"refTime":"2023-04-29T06:00:00:Z","depth":0,"parameterNumber":3,"parameterNumberName":"V-component_of_WINDS"},"data":[0.0,0.0,0.0,0.0,0.0,0.0,0.0,0.0,0.0,0.0,0.0,0.0,0.0,0.0,0.0,0.0,0.0,0.0,0.0,0.0,0.0,0.0,0.0,0.0,0.0,0.0,0.0,0.0,0.0,0.0,0.0,0.0,0.0,0.0,0.0,0.0,0.0,0.0,0.0,0.0,0.0,0.0,0.0,0.0,0.0,0.0,0.0,0.0,0.0,0.0,0.0,0.0,0.0,0.0,0.0,0.0,0.0,0.0,0.0,0.0,0.0,0.0,0.0,0.0,0.0,0.0,0.0,0.0,0.0,0.0,0.0,0.0,0.0,0.0,0.0,0.0,0.0,0.0,0.0,0.0,0.0,0.0,0.0,0.0,0.0,0.0,0.0,0.0,0.0,0.0,0.0,0.0,0.0,0.0,0.0,0.0,0.0,0.0,0.0,0.0,0.0,0.0,0.0,0.0,0.0,0.0,0.0,0.0,0.0,0.0,0.0,0.0,0.0,0.0,0.0,0.0,0.0,0.0,0.0,0.0,0.0,0.0,0.0,0.0,0.0,0.0,0.0,0.0,0.0,0.0,0.0,0.0,0.0,0.0,0.0,0.0,0.0,0.0,0.0,0.0,0.0,0.0,0.0,0.0,0.0,0.0,0.0,0.0,0.0,0.0,0.0,0.0,0.0,0.0,0.0,0.0,0.0,0.0,0.0,0.0,0.0,0.0,0.0,0.0,0.0,0.0,0.0,0.0,0.0,0.0,0.0,0.0,0.0,0.0,0.0,0.0,0.0,0.0,0.0,0.0,0.0,0.0,0.0,0.0,0.0,0.0,0.0,0.0,0.0,0.0,0.0,0.0,0.0,0.0,0.0,0.0,0.0,0.0,0.0,0.0,0.0,0.0,0.0,0.0,0.0,0.0,0.0,0.0,0.0,0.0,0.0,0.0,0.0,0.0,0.0,0.0,0.0,0.0,0.0,0.0,0.0,0.0,0.0,0.0,0.0,0.0,0.0,0.0,0.0,0.0,0.0,0.0,0.0,0.0,0.0,0.0,0.0,0.0,0.0,0.0,0.0,0.0,0.0,0.0,0.0,0.0,0.0,0.0,0.0,0.0,0.0,0.0,0.0,0.0,0.0,0.0,0.0,0.0,0.0,0.0,0.0,0.0,0.0,0.0,0.0,0.0,0.0,0.0,0.0,0.0,0.0,0.0,0.0,0.0,0.0,0.0,0.0,0.0,0.0,0.0,0.0,0.0,0.0,0.0,0.0,0.0,0.0,0.0,0.0,0.0,0.0,0.0,0.0,0.0,0.0,0.0,0.0,0.0,0.0,0.0,0.0,0.0,0.0,0.0,0.0,0.0,0.0,0.0,0.0,0.0,0.0,0.0,0.0,0.0,0.0,0.0,0.0,0.0,0.0,0.0,0.0,0.0,0.0,0.0,0.0,0.0,0.0,0.0,0.0,0.0,0.0,0.0,0.0,0.0,0.0,0.0,0.0,0.0,0.0,0.0,0.0,0.0,0.0,0.0,0.0,0.0,0.0,0.0,0.0,0.0,0.0,0.0,0.0,0.0,0.0,0.0,0.0,0.0,0.0,0.0,0.0,0.0,0.0,0.0,0.0,0.0,0.0,0.0,0.0,0.0,0.0,0.0,0.0,0.0,0.0,0.0,0.0,0.0,0.0,0.0,0.0,0.0,0.0,0.0,0.0,0.0,0.0,0.0,0.0,0.0,0.0,0.0,0.0,0.0,0.0,0.0,0.0,0.0,0.0,0.0,0.0,0.0,0.0,0.0,0.0,0.0,0.0,0.0,0.0,0.0,0.0,0.0,0.0,0.0,0.0,0.0,0.0,0.0,0.0,0.0,0.0,0.0,0.0,0.0,0.0,0.0,0.0,0.0,0.0,0.0,0.0,0.0,0.0,0.0,0.0,0.0,0.0,0.0,0.0,0.0,0.0,0.0,0.0,0.0,0.0,0.0,0.0,0.0,0.0,0.0,0.0,0.0,0.0,0.0,0.0,0.0,0.0,0.0,0.0,0.0,0.0,0.0,0.0,0.0,0.0,0.0,0.0,0.0,0.0,0.0,0.0,0.0,0.0,0.0,0.0,0.0,0.0,0.0,0.0,0.0,0.0,0.0,0.0,0.0,0.0,0.0,0.0,0.0,0.0,0.0,0.0,0.0,0.0,0.0,0.0,0.0,0.0,0.0,0.0,0.0,0.0,0.0,0.0,0.0,0.0,0.0,0.0,0.0,0.0,0.0,0.0,0.0,0.0,0.0,0.0,0.0,0.0,0.0,0.0,0.0,0.0,0.0,0.0,0.0,0.0,0.0,0.0,0.0,0.0,0.0,0.0,0.0,0.0,0.0,0.0,0.0,0.0,0.0,0.0,0.0,0.0,0.0,0.0,0.0,0.0,0.0,0.0,0.0,0.0,0.0,0.0,0.0,0.0,0.0,0.0,0.0,0.0,0.0,0.0,0.0,0.0,0.0,0.0,0.0,0.0,0.0,0.0,0.0,0.0,0.0,0.0,0.0,0.0,0.0,0.0,0.0,0.0,0.0,0.0,0.0,0.0,0.0,0.0,0.0,0.0,0.0,0.0,0.0,0.0,0.0,0.0,0.0,0.0,0.0,0.0,0.0,0.0,0.0,0.0,0.0,0.0,0.0,0.0,0.0,0.0,0.0,0.0,0.0,0.0,0.0,0.0,0.0,0.0,0.0,0.0,0.0,0.0,0.0,0.0,0.0,0.0,0.0,0.0,0.0,0.0,0.0,0.0,0.0,0.0,0.0,0.0,0.0,0.0,0.0,0.0,0.0,0.0,0.0,0.0,0.0,0.0,0.0,0.0,0.0,0.0,0.0,0.0,0.0,0.0,0.0,0.0,0.0,0.0,0.0,0.0,0.0,0.0,0.0,0.0,0.0,0.0,0.0,0.0,0.0,0.0,0.0,0.0,0.0,0.0,0.0,0.0,0.0,0.0,0.0,0.0,0.0,0.0,0.0,0.0,0.0,0.0,0.0,0.0,0.0,0.0,0.0,0.0,0.0,0.0,0.0,0.0,0.0,0.0,0.0,0.0,0.0,0.0,0.0,0.0,0.0,0.0,0.0,0.0,0.0,0.0,0.0,0.0,0.0,0.0,0.0,0.0,0.0,0.0,0.0,0.0,0.0,0.0,0.0,0.0,0.0,0.0,0.0,0.0,0.0,0.0,0.0,0.0,0.0,0.0,0.0,0.0,0.0,0.0,0.0,0.0,0.0,0.0,0.0,0.0,0.0,0.0,0.0,0.0,0.0,0.0,0.0,0.0,0.0,0.0,0.0,0.0,0.0,0.0,0.0,0.0,0.0,0.0,0.0,0.0,0.0,0.0,0.0,0.0,0.0,0.0,0.0,0.0,0.0,0.0,0.0,0.0,0.0,0.0,0.0,0.0,0.0,0.0,0.0,0.0,0.0,0.0,0.0,0.0,0.0,0.0,0.0,0.0,0.0,0.0,0.0,0.0,0.0,0.0,0.0,0.0,0.0,0.0,0.0,0.0,0.0,0.0,0.0,0.0,0.0,0.0,0.0,0.0,0.0,0.0,0.0,0.0,0.0,0.0,0.0,0.0,0.0,0.0,0.0,0.0,0.0,0.0,0.0,0.0,0.0,0.0,0.0,0.0,0.0,0.0,0.0,0.0,0.0,0.0,0.0,0.0,0.0,0.0,0.0,0.0,0.0,0.0,0.0,0.0,0.0,0.0,0.0,0.0,0.0,0.0,0.0,0.0,0.0,0.0,0.0,0.0,0.0,0.0,0.0,0.0,0.0,0.0,0.0,0.0,0.0,0.0,0.0,0.0,0.0,0.0,0.0,0.0,0.0,0.0,0.0,0.0,0.0,0.0,0.0,0.0,0.0,0.0,0.0,0.0,0.0,0.0,0.0,0.0,0.0,0.0,0.0,0.0,0.0,0.0,0.0,0.0,0.0,0.0,0.0,0.0,0.0,0.0,0.0,0.0,0.0,0.0,0.0,0.0,0.0,0.0,0.0,0.0,0.0,0.0,0.0,0.0,0.0,0.0,0.0,0.0,0.0,0.0,0.0,0.0,0.0,0.0,0.0,0.0,0.0,0.0,0.0,0.0,0.0,0.0,0.0,0.0,0.0,0.0,0.0,0.0,0.0,0.0,0.0,0.0,0.0,0.0,0.0,0.0,0.0,0.0,0.0,0.0,0.0,0.0,0.0,0.0,0.0,0.0,0.0,0.0,0.0,0.0,0.0,0.0,0.0,0.0,0.0,-1.0312,0.0,0.0,0.0,0.0,0.0,0.0,0.0,0.0,0.0,0.0,0.0,0.0,0.0,0.0,0.0,0.0,0.0,0.0,0.0,0.0,0.0,0.0,0.0,0.0,0.0,0.0,0.0,0.0,0.0,0.0,0.0,0.0,0.0,0.0,0.0,0.0,0.0,0.0,0.0,0.0,0.0,0.0,0.0,0.0,0.0,0.0,0.0,0.0,0.0,0.0,0.0,0.0,0.0,0.0,0.0,0.0,0.0,0.0,0.0,0.0,0.0,0.0,0.0,0.0,0.0,0.0,0.0,0.0,0.0,0.0,0.0,0.0,0.0,0.0,0.0,0.0,0.0,0.0,0.0,0.0,0.0,0.0,0.0,0.0,0.0,0.0,0.0,0.0,0.0,0.0,0.0,0.0,0.0,0.0,0.0,0.0,0.0,0.0,0.0,0.0,0.0,0.0,0.0,0.0,0.0,0.0,0.0,0.0,0.0,0.0,-1.024,-1.0242,-1.0242,-1.0242,-1.028,0.0,0.0,0.0,0.0,0.0,0.0,0.0,0.0,0.0,0.0,0.0,0.0,0.0,0.0,0.0,0.0,0.0,0.0,0.0,0.0,0.0,0.0,0.0,0.0,0.0,0.0,0.0,0.0,0.0,0.0,0.0,0.0,0.0,0.0,0.0,0.0,0.0,0.0,0.0,0.0,0.0,0.0,0.0,0.0,0.0,0.0,0.0,0.0,0.0,0.0,0.0,0.0,0.0,0.0,0.0,0.0,0.0,0.0,0.0,0.0,0.0,0.0,0.0,0.0,0.0,0.0,0.0,0.0,0.0,0.0,0.0,0.0,0.0,0.0,0.0,0.0,0.0,0.0,0.0,0.0,0.0,0.0,0.0,0.0,0.0,0.0,0.0,0.0,0.0,0.0,0.0,0.0,0.0,0.0,0.0,0.0,0.0,0.0,0.0,0.0,0.0,0.0,0.0,0.0,0.0,0.0,0.0,0.0,0.0,0.0,0.0,0.0,-1.1058,-1.1056,-1.1096,0.0,0.0,0.0,0.0,0.0,0.0,0.0,0.0,0.0,0.0,0.0,0.0,0.0,0.0,0.0,0.0,0.0,0.0,0.0,0.0,0.0,0.0,0.0,0.0,0.0,0.0,0.0,0.0,0.0,0.0,0.0,0.0,0.0,0.0,0.0,0.0,0.0,0.0,0.0,0.0,0.0,0.0,0.0,0.0,0.0,0.0,0.0,0.0,0.0,0.0,0.0,0.0,0.0,0.0,0.0,0.0,0.0,0.0,0.0,0.0,0.0,0.0,0.0,0.0,0.0,0.0,0.0,0.0,0.0,0.0,0.0,0.0,0.0,0.0,0.0,0.0,0.0,0.0,0.0,0.0,0.0,0.0,0.0,0.0,0.0,0.0,0.0,0.0,0.0,0.0,0.0,0.0,0.0,0.0,0.0,0.0,0.0,0.0,0.0,0.0,0.0,0.0,0.0,0.0,0.0,0.0,0.0,0.0,0.0,0.0,-1.1308,-1.3582,-1.3627,0.0,-1.3632,0.0,0.0,0.0,0.0,0.0,0.0,0.0,0.0,0.0,0.0,0.0,0.0,0.0,0.0,0.0,0.0,0.0,0.0,0.0,0.0,0.0,0.0,0.0,0.0,0.0,0.0,0.0,0.0,0.0,0.0,0.0,0.0,0.0,0.0,0.0,0.0,0.0,0.0,0.0,0.0,0.0,0.0,0.0,0.0,0.0,0.0,0.0,0.0,0.0,0.0,0.0,0.0,0.0,0.0,0.0,0.0,0.0,0.0,0.0,0.0,0.0,0.0,0.0,0.0,0.0,0.0,0.0,0.0,0.0,0.0,0.0,0.0,0.0,0.0,0.0,0.0,0.0,0.0,0.0,0.0,0.0,0.0,0.0,0.0,0.0,0.0,0.0,0.0,0.0,0.0,0.0,0.0,0.0,0.0,0.0,0.0,0.0,0.0,0.0,0.0,0.0,0.0,0.0,0.0,0.0,0.0,0.0,0.0,0.0,0.0,-1.1133,-1.318,-1.3223,-1.2997,0.0,0.0,0.0,0.0,0.0,0.0,0.0,0.0,0.0,0.0,0.0,0.0,0.0,0.0,0.0,0.0,0.0,0.0,0.0,0.0,0.0,0.0,0.0,0.0,0.0,0.0,0.0,0.0,0.0,0.0,0.0,0.0,0.0,0.0,0.0,0.0,0.0,0.0,0.0,0.0,0.0,0.0,0.0,0.0,0.0,0.0,0.0,0.0,0.0,0.0,0.0,0.0,0.0,0.0,0.0,0.0,0.0,0.0,0.0,0.0,0.0,0.0,0.0,0.0,0.0,0.0,0.0,0.0,0.0,0.0,0.0,0.0,0.0,0.0,0.0,0.0,0.0,0.0,0.0,0.0,0.0,0.0,0.0,0.0,0.0,0.0,0.0,0.0,0.0,0.0,0.0,0.0,0.0,0.0,0.0,0.0,0.0,0.0,0.0,0.0,0.0,0.0,0.0,0.0,0.0,0.0,0.0,0.0,0.0,0.0,-1.1085,-1.1631,-1.3449,-1.2549,-1.1998,-1.2122,0.0,0.0,0.0,0.0,0.0,0.0,0.0,0.0,0.0,0.0,0.0,0.0,0.0,0.0,0.0,0.0,0.0,0.0,0.0,0.0,0.0,0.0,0.0,0.0,0.0,0.0,0.0,0.0,0.0,0.0,0.0,0.0,0.0,0.0,0.0,0.0,0.0,0.0,0.0,0.0,0.0,0.0,0.0,0.0,0.0,0.0,0.0,0.0,0.0,0.0,0.0,0.0,0.0,0.0,0.0,0.0,0.0,0.0,0.0,0.0,0.0,0.0,0.0,0.0,0.0,0.0,0.0,0.0,0.0,0.0,0.0,0.0,0.0,0.0,0.0,0.0,0.0,0.0,0.0,0.0,0.0,0.0,0.0,0.0,0.0,0.0,0.0,0.0,0.0,0.0,0.0,0.0,0.0,0.0,0.0,0.0,0.0,0.0,0.0,0.0,0.0,0.0,0.0,0.0,0.0,0.0,0.0,0.0,-1.5559,-1.3429,-1.3374,-1.5638,-1.2167,-1.1247,0.0,0.0,0.0,0.0,0.0,0.0,0.0,0.0,0.0,0.0,0.0,0.0,0.0,0.0,0.0,0.0,0.0,0.0,0.0,0.0,0.0,0.0,0.0,0.0,0.0,0.0,0.0,0.0,0.0,0.0,0.0,0.0,0.0,0.0,0.0,0.0,0.0,0.0,0.0,0.0,0.0,0.0,0.0,0.0,0.0,0.0,0.0,0.0,0.0,0.0,0.0,0.0,0.0,0.0,0.0,0.0,0.0,0.0,0.0,0.0,0.0,0.0,0.0,0.0,0.0,0.0,0.0,0.0,0.0,0.0,0.0,0.0,0.0,0.0,0.0,0.0,0.0,0.0,0.0,0.0,0.0,0.0,0.0,0.0,0.0,0.0,0.0,0.0,0.0,0.0,0.0,0.0,0.0,0.0,0.0,0.0,0.0,0.0,0.0,0.0,0.0,0.0,0.0,0.0,0.0,0.0,0.0,0.0,0.0,-1.2077,-1.2271,-1.2538,-1.2859,-1.1989,-1.1705,0.0,0.0,0.0,0.0,0.0,0.0,0.0,0.0,0.0,0.0,0.0,0.0,0.0,0.0,0.0,0.0,0.0,0.0,0.0,0.0,0.0,0.0,0.0,0.0,0.0,0.0,0.0,0.0,0.0,0.0,0.0,0.0,0.0,0.0,0.0,0.0,0.0,0.0,0.0,0.0,0.0,0.0,0.0,0.0,0.0,0.0,0.0,0.0,0.0,0.0,0.0,0.0,0.0,0.0,0.0,0.0,0.0,0.0,0.0,0.0,0.0,0.0,0.0,0.0,0.0,0.0,0.0,0.0,0.0,0.0,0.0,0.0,0.0,0.0,0.0,0.0,0.0,0.0,0.0,0.0,0.0,0.0,0.0,0.0,0.0,0.0,0.0,0.0,0.0,0.0,0.0,0.0,0.0,0.0,0.0,0.0,0.0,0.0,0.0,0.0,0.0,0.0,0.0,0.0,0.0,0.0,0.0,0.0,0.0,-1.0615,0.0,-1.203,-1.1449,-1.1504,-1.1299,0.0,0.0,0.0,0.0,0.0,0.0,0.0,0.0,0.0,0.0,0.0,0.0,0.0,0.0,0.0,0.0,0.0,0.0,0.0,0.0,0.0,0.0,0.0,0.0,0.0,0.0,0.0,0.0,0.0,0.0,0.0,0.0,0.0,0.0,0.0,0.0,0.0,0.0,0.0,0.0,0.0,0.0,0.0,0.0,0.0,0.0,0.0,0.0,0.0,0.0,0.0,0.0,0.0,0.0,0.0,0.0,0.0,0.0,0.0,0.0,0.0,0.0,0.0,0.0,0.0,0.0,0.0,0.0,0.0,0.0,0.0,0.0,0.0,0.0,0.0,0.0,0.0,0.0,0.0,0.0,0.0,0.0,0.0,0.0,0.0,0.0,0.0,0.0,0.0,0.0,0.0,0.0,0.0,0.0,0.0,0.0,0.0,0.0,0.0,0.0,0.0,0.0,0.0,0.0,0.0,0.0,0.0,0.0,-1.052,-1.1963,-1.2049,-1.2123,-1.2095,-1.0687,-0.9866,0.0,0.0,0.0,0.0,0.0,0.0,0.0,0.0,0.0,0.0,0.0,0.0,0.0,0.0,0.0,0.0,0.0,0.0,0.0,0.0,0.0,0.0,0.0,0.0,0.0,0.0,0.0,0.0,0.0,0.0,0.0,0.0,0.0,0.0,0.0,0.0,0.0,0.0,0.0,0.0,0.0,0.0,0.0,0.0,0.0,0.0,0.0,0.0,0.0,0.0,0.0,0.0,0.0,0.0,0.0,0.0,0.0,0.0,0.0,0.0,0.0,0.0,0.0,0.0,0.0,0.0,0.0,0.0,0.0,0.0,0.0,0.0,0.0,0.0,0.0,0.0,0.0,0.0,0.0,0.0,0.0,0.0,0.0,0.0,0.0,0.0,0.0,0.0,0.0,0.0,0.0,0.0,0.0,0.0,0.0,0.0,0.0,0.0,0.0,0.0,0.0,0.0,0.0,0.0,0.0,0.0,0.0,0.0,0.0,-1.0457,-1.1349,-1.2445,-1.3589,-1.1139,-1.0768,0.0,0.0,0.0,0.0,0.0,0.0,0.0,0.0,0.0,0.0,0.0,0.0,0.0,0.0,0.0,0.0,0.0,0.0,0.0,0.0,0.0,0.0,0.0,0.0,0.0,0.0,0.0,0.0,0.0,0.0,0.0,0.0,0.0,0.0,0.0,0.0,0.0,0.0,0.0,0.0,0.0,0.0,0.0,0.0,0.0,0.0,0.0,0.0,0.0,0.0,0.0,0.0,0.0,0.0,0.0,0.0,0.0,0.0,0.0,0.0,0.0,0.0,0.0,0.0,0.0,0.0,0.0,0.0,0.0,0.0,0.0,0.0,0.0,0.0,0.0,0.0,0.0,0.0,0.0,0.0,0.0,0.0,0.0,0.0,0.0,0.0,0.0,0.0,0.0,0.0,0.0,0.0,0.0,0.0,0.0,0.0,0.0,0.0,0.0,0.0,0.0,0.0,0.0,0.0,0.0,0.0,0.0,0.0,0.0,-1.0864,-1.1584,-1.2454,-1.3364,-1.1483,-1.1268,-1.2939,0.0,0.0,0.0,0.0,0.0,0.0,0.0,0.0,0.0,0.0,0.0,0.0,0.0,0.0,0.0,0.0,0.0,0.0,0.0,0.0,0.0,0.0,0.0,0.0,0.0,0.0,0.0,0.0,0.0,0.0,0.0,0.0,0.0,0.0,0.0,0.0,0.0,0.0,0.0,0.0,0.0,0.0,0.0,0.0,0.0,0.0,0.0,0.0,0.0,0.0,0.0,0.0,0.0,0.0,0.0,0.0,0.0,0.0,0.0,0.0,0.0,0.0,0.0,0.0,0.0,0.0,0.0,0.0,0.0,0.0,0.0,0.0,0.0,0.0,0.0,0.0,0.0,0.0,0.0,0.0,0.0,0.0,0.0,0.0,0.0,0.0,0.0,0.0,0.0,0.0,0.0,0.0,0.0,0.0,0.0,0.0,0.0,0.0,0.0,0.0,0.0,0.0,0.0,0.0,0.0,0.0,0.0,0.0,-1.275,-1.2873,-1.2641,-1.1962,-1.1825,-1.1517,0.0,0.0,0.0,0.0,0.0,0.0,0.0,0.0,0.0,0.0,0.0,0.0,0.0,0.0,0.0,0.0,0.0,0.0,0.0,0.0,0.0,0.0,0.0,0.0,0.0,0.0,0.0,0.0,0.0,0.0,0.0,0.0,0.0,0.0,0.0,0.0,0.0,0.0,0.0,0.0,0.0,0.0,0.0,0.0,0.0,0.0,0.0,0.0,0.0,0.0,0.0,0.0,0.0,0.0,0.0,0.0,0.0,0.0,0.0,0.0,0.0,0.0,0.0,0.0,0.0,0.0,0.0,0.0,0.0,0.0,0.0,0.0,0.0,0.0,0.0,0.0,0.0,0.0,0.0,0.0,0.0,0.0,0.0,0.0,0.0,0.0,0.0,0.0,0.0,0.0,0.0,0.0,0.0,0.0,0.0,0.0,0.0,0.0,0.0,0.0,0.0,0.0,0.0,0.0,0.0,0.0,0.0,0.0,0.0,-1.4217,-1.6177,-1.6812,-1.5848,-1.3697,-1.305,0.0,0.0,0.0,0.0,0.0,0.0,0.0,0.0,0.0,0.0,0.0,0.0,0.0,0.0,0.0,0.0,0.0,0.0,0.0,0.0,0.0,0.0,0.0,0.0,0.0,0.0,0.0,0.0,0.0,0.0,0.0,0.0,0.0,0.0,0.0,0.0,0.0,0.0,0.0,0.0,0.0,0.0,0.0,0.0,0.0,0.0,0.0,0.0,0.0,0.0,0.0,0.0,0.0,0.0,0.0,0.0,0.0,0.0,0.0,0.0,0.0,0.0,0.0,0.0,0.0,0.0,0.0,0.0,0.0,0.0,0.0,0.0,0.0,0.0,0.0,0.0,0.0,0.0,0.0,0.0,0.0,0.0,0.0,0.0,0.0,0.0,0.0,0.0,0.0,0.0,0.0,0.0,0.0,0.0,0.0,0.0,0.0,0.0,0.0,0.0,0.0,0.0,0.0,0.0,0.0,0.0,0.0,0.0,-1.4887,-1.5553,-1.8673,-1.975,-1.8537,-1.6218,-1.4918,0.0,0.0,0.0,0.0,0.0,0.0,0.0,0.0,0.0,0.0,0.0,0.0,0.0,0.0,0.0,0.0,0.0,0.0,0.0,0.0,0.0,0.0,0.0,0.0,0.0,0.0,0.0,0.0,0.0,0.0,0.0,0.0,0.0,0.0,0.0,0.0,0.0,0.0,0.0,0.0,0.0,0.0,0.0,0.0,0.0,0.0,0.0,0.0,0.0,0.0,0.0,0.0,0.0,0.0,0.0,0.0,0.0,0.0,0.0,0.0,0.0,0.0,0.0,0.0,0.0,0.0,0.0,0.0,0.0,0.0,0.0,0.0,0.0,0.0,0.0,0.0,0.0,0.0,0.0,0.0,0.0,0.0,0.0,0.0,0.0,0.0,0.0,0.0,0.0,0.0,0.0,0.0,0.0,0.0,0.0,0.0,0.0,0.0,0.0,0.0,0.0,0.0,0.0,0.0,0.0,0.0,0.0,0.0,-1.6137,-1.6837,-2.0388,-2.1617,-2.0154,-1.8677,-1.6713,0.0,0.0,0.0,0.0,0.0,0.0,0.0,0.0,0.0,0.0,0.0,0.0,0.0,0.0,0.0,0.0,0.0,0.0,0.0,0.0,0.0,0.0,0.0,0.0,0.0,0.0,0.0,0.0,0.0,0.0,0.0,0.0,0.0,0.0,0.0,0.0,0.0,0.0,0.0,0.0,0.0,0.0,0.0,0.0,0.0,0.0,0.0,0.0,0.0,0.0,0.0,0.0,0.0,0.0,0.0,0.0,0.0,0.0,0.0,0.0,0.0,0.0,0.0,0.0,0.0,0.0,0.0,0.0,0.0,0.0,0.0,0.0,0.0,0.0,0.0,0.0,0.0,0.0,0.0,0.0,0.0,0.0,0.0,0.0,0.0,0.0,0.0,0.0,0.0,0.0,0.0,0.0,0.0,0.0,0.0,0.0,0.0,0.0,0.0,0.0,0.0,0.0,0.0,0.0,0.0,0.0,0.0,0.0,-1.637,-1.7587,-2.0655,-2.187,-2.0957,-1.8478,-1.6603,0.0,0.0,0.0,0.0,0.0,0.0,0.0,0.0,0.0,0.0,0.0,0.0,0.0,0.0,0.0,0.0,0.0,0.0,0.0,0.0,0.0,0.0,0.0,0.0,0.0,0.0,0.0,0.0,0.0,0.0,0.0,0.0,0.0,0.0,0.0,0.0,0.0,0.0,0.0,0.0,0.0,0.0,0.0,0.0,0.0,0.0,0.0,0.0,-0.8938,0.0,0.0,0.0,0.0,0.0,0.0,0.0,0.0,0.0,0.0,0.0,0.0,0.0,0.0,0.0,0.0,0.0,0.0,0.0,0.0,0.0,0.0,0.0,0.0,0.0,0.0,0.0,0.0,0.0,0.0,0.0,0.0,0.0,0.0,0.0,0.0,0.0,0.0,0.0,0.0,0.0,0.0,0.0,0.0,0.0,0.0,0.0,0.0,0.0,0.0,0.0,0.0,0.0,0.0,0.0,0.0,0.0,0.0,0.0,-1.6901,-1.8315,-2.06,-2.1593,-2.1136,-1.8342,-1.6695,0.0,0.0,0.0,0.0,0.0,0.0,0.0,0.0,0.0,0.0,0.0,0.0,0.0,0.0,0.0,0.0,0.0,0.0,0.0,0.0,0.0,0.0,0.0,0.0,0.0,0.0,0.0,0.0,0.0,0.0,0.0,0.0,0.0,0.0,0.0,0.0,0.0,0.0,0.0,0.0,0.0,0.0,0.0,0.0,0.0,0.0,0.0,0.0,0.0,0.0,0.0,0.0,0.0,0.0,0.0,0.0,0.0,0.0,0.0,0.0,0.0,0.0,0.0,0.0,0.0,0.0,0.0,0.0,0.0,0.0,0.0,0.0,0.0,0.0,0.0,0.0,0.0,0.0,0.0,0.0,0.0,0.0,0.0,0.0,0.0,0.0,0.0,0.0,0.0,0.0,0.0,0.0,0.0,0.0,0.0,0.0,0.0,0.0,0.0,0.0,0.0,0.0,0.0,0.0,0.0,0.0,0.0,-1.5701,-1.7318,-1.8865,-2.0291,-2.101,-2.0957,-1.816,-1.674,-1.693,0.0,0.0,0.0,0.0,0.0,0.0,0.0,0.0,0.0,0.0,0.0,0.0,0.0,0.0,0.0,0.0,0.0,0.0,0.0,0.0,0.0,0.0,0.0,0.0,0.0,0.0,0.0,0.0,0.0,0.0,0.0,0.0,0.0,0.0,0.0,0.0,0.0,0.0,-1.0392,-1.137,0.0,0.0,0.0,0.0,0.0,0.0,0.0,0.0,-0.9733,0.0,0.0,0.0,0.0,0.0,0.0,0.0,0.0,0.0,0.0,0.0,0.0,0.0,0.0,0.0,0.0,0.0,0.0,0.0,0.0,0.0,0.0,0.0,0.0,0.0,0.0,0.0,0.0,0.0,0.0,0.0,0.0,0.0,0.0,0.0,0.0,0.0,0.0,0.0,0.0,0.0,0.0,0.0,0.0,0.0,0.0,0.0,0.0,0.0,0.0,0.0,0.0,0.0,0.0,0.0,0.0,-1.6167,-1.5924,-1.6804,-1.8842,-1.9765,-2.0196,-2.0137,-1.7713,-1.649,-1.6655,0.0,0.0,0.0,0.0,0.0,0.0,0.0,0.0,0.0,0.0,0.0,0.0,0.0,0.0,0.0,0.0,0.0,0.0,0.0,0.0,0.0,0.0,0.0,0.0,0.0,0.0,0.0,0.0,0.0,0.0,0.0,0.0,0.0,0.0,0.0,0.0,0.0,0.0,0.0,-1.0895,-1.1712,0.0,0.0,0.0,0.0,0.0,0.0,0.0,0.0,-1.0238,0.0,0.0,0.0,0.0,0.0,0.0,0.0,0.0,0.0,0.0,0.0,0.0,0.0,0.0,0.0,0.0,0.0,0.0,0.0,0.0,0.0,0.0,0.0,0.0,0.0,0.0,0.0,0.0,0.0,0.0,0.0,0.0,0.0,0.0,0.0,0.0,0.0,0.0,0.0,0.0,0.0,0.0,0.0,0.0,0.0,0.0,0.0,0.0,0.0,0.0,0.0,0.0,0.0,0.0,0.0,-1.6009,-1.6147,-1.7047,-1.8833,-1.8853,-1.8859,-1.8826,-1.6459,-1.5288,0.0,0.0,0.0,0.0,0.0,0.0,0.0,0.0,0.0,0.0,0.0,0.0,0.0,0.0,0.0,0.0,0.0,0.0,0.0,0.0,0.0,0.0,0.0,0.0,0.0,0.0,0.0,0.0,0.0,0.0,0.0,0.0,0.0,0.0,0.0,0.0,0.0,0.0,0.0,0.0,-1.072,-1.1401,-1.1091,0.0,0.0,0.0,0.0,0.0,0.0,-1.0866,-1.0819,0.0,0.0,0.0,0.0,0.0,0.0,0.0,0.0,0.0,0.0,0.0,0.0,0.0,0.0,0.0,0.0,0.0,0.0,0.0,0.0,0.0,0.0,0.0,0.0,0.0,0.0,0.0,0.0,0.0,0.0,0.0,0.0,0.0,0.0,0.0,0.0,0.0,0.0,0.0,0.0,0.0,0.0,0.0,0.0,0.0,0.0,0.0,0.0,0.0,0.0,0.0,0.0,0.0,0.0,0.0,-1.5261,-1.5949,-1.6918,-1.8183,-1.7689,-1.7394,-1.7367,-1.5164,-1.4067,0.0,0.0,0.0,0.0,0.0,0.0,0.0,0.0,0.0,0.0,0.0,0.0,0.0,0.0,0.0,0.0,0.0,0.0,0.0,0.0,0.0,0.0,0.0,0.0,0.0,0.0,0.0,0.0,0.0,0.0,0.0,0.0,0.0,0.0,0.0,0.0,0.0,0.0,0.0,0.0,0.0,-1.1401,-1.0454,-1.1497,0.0,0.0,0.0,0.0,-1.1807,-1.1555,0.0,0.0,0.0,0.0,0.0,0.0,0.0,0.0,0.0,0.0,0.0,0.0,0.0,0.0,0.0,0.0,0.0,0.0,0.0,0.0,0.0,0.0,0.0,0.0,0.0,0.0,0.0,0.0,0.0,0.0,0.0,0.0,0.0,0.0,0.0,0.0,0.0,0.0,0.0,0.0,0.0,0.0,0.0,0.0,0.0,0.0,0.0,0.0,0.0,0.0,0.0,0.0,0.0,0.0,0.0,0.0,-1.4264,-1.4695,-1.5326,-1.6107,-1.6089,-1.6005,-1.6014,-1.4311,-1.3505,0.0,0.0,0.0,0.0,0.0,0.0,0.0,0.0,0.0,0.0,0.0,0.0,0.0,0.0,0.0,0.0,0.0,0.0,0.0,0.0,0.0,0.0,0.0,0.0,0.0,0.0,0.0,0.0,0.0,0.0,0.0,0.0,0.0,0.0,0.0,0.0,0.0,0.0,0.0,0.0,0.0,-1.2156,-1.0825,-1.203,-1.2731,0.0,0.0,-1.2912,-1.188,-1.2043,0.0,0.0,0.0,0.0,0.0,0.0,0.0,0.0,0.0,0.0,0.0,0.0,0.0,0.0,0.0,0.0,0.0,0.0,0.0,0.0,0.0,0.0,0.0,0.0,0.0,0.0,0.0,0.0,0.0,0.0,0.0,0.0,0.0,0.0,0.0,0.0,0.0,0.0,0.0,0.0,0.0,0.0,0.0,0.0,0.0,0.0,0.0,0.0,0.0,0.0,0.0,0.0,0.0,0.0,0.0,-1.3352,-1.4084,-1.412,-1.4471,-1.518,-1.481,-1.4609,-1.4587,-1.3351,-1.3,0.0,0.0,0.0,0.0,0.0,0.0,0.0,0.0,0.0,0.0,0.0,0.0,0.0,0.0,0.0,0.0,0.0,0.0,0.0,0.0,0.0,0.0,0.0,0.0,0.0,0.0,0.0,0.0,0.0,0.0,0.0,0.0,0.0,0.0,0.0,0.0,0.0,0.0,0.0,0.0,0.0,0.0,-1.1145,-1.1984,0.0,0.0,0.0,-1.3628,-1.324,0.0,0.0,0.0,0.0,0.0,0.0,0.0,0.0,0.0,0.0,0.0,0.0,0.0,0.0,0.0,0.0,0.0,0.0,0.0,0.0,0.0,0.0,0.0,0.0,0.0,0.0,0.0,0.0,0.0,0.0,0.0,0.0,0.0,0.0,0.0,0.0,0.0,0.0,0.0,0.0,0.0,0.0,0.0,0.0,0.0,0.0,0.0,0.0,0.0,0.0,0.0,0.0,0.0,0.0,0.0,0.0,0.0,-1.3719,-1.374,-1.3919,-1.4276,-1.3922,-1.3636,-1.3457,-1.2722,0.0,0.0,0.0,0.0,0.0,0.0,0.0,0.0,0.0,0.0,0.0,0.0,0.0,0.0,0.0,0.0,0.0,0.0,0.0,0.0,0.0,0.0,0.0,0.0,0.0,0.0,0.0,-1.2606,0.0,0.0,0.0,0.0,0.0,0.0,0.0,0.0,0.0,0.0,0.0,0.0,0.0,0.0,-1.2159,-1.1761,-1.2209,-1.2817,0.0,0.0,-1.3976,-1.4017,-1.4032,-1.3915,0.0,0.0,0.0,0.0,0.0,0.0,0.0,0.0,0.0,0.0,0.0,0.0,0.0,0.0,0.0,0.0,0.0,0.0,0.0,0.0,0.0,0.0,0.0,0.0,0.0,0.0,0.0,0.0,0.0,0.0,0.0,0.0,0.0,0.0,0.0,0.0,0.0,0.0,0.0,0.0,0.0,0.0,0.0,0.0,0.0,0.0,0.0,0.0,0.0,0.0,0.0,0.0,0.0,0.0,0.0,-1.2742,-1.3414,-1.3536,-1.2994,-1.3496,-1.3501,-1.287,-1.2779,-1.2802,0.0,0.0,0.0,0.0,0.0,0.0,0.0,0.0,0.0,0.0,0.0,0.0,0.0,0.0,0.0,0.0,0.0,0.0,0.0,0.0,0.0,0.0,0.0,0.0,0.0,0.0,0.0,0.0,0.0,0.0,0.0,0.0,0.0,0.0,0.0,0.0,0.0,0.0,0.0,0.0,0.0,-1.3641,-1.2914,-1.3165,-1.3355,0.0,0.0,-1.3762,-1.3357,-1.3267,-1.3408,-1.3796,0.0,0.0,0.0,0.0,0.0,0.0,0.0,0.0,0.0,0.0,0.0,0.0,0.0,0.0,0.0,0.0,0.0,0.0,0.0,0.0,0.0,0.0,0.0,0.0,0.0,0.0,0.0,0.0,0.0,0.0,0.0,0.0,0.0,0.0,0.0,0.0,0.0,0.0,0.0,0.0,0.0,0.0,0.0,0.0,0.0,0.0,0.0,0.0,0.0,0.0,0.0,0.0,0.0,-1.3247,-1.2387,-1.2911,-1.2855,-1.2249,-1.2848,-1.2858,-1.2201,-1.2568,-1.2996,0.0,0.0,0.0,0.0,0.0,0.0,0.0,0.0,0.0,0.0,0.0,0.0,0.0,0.0,0.0,0.0,0.0,0.0,0.0,0.0,0.0,0.0,0.0,0.0,0.0,0.0,0.0,0.0,-1.1679,-1.1494,-1.2724,0.0,0.0,0.0,0.0,0.0,0.0,0.0,0.0,0.0,0.0,-1.3387,-1.3507,-1.3661,0.0,0.0,-1.4115,-1.4237,-1.3806,-1.3735,-1.367,-1.3487,-1.3935,0.0,0.0,0.0,0.0,0.0,0.0,0.0,0.0,0.0,0.0,0.0,0.0,0.0,0.0,0.0,0.0,0.0,0.0,0.0,0.0,0.0,0.0,0.0,0.0,0.0,0.0,0.0,0.0,0.0,0.0,0.0,0.0,0.0,0.0,0.0,0.0,0.0,0.0,0.0,0.0,0.0,0.0,0.0,0.0,0.0,0.0,0.0,0.0,0.0,0.0,0.0,0.0,-1.3613,-1.2796,-1.2994,-1.287,-1.2408,-1.2862,-1.2882,-1.2441,-1.2852,-1.3406,0.0,0.0,0.0,0.0,0.0,0.0,0.0,0.0,0.0,0.0,0.0,0.0,0.0,0.0,0.0,0.0,0.0,0.0,0.0,0.0,0.0,0.0,0.0,0.0,0.0,0.0,0.0,0.0,-1.1175,-1.1155,-1.3644,0.0,0.0,0.0,0.0,0.0,0.0,0.0,0.0,0.0,0.0,-1.3376,-1.3889,-1.3978,-1.4087,-1.4513,-1.466,-1.4706,-1.4588,-1.4437,-1.4172,-1.3778,0.0,0.0,0.0,0.0,0.0,0.0,0.0,0.0,0.0,0.0,0.0,0.0,0.0,0.0,0.0,0.0,0.0,0.0,0.0,0.0,0.0,0.0,0.0,0.0,0.0,0.0,0.0,0.0,0.0,0.0,-1.5637,0.0,0.0,0.0,0.0,0.0,0.0,0.0,0.0,0.0,0.0,0.0,0.0,0.0,0.0,0.0,0.0,0.0,0.0,0.0,0.0,0.0,0.0,-1.4556,-1.4145,-1.3907,-1.3772,-1.3714,-1.377,-1.3759,-1.372,-1.378,-1.4094,-1.4752,0.0,0.0,0.0,0.0,0.0,0.0,0.0,0.0,0.0,0.0,0.0,0.0,0.0,0.0,0.0,0.0,0.0,0.0,0.0,0.0,0.0,0.0,0.0,0.0,0.0,0.0,-1.1062,-1.1422,-1.2471,0.0,0.0,0.0,0.0,0.0,0.0,0.0,0.0,0.0,0.0,-1.3901,-1.3949,-1.4097,-1.4104,-1.4429,-1.5453,-1.521,-1.5054,-1.5517,-1.5178,-1.4866,0.0,0.0,0.0,0.0,0.0,0.0,0.0,0.0,0.0,0.0,0.0,0.0,0.0,0.0,0.0,0.0,0.0,0.0,0.0,0.0,0.0,0.0,0.0,0.0,0.0,0.0,0.0,-1.7045,-1.705,0.0,0.0,0.0,0.0,0.0,0.0,0.0,0.0,0.0,0.0,0.0,-1.7395,-1.7619,0.0,0.0,0.0,0.0,0.0,0.0,0.0,0.0,0.0,0.0,0.0,0.0,-1.4844,-1.4298,-1.4403,-1.4242,-1.3827,-1.4229,-1.4244,-1.3825,-1.4229,-1.4616,-1.4979,0.0,0.0,0.0,0.0,0.0,0.0,0.0,0.0,0.0,0.0,0.0,0.0,0.0,0.0,0.0,0.0,0.0,0.0,0.0,0.0,0.0,0.0,0.0,0.0,0.0,-1.3157,0.0,0.0,0.0,0.0,0.0,0.0,0.0,0.0,0.0,0.0,0.0,-1.4184,-1.3947,-1.3974,-1.4066,-1.4088,-1.4101,-1.4347,0.0,0.0,0.0,0.0,0.0,0.0,0.0,0.0,0.0,0.0,0.0,0.0,0.0,0.0,-1.631,-1.6122,-1.5878,-1.5768,-1.6046,0.0,0.0,0.0,0.0,0.0,0.0,0.0,0.0,0.0,0.0,0.0,0.0,0.0,0.0,0.0,0.0,-1.8167,0.0,0.0,0.0,0.0,0.0,0.0,0.0,0.0,-1.7907,-1.7976,-1.7715,-1.793,-1.7806,0.0,-1.881,-1.8683,0.0,0.0,0.0,0.0,0.0,0.0,0.0,0.0,-1.5386,-1.4851,-1.4804,-1.4709,-1.4529,-1.4689,-1.4684,-1.4513,-1.475,-1.4964,-1.509,-1.4968,-1.4876,0.0,0.0,0.0,0.0,0.0,0.0,0.0,0.0,0.0,0.0,0.0,0.0,0.0,0.0,0.0,0.0,0.0,0.0,0.0,0.0,0.0,0.0,0.0,-1.3679,0.0,0.0,0.0,0.0,0.0,0.0,0.0,0.0,0.0,-1.4876,-1.429,-1.392,-1.3966,-1.3892,-1.393,-1.434,0.0,0.0,0.0,0.0,0.0,0.0,0.0,-1.5452,-1.5439,-1.5752,-1.5969,-1.596,-1.6262,-1.6534,-1.6534,0.0,0.0,-1.6283,-1.6036,-1.5932,-1.6177,-1.5659,-1.5248,-1.5501,-1.5216,-1.4813,0.0,0.0,0.0,0.0,0.0,0.0,0.0,0.0,-1.7997,-1.8376,0.0,-1.8978,0.0,0.0,0.0,0.0,0.0,0.0,0.0,0.0,-1.8137,-1.8373,-1.7802,-1.7819,-1.7757,-1.779,-1.8409,-1.8384,-1.7784,-1.818,0.0,0.0,0.0,0.0,0.0,0.0,-1.6151,-1.5841,-1.5186,-1.5156,-1.5755,-1.5197,-1.5124,-1.5725,-1.533,-1.509,-1.5059,-1.4704,-1.447,-1.447,-1.447,0.0,0.0,0.0,0.0,0.0,0.0,0.0,0.0,0.0,0.0,0.0,0.0,0.0,0.0,0.0,0.0,0.0,0.0,0.0,0.0,-1.3211,0.0,0.0,0.0,0.0,0.0,0.0,0.0,0.0,0.0,0.0,-1.4548,-1.4169,-1.3971,-1.4114,0.0,0.0,0.0,0.0,-1.5094,-1.5608,-1.6109,-1.6429,-1.6484,-1.6497,-1.6509,-1.6509,0.0,0.0,-1.6509,-1.6534,-1.6534,-1.6534,-1.6534,-1.6522,-1.6497,-1.6502,-1.6471,-1.6459,-1.6099,-1.5774,-1.5708,-1.5399,-1.501,-2.3549,0.0,0.0,0.0,0.0,-2.0801,-2.1139,-2.1718,-2.0653,-2.0628,-2.1253,-2.0167,0.0,0.0,0.0,0.0,0.0,0.0,-1.8873,-1.851,-1.8875,-1.9061,-1.9136,-1.9121,-1.8867,-1.8455,-1.9106,-1.906,-1.8433,-1.8548,-1.8303,-1.7699,0.0,0.0,0.0,0.0,-1.6255,-1.6782,-1.5968,-1.5812,-1.6427,-1.5832,-1.5607,-1.5814,-1.5359,-1.4968,-1.469,-1.4278,-1.4065,-1.4084,-1.4084,0.0,0.0,0.0,0.0,0.0,0.0,0.0,0.0,0.0,0.0,0.0,0.0,0.0,0.0,0.0,0.0,0.0,0.0,0.0,-1.4529,-1.3635,-1.3698,0.0,0.0,0.0,0.0,0.0,0.0,0.0,0.0,0.0,-1.5189,-1.4515,-1.4211,0.0,0.0,-1.4543,-1.4849,-1.4903,-1.5078,-1.562,0.0,0.0,0.0,-1.6534,-1.6534,-1.6534,-1.6534,-1.6534,-1.6534,-1.6534,-1.6534,-1.6534,-1.6534,-1.6534,-1.6534,-1.6534,-1.6534,-1.6509,-1.6384,-1.6278,-1.6243,-1.6111,-1.5919,-2.603,-2.3368,-2.2705,-2.2615,-2.2859,-2.2743,-2.2954,-2.3325,-2.2446,-2.2319,-2.265,-2.1446,-2.0923,-2.0872,-1.9941,0.0,0.0,0.0,-1.9774,-1.9797,-2.0071,-2.0313,-2.049,-2.0204,-1.9882,-1.9513,-1.9609,-1.9498,-1.9081,-1.9111,-1.8897,-1.8493,0.0,0.0,-1.731,-1.7076,-1.7135,-1.7426,-1.6864,-1.6607,-1.6695,-1.6129,-1.5814,-1.577,-1.5359,-1.4968,-1.4752,-1.4181,-1.3901,-1.3901,-1.3702,-1.3907,0.0,0.0,0.0,0.0,0.0,0.0,0.0,0.0,0.0,0.0,0.0,-1.3601,0.0,0.0,0.0,0.0,-1.4263,-1.4566,-1.4703,-1.4098,0.0,0.0,0.0,0.0,0.0,0.0,0.0,-1.5864,-1.5522,-1.535,-1.5531,-1.5077,-1.4836,-1.5174,-1.5054,-1.5066,-1.5466,0.0,-1.5404,-1.5954,-1.6019,-1.6145,-1.6459,-1.6534,-1.6534,-1.6534,-1.6534,-1.6534,-1.6534,-1.6534,-1.6534,-1.6534,-1.6534,-1.6534,-1.6534,-1.6534,-1.6534,-1.6534,-1.6534,-1.6534,-1.6534,-1.6534,-1.6398,-2.8446,-2.7657,-2.6075,-2.5311,-2.5126,-2.4866,-2.4374,-2.3765,-2.3748,-2.375,-2.3685,-2.292,-2.252,-2.2304,-2.1201,0.0,-2.0457,-2.1069,-2.1103,-2.0789,-2.1425,-2.1695,-2.165,-2.1061,-2.0767,-2.0757,-2.015,-1.9846,-1.9771,-1.9801,-1.9705,-1.9636,-1.9061,-1.8346,-1.7499,-1.8225,-1.8343,-1.7772,-1.7697,-1.7399,-1.6801,-1.6234,-1.5963,-1.5963,-1.5445,-1.5201,-1.5201,-1.4395,-1.398,-1.398,-1.3552,-1.376,-1.4646,0.0,0.0,0.0,0.0,0.0,0.0,0.0,0.0,0.0,0.0,0.0,0.0,0.0,0.0,0.0,-1.4199,0.0,-1.4207,-1.4508,0.0,0.0,0.0,-1.6091,-1.6109,-1.5803,-1.5591,-1.5591,0.0,0.0,-1.5706,0.0,-1.5789,-1.5776,-1.534,-1.5392,-1.6386,-1.6065,-1.5954,-1.6398,-1.6479,-1.6522,-1.6522,-1.6534,-1.6534,-1.6534,-1.6534,-1.6534,-1.6534,-1.6534,-1.6534,-1.6534,-1.6534,-1.6534,-1.6534,-1.6534,-1.6534,-1.6534,-1.6534,-1.6534,-1.6534,-1.6534,-1.6479,-3.1691,-3.0872,-2.9597,-2.7962,-2.6349,-2.6826,-2.6928,-2.6725,-2.6759,-2.674,-2.6656,-2.5403,-2.4185,-2.3103,-2.2671,-2.2143,-2.1571,-2.159,-2.1558,-2.147,-2.1635,-2.1695,-2.1695,-2.1549,-2.1432,-2.145,-2.1296,-2.0956,-2.0461,-2.0459,-1.9944,-1.9016,-1.9271,-1.9101,-1.8386,-1.8092,-1.81,-1.8463,-1.7936,-1.7608,-1.7473,-1.7294,-1.7251,-1.7234,-1.6427,-1.602,-1.6006,-1.5138,-1.465,-1.4663,-1.455,-1.4626,-1.4853,-1.5133,0.0,0.0,0.0,0.0,0.0,0.0,0.0,0.0,0.0,-1.5193,-1.5012,0.0,-1.449,0.0,-1.4724,-1.4813,-1.5127,-1.4974,0.0,0.0,-1.5919,-1.5956,-1.6335,-1.6328,-1.6287,-1.6287,-1.6162,-1.617,-1.6308,-1.63,-1.6334,-1.6292,-1.6198,-1.6237,-1.6479,-1.6398,-1.633,-1.6479,-1.6534,-1.6534,-1.6534,-1.6534,-1.6534,-1.6534,-1.6534,-1.6534,-1.6534,-1.6534,-1.6534,-1.6534,-1.6534,-1.6534,-1.6534,-1.6534,-1.6534,-1.6534,-1.6534,-1.6534,-1.6534,-1.6534,-1.6534,-3.3869,-3.3039,-3.1966,-3.0541,-2.8972,-2.9041,-2.9004,-2.8839,-2.8839,-2.8621,-2.8252,-2.708,-2.5866,-2.458,-2.4143,-2.3803,-2.3547,-2.3117,-2.2929,-2.2996,-2.2996,-2.2832,-2.2532,-2.2259,-2.2143,-2.2137,-2.1832,-2.1503,-2.1158,-2.1147,-2.0767,-2.0049,-2.0393,-2.0258,-1.96,-1.8927,-1.8777,-1.9121,-1.8493,-1.8157,-1.8159,-1.7873,-1.7682,-1.7682,-1.6987,-1.6473,-1.6297,-1.5546,-1.5082,-1.4916,-1.4903,-1.4977,-1.5229,-1.5454,-1.4777,0.0,0.0,0.0,0.0,0.0,0.0,0.0,0.0,0.0,0.0,0.0,-1.4651,0.0,-1.4903,-1.5081,-1.5556,-1.5363,-1.5568,-1.6299,-1.616,-1.6162,-1.6484,-1.6534,-1.6534,-1.6534,-1.6534,-1.6534,-1.6534,-1.6534,-1.6534,-1.6534,-1.6534,-1.6534,-1.6534,-1.6534,-1.6534,-1.6534,-1.6534,-1.6534,-1.6534,-1.6534,-1.6534,-1.6534,-1.6534,-1.6534,-1.6534,-1.6534,-1.6534,-1.6534,-1.6534,-1.6534,-1.6534,-1.6534,-1.6534,-1.6534,-1.6534,-1.6534,-1.6534,-1.6534,-1.6534,-3.5515,-3.4731,-3.374,-3.2931,-3.2195,-3.1324,-3.0659,-3.0243,-3.0243,-2.9837,-2.909,-2.8407,-2.7498,-2.6422,-2.5737,-2.554,-2.5686,-2.4922,-2.4575,-2.4612,-2.4537,-2.4163,-2.3595,-2.3169,-2.2964,-2.2906,-2.2366,-2.2019,-2.1946,-2.188,-2.1769,-2.1695,-2.1695,-2.1365,-2.0722,-2.0109,-1.9765,-1.9675,-1.9211,-1.8951,-1.895,-1.8401,-1.8071,-1.8071,-1.7398,-1.6888,-1.6531,-1.5958,-1.5479,-1.5117,-1.513,-1.5304,-1.5768,-1.5655,-1.5844,0.0,-1.6534,0.0,0.0,0.0,0.0,0.0,0.0,0.0,0.0,-1.5117,-1.513,-1.513,-1.513,-1.5279,-1.5743,-1.58,-1.5989,-1.6446,-1.6534,-1.6534,-1.6534,-1.6534,-1.6534,-1.6534,-1.6534,-1.6534,-1.6534,-1.6534,-1.6534,-1.6534,-1.6534,-1.6534,-1.6534,-1.6534,-1.6534,-1.6534,-1.6534,-1.6534,-1.6534,-1.6534,-1.6534,-1.6534,-1.6534,-1.6534,-1.6534,-1.6534,-1.6534,-1.6534,-1.6534,-1.6534,-1.6534,-1.6534,-1.6534,-1.6534,-1.6534,-1.6534,-1.6534,-1.6534,-1.6534,-3.7631,-3.676,-3.5296,-3.472,-3.4727,-3.2922,-3.1706,-3.1004,-3.1004,-3.0588,-2.99,-2.9743,-2.9201,-2.8428,-2.7877,-2.7377,-2.6888,-2.5775,-2.5063,-2.4567,-2.4059,-2.3729,-2.3625,-2.4038,-2.423,-2.423,-2.4126,-2.3786,-2.3256,-2.2745,-2.2218,-2.1695,-2.1695,-2.1365,-2.0737,0.0,0.0,0.0,-2.0109,-2.0317,-2.0323,-2.0198,-2.0102,-2.0102,-1.8655,0.0,-1.7708,-1.682,-1.6279,-1.6208,-1.6208,0.0,0.0,0.0,0.0,0.0,0.0,0.0,0.0,0.0,0.0,0.0,-1.6321,-1.6208,-1.6208,-1.6208,-1.6208,-1.6208,-1.6208,-1.6245,-1.6358,-1.6346,-1.6396,-1.6497,-1.6534,-1.6534,-1.6534,-1.6534,-1.6534,-1.6534,-1.6534,-1.6534,-1.6534,-1.6534,-1.6534,-1.6534,-1.6534,-1.6534,-1.6534,-1.6534,-1.6534,-1.6534,-1.6534,-1.6534,-1.6534,-1.6534,-1.6534,-1.6534,-1.6534,-1.6534,-1.6534,-1.6534,-1.6534,-1.6534,-1.6534,-1.6534,-1.6534,-1.6534,-1.6534,-1.6534,-1.6534,-1.6534,-1.6534,-1.6534,-1.6534,-3.8817,0.0,-3.6486,-3.5786,0.0,-3.3969,-3.3097,-3.2603,-3.1613,-3.0999,-3.0651,-3.0641,-3.0446,-3.0057,-2.9415,-2.9019,-2.8728,-2.775,-2.6666,-2.5558,-2.5528,-2.5,-2.4118,-2.4754,-2.5116,-2.5093,-2.4732,-2.4432,-2.4068,-2.3456,-2.2966,-2.2637,-2.2637,-2.2308,-2.168,-2.1036,-2.0378,-1.9705,-2.0034,-2.0205,-2.0215,-2.0182,-2.0198,-2.0161,0.0,0.0,0.0,0.0,0.0,0.0,0.0,0.0,0.0,0.0,0.0,-1.6534,-1.6534,-1.6534,-1.6534,-1.6534,-1.6534,-1.6534,-1.6534,-1.6534,-1.6534,-1.6534,-1.6534,-1.6534,-1.6534,-1.6534,-1.6534,-1.6534,-1.6534,-1.6534,-1.6534,-1.6534,-1.6534,-1.6534,-1.6534,-1.6534,-1.6534,-1.6534,-1.6534,-1.6534,-1.6534,-1.6534,-1.6534,-1.6534,-1.6534,-1.6534,-1.6534,-1.6534,-1.6534,-1.6534,-1.6534,-1.6534,-1.6534,-1.6534,-1.6534,-1.6534,-1.6534,-1.6534,-1.6534,-1.6534,-1.6534,-1.6534,-1.6534,-1.6534,-1.6534,-1.6534,-1.6534,-1.6534,-1.6534,-1.6534,-1.6534,-3.9792,-3.8817,-3.7612,-3.6757,-3.6059,-3.4834,-3.4224,-3.396,0.0,0.0,0.0,-3.119,-3.119,-3.1173,-3.0561,-3.0299,-3.0243,-2.9552,-2.8369,-2.6901,-2.7295,-2.6593,-2.4987,-2.5617,-2.5878,-2.5736,-2.5198,-2.4909,-2.4737,-2.4113,-2.3729,-2.361,-2.3595,-2.3281,-2.2637,-2.1485,-2.055,-1.9912,-1.9876,-1.9879,-1.9895,-1.9856,-1.9818,-1.9745,-1.8683,-1.8066,-1.7933,-1.7047,-1.6534,-1.6534,-1.6534,-1.6534,-1.6534,-1.6534,-1.6534,-1.6534,-1.6534,-1.6534,-1.6534,-1.6534,-1.6534,-1.6534,-1.6534,-1.6534,-1.6534,-1.6534,-1.6534,-1.6534,-1.6534,-1.6534,-1.6534,-1.6534,-1.6534,-1.6534,-1.6534,-1.6534,-1.6534,-1.6534,-1.6534,-1.6534,-1.6534,-1.6534,-1.6534,-1.6534,-1.6534,-1.6534,-1.6534,-1.6534,-1.6534,-1.6534,-1.6534,-1.6534,-1.6534,-1.6534,-1.6534,-1.6534,-1.6534,-1.6534,-1.6534,-1.6534,-1.6534,-1.6534,-1.6534,-1.6534,-1.6534,-1.6534,-1.6534,-1.6534,-1.6534,-1.6534,-1.6534,-1.6466,-1.6386,-1.6355,-1.6337,-4.108,-3.9645,-3.8786,-3.8389,-3.8107,-3.5702,-3.4248,-3.3447,-3.2534,-3.1782,-3.119,-3.119,-3.119,-3.119,-3.1083,-3.0754,-3.026,-2.9593,-2.8894,0.0,-2.7646,-2.6972,-2.6298,-2.6918,-2.6949,-2.65,-2.6366,-2.6004,-2.5446,-2.4791,-2.4193,-2.367,-2.3595,-2.3295,-2.2652,-2.1934,-2.1227,-2.0594,-2.055,-2.0557,-2.0576,-2.0557,-2.0315,-1.9846,-1.8739,-1.7867,-1.7422,-1.6837,-1.6534,-1.6534,-1.6534,-1.6534,-1.6534,-1.6534,-1.6534,-1.6534,-1.6534,-1.6534,-1.6534,-1.6534,-1.6534,-1.6534,-1.6534,-1.6534,-1.6534,-1.6534,-1.6534,-1.6534,-1.6534,-1.6534,-1.6534,-1.6534,-1.6534,-1.6534,-1.6534,-1.6534,-1.6534,-1.6534,-1.6534,-1.6534,-1.6534,-1.6534,-1.6534,-1.6534,-1.6534,-1.6534,-1.6534,-1.6534,-1.6534,-1.6534,-1.6534,-1.6534,-1.6534,-1.6534,-1.6534,-1.6534,-1.6534,-1.6534,-1.6534,-1.6534,-1.6534,-1.6534,-1.6534,-1.6534,-1.6534,-1.6534,-1.6534,-1.6534,-1.6436,-1.6436,-1.638,-1.6244,-1.5856,-1.5823,-1.5932,-4.1875,-4.108,-3.9877,-3.935,-3.9177,-3.7023,-3.5296,-3.4024,-3.3626,-3.2863,-3.1873,-3.219,-3.1964,-3.1241,-3.163,-3.1421,-3.0781,-3.0486,-2.9805,-2.8918,-2.8967,-2.8292,-2.7191,-2.7716,-2.7735,-2.7173,-2.6763,-2.6436,-2.6116,-2.5497,-2.5016,-2.4672,-2.4343,-2.3655,-2.2697,-2.2024,-2.1365,-2.0714,-2.0669,-2.0505,-2.0156,-2.0152,-2.0028,-1.9788,-1.896,-1.8288,-1.7747,-1.7229,-1.6795,-1.6509,-1.6534,-1.6534,-1.6534,-1.6534,-1.6534,-1.6534,-1.6534,-1.6534,-1.6534,-1.6534,-1.6534,-1.6534,-1.6534,-1.6534,-1.6534,-1.6534,-1.6534,-1.6534,-1.6534,-1.6534,-1.6534,-1.6534,-1.6534,-1.6534,-1.6534,-1.6534,-1.6534,-1.6534,-1.6534,-1.6534,-1.6534,-1.6534,-1.6534,-1.6534,-1.6534,-1.6534,-1.6534,-1.6534,-1.6534,-1.6534,-1.6534,-1.6534,-1.6534,-1.6534,-1.6534,-1.6534,-1.6534,-1.6534,-1.6534,-1.6534,-1.6534,-1.6534,-1.6534,-1.6534,-1.6491,-1.6534,-1.6491,-1.6238,-1.6051,-1.5964,-1.5688,-1.5516,-1.5528,-1.5617,-1.5705,-4.2481,-4.2169,-4.0744,-3.9841,-3.9192,-3.7828,-3.6255,-3.482,-3.4742,-3.399,-3.2944,-3.322,-3.2679,-3.1579,-3.2026,-3.1873,-3.1241,-3.119,-3.0656,-2.9869,-3.0253,-2.9664,-2.834,-2.8695,-2.8568,-2.7846,-2.7294,-2.692,-2.6583,-2.6065,-2.5672,-2.539,-2.4821,-2.4044,-2.2892,-2.2383,-2.1794,-2.1198,-2.1153,-2.0677,-1.9735,-1.9705,-1.9654,-1.9479,-1.9006,-1.8458,-1.7947,-1.7381,-1.6909,-1.6522,-1.6534,-1.6534,-1.6534,-1.6534,-1.6534,-1.6534,-1.6534,-1.6534,-1.6534,-1.6534,-1.6534,-1.6534,-1.6534,-1.6534,-1.6534,-1.6534,-1.6534,-1.6534,-1.6534,-1.6534,-1.6534,-1.6534,-1.6534,-1.6534,-1.6534,-1.6534,-1.6534,-1.6534,-1.6534,-1.6534,-1.6534,-1.6534,-1.6534,-1.6534,-1.6534,-1.6534,-1.6534,-1.6534,-1.6534,-1.6534,-1.6534,-1.6534,-1.6534,-1.6534,-1.6534,-1.6534,-1.6534,-1.6534,-1.6534,-1.6534,-1.6534,-1.6534,-1.6534,-1.6491,-1.6355,-1.6268,-1.6244,-1.592,-1.5676,-1.5632,-1.5511,-1.5285,-1.5313,-1.5335,-1.5429,-4.2962,-4.2209,-4.1332,-3.9601,-3.7574,-3.7301,-3.6591,-3.5576,-3.5504,-3.5076,-3.4229,-3.3686,-3.2991,-3.2277,-3.2309,-3.1958,-3.1275,-3.119,-3.1134,-3.1044,-3.1078,-3.0791,-3.0128,-3.0188,-2.9627,-2.8636,-2.8374,-2.7745,-2.6716,-2.6553,-2.5897,-2.4836,-2.4597,-2.4283,-2.358,-2.3415,-2.3107,-2.2525,-2.2505,-2.1629,-1.9824,-1.9705,-1.9479,-1.8983,-1.8458,-1.7933,-1.7476,-1.6866,-1.6552,-1.6522,-1.6534,-1.6534,-1.6534,-1.6534,-1.6534,-1.6534,-1.6534,-1.6534,-1.6534,-1.6534,-1.6534,-1.6534,-1.6534,-1.6534,-1.6534,-1.6534,-1.6534,-1.6534,-1.6534,-1.6534,-1.6534,-1.6534,-1.6534,-1.6534,-1.6534,-1.6534,-1.6534,-1.6534,-1.6534,-1.6534,-1.6534,-1.6534,-1.6534,-1.6534,-1.6534,-1.6534,-1.6534,-1.6534,-1.6534,-1.6534,-1.6534,-1.6534,-1.6534,-1.6534,-1.6534,-1.6534,-1.6534,-1.6534,-1.6534,-1.6534,-1.6534,-1.6466,-1.6534,-1.6448,-1.6073,-1.5799,-1.5843,-1.5603,-1.5632,-1.5632,-1.5744,-1.592,-1.5139,-1.4846,-1.4963,-4.3296,-4.2889,-4.1625,-3.974,-3.7811,-3.8133,-3.7464,-3.6148,-3.6577,-3.6171,-3.5178,-3.4856,-3.4057,-3.2977,-3.338,-3.3199,-3.251,-3.251,-3.251,-3.251,-3.251,-3.2193,-3.1658,-3.123,-3.0573,-2.9772,-2.8982,-2.8323,-2.779,-2.7405,-2.6698,-2.5839,-2.5405,-2.4866,-2.4193,-2.3445,-2.2936,-2.27,-2.2325,-2.171,-2.0925,-2.0495,-1.9983,-1.9413,-1.9169,-1.8626,-1.7867,-1.7544,-1.7146,-1.6565,-1.6534,-1.6534,-1.6534,-1.6534,-1.6534,-1.6534,-1.6534,-1.6534,-1.6534,-1.6534,-1.6534,-1.6534,-1.6534,-1.6534,-1.6534,-1.6534,-1.6534,-1.6534,-1.6534,-1.6534,-1.6534,-1.6534,-1.6534,-1.6534,-1.6534,-1.6534,-1.6534,-1.6534,-1.6534,-1.6534,-1.6534,-1.6534,-1.6534,-1.6534,-1.6534,-1.6534,-1.6534,-1.6534,-1.6534,-1.6534,-1.6534,-1.6534,-1.6534,-1.6534,-1.6534,-1.6534,-1.6534,-1.6534,-1.6534,-1.6534,-1.6479,-1.617,-1.6046,-1.6423,-1.5964,-1.5796,-1.6146,-1.5763,-1.5588,-1.5599,-1.5335,-1.5326,-1.5184,-1.484,-1.4982,-4.3479,-4.3277,-4.1992,-4.0297,-3.865,-3.8939,-3.8415,-3.7365,-3.753,-3.7094,-3.6491,-3.6282,-3.5678,-3.4688,-3.4563,-3.4075,-3.3474,-3.3389,-3.3389,-3.3389,-3.3389,-3.3175,-3.2747,-3.2288,-3.1632,-3.0803,-2.9888,-2.9182,-2.8625,-2.7936,-2.7245,-2.6602,-2.6108,-2.5555,-2.4852,-2.3759,-2.3223,-2.3152,-2.2565,-2.2137,-2.1929,-2.1477,-2.0914,-2.0303,-1.9938,-1.9371,-1.8632,-1.8149,-1.7544,-1.6752,-1.6595,-1.6534,-1.6534,-1.6534,-1.6534,-1.6534,-1.6534,-1.6534,-1.6534,-1.6534,-1.6534,-1.6534,-1.6534,-1.6534,-1.6534,-1.6534,-1.6534,-1.6534,-1.6534,-1.6534,-1.6534,-1.6534,-1.6534,-1.6534,-1.6534,-1.6534,-1.6534,-1.6534,-1.6534,-1.6534,-1.6534,-1.6534,-1.6534,-1.6534,-1.6534,-1.6534,-1.6534,-1.6534,-1.6534,-1.6534,-1.6534,-1.6534,-1.6534,-1.6534,-1.6534,-1.6534,-1.6534,-1.6534,-1.6534,-1.6534,-1.6534,-1.6102,-1.5881,-1.641,-1.592,-1.5659,-1.5856,-1.5664,-1.5377,-1.5299,-1.5131,-1.4967,-1.4996,-1.465,-1.4963,-4.3479,-4.3351,-4.2598,-4.1389,-4.0149,-3.948,-3.9264,-3.9102,-3.8115,-3.7888,-3.8264,-3.7922,-3.7694,-3.7371,-3.5513,-3.4145,-3.3516,-3.3525,-3.3541,-3.3541,-3.3491,-3.3477,-3.3452,-3.3389,-3.2789,-3.1764,-3.1327,-3.0332,-2.8659,-2.7979,-2.7295,-2.6662,-2.6587,-2.6213,-2.5555,-2.4852,-2.4521,-2.4364,-2.3797,-2.324,-2.2759,-2.2641,-2.2266,-2.1595,-2.0533,-1.9922,-1.9652,-1.8235,-1.738,-1.7284,-1.6808,-1.6522,-1.6534,-1.6534,-1.6534,-1.6534,-1.6534,-1.6534,-1.6534,-1.6534,-1.6534,-1.6534,-1.6534,-1.6534,-1.6534,-1.6534,-1.6534,-1.6534,-1.6534,-1.6534,-1.6534,-1.6534,-1.6534,-1.6534,-1.6534,-1.6534,-1.6534,-1.6534,-1.6534,-1.6534,-1.6534,-1.6534,-1.6534,-1.6534,-1.6534,-1.6534,-1.6534,-1.6534,-1.6534,-1.6534,-1.6534,-1.6534,-1.6534,-1.6534,-1.6534,-1.6534,-1.6534,-1.6534,-1.6534,-1.6534,-1.6534,-1.648,-1.6463,-1.6346,-1.582,-1.5521,-1.5485,-1.5325,-1.5017,-1.5006,-1.5234,-1.5129,-1.5081,-1.4626,-1.4942,-4.3185,-4.2708,-4.2415,-4.1708,-4.0823,-4.0477,-3.9964,-3.93,-3.931,-3.8765,-3.8065,-3.8257,-3.8238,-3.7869,-3.705,-3.6273,-3.5571,-3.5064,-3.4827,-3.4827,-3.4827,-3.4813,-3.4818,-3.4451,-3.4044,-3.3417,-3.2204,-3.0791,-2.9415,-2.8981,-2.8517,-2.7889,-2.741,-2.6886,-2.6228,-2.5585,-2.5213,-2.5157,-2.4572,-2.4126,-2.3861,-2.3492,-2.315,-2.2892,-2.1713,-2.087,-2.0532,-1.9496,-1.8824,-1.8481,-1.7565,-1.7046,-1.703,-1.671,-1.6534,-1.6534,-1.6534,-1.6534,-1.6534,-1.6534,-1.6534,-1.6534,-1.6534,-1.6559,-1.6534,-1.6534,-1.6534,-1.6534,-1.6534,-1.6534,-1.6534,-1.6534,-1.6534,-1.6534,-1.6534,-1.6534,-1.6534,-1.6534,-1.6534,-1.6534,-1.6534,-1.6534,-1.6534,-1.6534,-1.6534,-1.6534,-1.6534,-1.6534,-1.6534,-1.6534,-1.6534,-1.6534,-1.6534,-1.6534,-1.6534,-1.6534,-1.6534,-1.6534,-1.6534,-1.6534,-1.6534,-1.6182,-1.609,-1.6317,-1.5864,-1.5528,-1.5548,-1.5499,-1.5131,-1.4868,-1.5088,-1.5222,-1.5332,-1.4841,-1.5346,-4.3185,-4.2727,-4.269,-4.2378,-4.1864,-4.1607,-4.1129,-4.0525,-4.0601,-3.9979,-3.9103,-3.9264,-3.9123,-3.8606,-3.8388,-3.8002,-3.7466,-3.6721,-3.6349,-3.6366,-3.6349,-3.6231,-3.592,-3.5512,-3.5035,-3.4333,-3.2547,-3.1091,-3.0268,-2.9789,-2.9355,-2.8891,-2.8427,-2.7889,-2.723,-2.6587,-2.6163,-2.5864,-2.5273,-2.4926,-2.485,-2.4264,-2.3936,-2.3759,-2.2877,-2.1943,-2.1181,-2.0341,-1.9545,-1.8795,-1.7852,-1.7265,-1.7068,-1.6735,-1.6534,-1.6547,-1.671,-1.681,-1.6823,-1.6961,-1.7087,-1.7074,-1.7061,-1.7011,-1.6835,-1.6785,-1.671,-1.6597,-1.6534,-1.6534,-1.6534,-1.6534,-1.6534,-1.6534,-1.6534,-1.6534,-1.6534,-1.6534,-1.6534,-1.6534,-1.6534,-1.6534,-1.6534,-1.6534,-1.6534,-1.6534,-1.6534,-1.6534,-1.6534,-1.6534,-1.6534,-1.6534,-1.6534,-1.6534,-1.6534,-1.6534,-1.6534,-1.6534,-1.6534,-1.6534,-1.6411,-1.6046,-1.5923,-1.6188,-1.6107,-1.5788,-1.5614,-1.5608,-1.5337,-1.4925,-1.4939,-1.5073,-1.5101,-1.5049,-1.5468,-4.3479,-4.3424,-4.3479,-4.3369,-4.3167,-4.2488,-4.2671,-4.2825,-4.1869,-4.1288,-4.1014,-4.0993,-4.0423,-3.9952,-3.9244,-3.8975,-3.8802,-3.8193,-3.7804,-3.7702,-3.7736,-3.7364,-3.6806,-3.6624,-3.5811,-3.4554,-3.2676,-3.1727,-3.1477,-3.0468,-2.9823,-2.9663,-2.9549,-2.9086,-2.8532,-2.7799,-2.722,-2.6634,-2.5923,-2.56,-2.5526,-2.4852,-2.4445,-2.4388,-2.3804,-2.2876,-2.1773,-2.0597,-1.962,-1.8574,-1.7843,-1.7169,-1.681,-1.6697,-1.6597,-1.6748,-1.7099,-1.735,-1.7426,-1.7815,-1.8016,-1.8016,-1.8116,-1.784,-1.7463,-1.7375,-1.7174,-1.6735,-1.6622,-1.6572,-1.6547,-1.6584,-1.6584,-1.6534,-1.6534,-1.6534,-1.6534,-1.6534,-1.6534,-1.6534,-1.6534,-1.6534,-1.6534,-1.6534,-1.6534,-1.6534,-1.6534,-1.6534,-1.6534,-1.6534,-1.6534,-1.6534,-1.6534,-1.6534,-1.6534,-1.6534,-1.6534,-1.6534,-1.6534,-1.6479,-1.6454,-1.6182,-1.6127,-1.6312,-1.6149,-1.584,-1.4903,-1.49,-1.5041,-1.4768,-1.4871,-1.5111,-1.5303,-1.5375,-1.5339,-4.3479,-4.3479,-4.3479,-4.3479,-4.3387,-4.2635,-4.247,-4.2635,-4.2152,-4.164,-4.1121,-4.1345,-4.1029,-4.0204,-3.9834,-3.9733,-3.9715,-3.9478,-3.8886,-3.8075,-3.7939,-3.7821,-3.7516,-3.7026,-3.6021,-3.4751,-3.4001,-3.314,-3.2364,-3.183,-3.1226,-3.0408,-3.0223,-2.9624,-2.8682,-2.8368,-2.7942,-2.7294,-2.6659,-2.6079,-2.5597,-2.4969,-2.4432,-2.3954,-2.3699,-2.3215,-2.2437,-2.1568,-2.0988,-2.0511,-1.9271,-1.8241,-1.7794,-1.7689,-1.7677,-1.7702,-1.7827,-1.794,-1.7965,-1.8103,-1.8242,-1.8216,-1.8216,-1.8129,-1.799,-1.7953,-1.7702,-1.7212,-1.7099,-1.6986,-1.6685,-1.6898,-1.6948,-1.6559,-1.6534,-1.6547,-1.6534,-1.6547,-1.6534,-1.6534,-1.6534,-1.6534,-1.6534,-1.6547,-1.6602,-1.6547,-1.6547,-1.6547,-1.6534,-1.6534,-1.6534,-1.6534,-1.6534,-1.6534,-1.6534,-1.6534,-1.6534,-1.6534,-1.6534,-1.6534,-1.6466,-1.6343,-1.633,-1.6193,-1.607,-1.5635,-1.4724,-1.45,-1.4779,-1.4995,-1.5248,-1.5535,-1.5797,-1.5726,-1.5507,-4.3479,-4.3479,-4.3479,-4.3479,-4.3442,-4.2928,-4.2745,-4.269,-4.2415,-4.1831,-4.1229,-4.1239,-4.0896,-4.0203,-4.0087,-4.0087,-4.0087,-4.0087,-3.9597,-3.8819,-3.8717,-3.8582,-3.8193,-3.7254,-3.618,-3.5206,-3.5002,-3.4284,-3.3029,-3.2958,-3.2287,-3.1099,-3.0896,-3.0253,-2.9086,-2.8936,-2.8547,-2.7679,-2.717,-2.6768,-2.6299,-2.5655,-2.5133,-2.4732,-2.4328,-2.3896,-2.3405,-2.2746,-2.1969,-2.1027,-1.9509,-1.8631,-1.8402,-1.8267,-1.8204,-1.8242,-1.8405,-1.8518,-1.853,-1.8719,-1.8794,-1.8807,-1.8794,-1.8694,-1.8581,-1.8518,-1.8267,-1.779,-1.7677,-1.7539,-1.7287,-1.7438,-1.7501,-1.72,-1.6974,-1.6773,-1.6635,-1.6722,-1.6697,-1.6697,-1.6898,-1.7011,-1.6961,-1.7071,-1.702,-1.6913,-1.6832,-1.6683,-1.6615,-1.6534,-1.6534,-1.6534,-1.6534,-1.6534,-1.6534,-1.6534,-1.6534,-1.6534,-1.6534,-1.6534,-1.6479,-1.6343,-1.6287,-1.5968,-1.5742,-1.5679,-1.4931,-1.5081,-1.5279,-1.5479,-1.5711,-1.5766,-1.5918,-1.5593,-1.5488,-4.3479,-4.3479,-4.3479,-4.3479,-4.3479,-4.3424,-4.3387,-4.3332,-4.2727,-4.2182,-4.1667,-4.1163,-4.0527,-4.0169,-4.0087,-4.0087,-4.0087,-4.007,-4.0037,-3.9918,-3.9851,-3.9529,-3.8751,-3.7721,-3.6769,-3.596,-3.5857,-3.5071,-3.3741,-3.3693,-3.2972,-3.1567,-3.1332,-3.0896,-2.9849,-2.9639,-2.9019,-2.7931,-2.767,-2.761,-2.735,-2.6856,-2.6389,-2.6258,-2.542,-2.4807,-2.4373,-2.3526,-2.2214,-2.0301,-1.9102,-1.8629,-1.8681,-1.8455,-1.8405,-1.8455,-1.8807,-1.902,-1.9171,-1.9397,-1.9635,-1.9623,-1.961,-1.961,-1.9145,-1.9045,-1.8844,-1.8317,-1.8242,-1.8204,-1.8129,-1.8216,-1.8204,-1.8179,-1.7727,-1.7237,-1.6735,-1.7087,-1.7225,-1.7049,-1.7539,-1.8078,-1.7677,-1.7913,-1.7782,-1.757,-1.7367,-1.7076,-1.6913,-1.6777,-1.6602,-1.6559,-1.664,-1.6534,-1.6534,-1.6534,-1.6534,-1.6572,-1.6622,-1.6666,-1.6554,-1.6392,-1.607,-1.573,-1.5747,-1.5609,-1.5423,-1.5425,-1.5733,-1.6063,-1.6092,-1.5997,-1.5989,-1.5884,-1.5801,-4.3479,-4.3479,-4.3479,-4.3479,-4.3479,-4.3479,-4.3479,-4.3461,-4.3259,-4.2598,-4.1917,-4.1622,-4.0896,-4.0154,-4.0087,-4.0087,-4.0087,-4.0087,-4.0087,-4.0087,-4.0087,-3.9665,-3.9122,-3.8639,-3.795,-3.7285,-3.7165,-3.6307,-3.4553,-3.4441,-3.3419,-3.1554,-3.1524,-3.112,-3.0372,-3.0223,-2.9552,-2.8525,-2.8299,-2.7795,-2.7015,-2.6763,-2.637,-2.5854,-2.563,-2.5181,-2.4506,-2.3043,-2.1763,-2.0695,-1.9824,-1.9422,-1.9447,-1.9359,-1.9284,-1.9321,-1.9447,-1.9585,-1.961,-1.971,-1.9798,-1.9798,-1.9798,-1.9748,-1.9635,-1.9597,-1.9334,-1.8932,-1.8758,-1.8643,-1.8392,-1.8581,-1.8769,-1.8695,-1.8329,-1.7802,-1.74,-1.7626,-1.799,-1.8129,-1.8191,-1.8292,-1.839,-1.832,-1.8244,-1.7974,-1.7766,-1.751,-1.7385,-1.6954,-1.6685,-1.6896,-1.6926,-1.664,-1.6534,-1.6534,-1.6547,-1.6609,-1.676,-1.6967,-1.6779,-1.648,-1.6017,-1.5501,-1.6165,-1.622,-1.5769,-1.5553,-1.5978,-1.6591,-1.644,-1.6374,-1.6582,-1.6633,-1.644,-4.3479,-4.3479,-4.3479,-4.3479,-4.3479,-4.3479,-4.3479,-4.3406,-4.3112,-4.2727,-4.2118,-4.1504,-4.0951,-4.0425,-4.0222,-4.0087,-4.0087,-4.0087,-4.0087,-4.0087,-4.0087,-3.9665,-3.9123,-3.8969,-3.8625,-3.8035,-3.8224,-3.7286,-3.5841,-3.5331,-3.4109,-3.2634,-3.1817,-3.118,-3.0522,-3.0462,-3.0023,-2.9139,-2.8758,-2.8157,-2.7515,-2.7155,-2.6872,-2.6512,-2.6422,-2.6093,-2.5191,-2.3562,-2.2062,-2.1046,-2.0245,-1.9798,-1.9798,-1.9798,-1.9798,-1.9798,-1.9798,-1.9798,-1.9798,-1.9798,-1.9798,-1.9798,-1.9798,-1.9798,-1.9786,-1.9798,-1.961,-1.9409,-1.9359,-1.9196,-1.902,-1.9171,-1.9208,-1.9032,-1.8932,-1.8543,-1.7827,-1.8216,-1.853,-1.8694,-1.8807,-1.8932,-1.9133,-1.8957,-1.8795,-1.856,-1.8369,-1.8195,-1.803,-1.7397,-1.7023,-1.7333,-1.7244,-1.6917,-1.7024,-1.7099,-1.7106,-1.7106,-1.7285,-1.748,-1.7074,-1.6729,-1.6353,-1.61,-1.6573,-1.6707,-1.6211,-1.602,-1.6611,-1.6973,-1.6783,-1.6678,-1.6783,-1.7099,-1.696,-4.3479,-4.3479,-4.3479,-4.3479,-4.3479,-4.3479,-4.3479,-4.3351,-4.2855,-4.2601,-4.241,-4.1369,-4.1025,-4.0899,-4.0442,-4.0189,-4.0087,-4.0087,-4.0087,-4.0087,-4.0037,-3.9732,-3.9292,-3.9244,-3.8939,-3.8481,-3.8857,-3.8171,-3.7065,-3.6279,-3.5243,-3.3814,-3.2437,-3.1504,-3.1001,-3.0761,-3.0298,-2.9729,-2.926,-2.8798,-2.8399,-2.8036,-2.7754,-2.735,-2.7141,-2.6841,-2.5998,-2.4615,-2.3093,-2.1442,-2.0435,-1.9952,-1.9901,-1.9798,-1.9798,-1.9798,-1.9798,-1.9798,-1.9798,-1.9798,-1.9798,-1.9798,-1.9798,-1.9798,-1.9798,-1.9798,-1.9773,-1.971,-1.9798,-1.9698,-1.9673,-1.9761,-1.9572,-1.9321,-1.9522,-1.9258,-1.8744,-1.8807,-1.9032,-1.8882,-1.9434,-1.971,-1.9798,-1.9786,-1.9583,-1.9108,-1.8896,-1.8729,-1.8465,-1.7972,-1.7862,-1.813,-1.7814,-1.7212,-1.7463,-1.7739,-1.7791,-1.7785,-1.8018,-1.808,-1.7508,-1.7145,-1.6871,-1.6896,-1.7402,-1.7258,-1.6591,-1.6775,-1.7242,-1.7185,-1.6919,-1.6715,-1.6717,-1.7146,-1.7229,-4.3479,-4.3479,-4.3479,-4.3479,-4.3479,-4.3479,-4.3479,-4.3461,-4.3314,-4.3004,-4.2697,-4.2357,-4.1736,-4.0932,-4.0763,-4.0493,-4.0155,-4.0121,-4.0087,-4.0087,-4.0087,-4.002,-3.9817,-3.98,-3.9766,-3.9597,-3.9766,-3.9076,-3.8002,-3.739,-3.6518,-3.4685,-3.3671,-3.2806,-3.209,-3.1519,-3.0991,-3.0389,-3.0149,-2.949,-2.8888,-2.8921,-2.8524,-2.773,-2.7171,-2.6846,-2.6355,-2.5223,-2.4091,-2.2997,-2.1632,-2.0539,-2.008,-1.99,-1.9861,-1.9861,-1.9836,-1.9823,-1.9798,-1.9798,-1.9798,-1.9798,-1.9798,-1.9798,-1.9798,-1.9798,-1.9798,-1.9798,-1.9798,-1.9798,-1.9798,-1.9798,-1.9723,-1.9648,-1.9685,-1.971,-1.9522,-1.9535,-1.9547,-1.9585,-1.9648,-1.9798,-1.9798,-1.9798,-1.9709,-1.9544,-1.9432,-1.9207,-1.8858,-1.8486,-1.8573,-1.8753,-1.821,-1.7739,-1.8154,-1.8405,-1.8425,-1.8481,-1.8672,-1.8761,-1.8188,-1.7888,-1.7676,-1.7884,-1.8309,-1.7838,-1.6983,-1.7124,-1.7483,-1.7238,-1.7002,-1.6996,-1.7081,-1.737,-1.7664,-4.3479,-4.3479,-4.3479,-4.3479,-4.3479,-4.3479,-4.3479,-4.3479,-4.3479,-4.3351,-4.3078,-4.2823,-4.2336,-4.1692,-4.1198,-4.0728,-4.0453,-4.0204,-4.0087,-4.0087,-4.0087,-4.0087,-4.0087,-4.0087,-4.0087,-4.0087,-4.007,-3.9598,-3.9042,-3.8282,-3.7392,-3.6197,-3.4927,-3.3786,-3.3062,-3.2357,-3.1649,-3.1008,-3.0615,-3.0104,-2.9651,-2.9184,-2.8696,-2.7895,-2.75,-2.7425,-2.7051,-2.6149,-2.5321,-2.4367,-2.3039,-2.1672,-2.0746,-2.0409,-2.0265,-2.02,-2.02,-2.0037,-1.9899,-1.9798,-1.9798,-1.9798,-1.9798,-1.9798,-1.9798,-1.9798,-1.9798,-1.9798,-1.9798,-1.9798,-1.9798,-1.9798,-1.9798,-1.9798,-1.9798,-1.9798,-1.9798,-1.9798,-1.9798,-1.9798,-1.9773,-1.9798,-1.9798,-1.9798,-1.9798,-1.9697,-1.9697,-1.9495,-1.9394,-1.9057,-1.9082,-1.9008,-1.8505,-1.8355,-1.8832,-1.907,-1.9071,-1.9146,-1.9248,-1.9282,-1.9015,-1.8827,-1.8625,-1.8703,-1.8548,-1.8092,-1.7451,-1.7639,-1.7498,-1.7175,-1.7044,-1.7209,-1.7466,-1.7774,-1.8041,-4.3479,-4.3479,-4.3479,-4.3479,-4.3479,-4.3479,-4.3479,-4.3479,-4.3479,-4.3461,-4.3424,-4.297,-4.2774,-4.2468,-4.1692,-4.1175,-4.0789,-4.0368,-4.0087,-4.0087,-4.0087,-4.0087,-4.0087,-4.0087,-4.0087,-4.0087,-4.0087,-4.0003,-3.9665,-3.8955,-3.8325,-3.7768,-3.63,-3.4863,-3.3966,-3.3113,-3.2267,-3.1465,-3.0981,-3.0594,-3.0353,-2.9652,-2.9004,-2.8524,-2.8427,-2.8323,-2.7799,-2.7145,-2.6535,-2.5734,-2.4455,-2.3234,-2.2219,-2.1207,-2.0769,-2.0731,-2.0589,-2.0313,-1.9911,-1.9798,-1.9798,-1.9798,-1.9798,-1.9798,-1.9798,-1.9798,-1.9798,-1.9798,-1.9798,-1.9798,-1.9798,-1.9798,-1.9798,-1.9798,-1.9798,-1.9798,-1.9798,-1.9798,-1.9798,-1.9798,-1.9798,-1.9798,-1.9798,-1.9798,-1.9798,-1.9798,-1.9798,-1.9786,-1.9633,-1.9531,-1.9495,-1.9458,-1.9021,-1.8882,-1.9296,-1.9384,-1.9434,-1.938,-1.954,-1.9648,-1.9668,-1.9651,-1.9361,-1.8768,-1.8429,-1.8137,-1.785,-1.7734,-1.754,-1.71,-1.71,-1.7425,-1.7774,-1.8135,-1.8377,-4.3479,-4.3479,-4.3479,-4.3479,-4.3479,-4.3479,-4.3479,-4.3479,-4.3479,-4.3479,-4.3461,-4.3387,-4.3096,-4.2739,-4.2558,-4.1864,-4.0989,-4.0368,-4.0087,-4.0087,-4.0087,-4.0087,-4.0087,-4.0087,-4.0087,-4.0087,-4.0087,-4.0087,-4.007,-3.9834,-3.9257,-3.8689,-3.7821,-3.6513,-3.4864,-3.3836,-3.2967,-3.1925,-3.1482,-3.115,-3.0803,-3.0668,-3.0378,-2.9714,-2.9475,-2.9056,-2.8592,-2.8278,-2.7703,-2.6461,-2.5109,-2.4371,-2.3621,-2.2398,-2.1395,-2.097,-2.0828,-2.0627,-2.0112,-1.9899,-1.9836,-1.9798,-1.9911,-1.9861,-1.9849,-1.9836,-1.9899,-1.9798,-1.9798,-1.9798,-1.9798,-1.9798,-1.9798,-1.9798,-1.9798,-1.9798,-1.9798,-1.9798,-1.9798,-1.9798,-1.9798,-1.9798,-1.9798,-1.9798,-1.9798,-1.9798,-1.9798,-1.9798,-1.9722,-1.9709,-1.9684,-1.9684,-1.9698,-1.9623,-1.9723,-1.9673,-1.9622,-1.938,-1.946,-1.9818,-1.9976,-2.0296,-2.0076,-1.9413,-1.8927,-1.8699,-1.8425,-1.8002,-1.7677,-1.7357,-1.7497,-1.7693,-1.8111,-1.8504,-1.8703,-4.3479,-4.3479,-4.3479,-4.3479,-4.3479,-4.3479,-4.3479,-4.3479,-4.3479,-4.3479,-4.3479,-4.3479,-4.3387,-4.3096,-4.2787,-4.2034,-4.1028,-4.0319,-4.0121,-4.0087,-4.0087,-4.0087,-4.0087,-4.0087,-4.0087,-4.0087,-4.0087,-4.0087,-4.007,-4.007,-3.9833,-3.9495,-3.8856,-3.7584,-3.6063,-3.511,-3.3924,-3.2821,-3.221,-3.185,-3.1492,-3.1614,-3.1046,-3.0268,-3.0073,-2.9744,-2.925,-2.9101,-2.8637,-2.769,-2.663,-2.5952,-2.5119,-2.393,-2.2457,-2.1718,-2.1468,-2.1242,-2.0778,-2.0677,-2.0715,-2.069,-2.0652,-2.0514,-2.0363,-2.0326,-2.0213,-1.9911,-1.9798,-1.9798,-1.9798,-1.9798,-1.9798,-1.9798,-1.9798,-1.9798,-1.9798,-1.9798,-1.9798,-1.9798,-1.9798,-1.9798,-1.9798,-1.9798,-1.9798,-1.9798,-1.9798,-1.9798,-1.9798,-1.9798,-1.9798,-1.9798,-1.9798,-1.9861,-1.9899,-1.9924,-2.0002,-1.9747,-1.9713,-2.0072,-2.0303,-2.0636,-2.0501,-1.9946,-1.9607,-1.9396,-1.8537,-1.7998,-1.778,-1.774,-1.7968,-1.8203,-1.8507,-1.8795,-1.9085,-4.3479,-4.3479,-4.3479,-4.3479,-4.3479,-4.3479,-4.3479,-4.3479,-4.3479,-4.3479,-4.3479,-4.3479,-4.3479,-4.33,-4.2778,-4.1984,-4.0995,-4.0466,-4.0121,-4.0087,-4.0087,-4.0087,-4.0087,-4.0087,-4.0087,-4.0087,-4.0087,-4.0087,-4.0087,-4.0087,-4.0087,-3.9902,-3.9378,-3.8521,-3.7156,-3.6197,-3.5091,-3.4007,-3.3021,-3.2675,-3.2405,-3.1943,-3.121,-3.0133,-3.0447,-3.0417,-2.9834,-2.9744,-2.9415,-2.8702,-2.7881,-2.7187,-2.654,-2.5188,-2.3851,-2.2898,-2.2501,-2.2008,-2.1606,-2.1405,-2.1317,-2.1292,-2.143,-2.1217,-2.1016,-2.0865,-2.0765,-2.02,-2.0012,-1.9924,-1.9849,-1.9798,-1.9798,-1.9798,-1.9798,-1.9798,-1.9798,-1.9798,-1.9798,-1.9798,-1.9798,-1.9836,-1.9874,-1.9798,-1.9798,-1.9798,-1.9798,-1.9798,-1.9798,-1.9798,-1.9798,-1.9798,-1.9836,-1.9924,-2.0012,-2.015,-2.0333,-2.045,-2.0542,-2.0865,-2.0899,-2.0999,-2.0768,-2.0676,-2.0476,-2.0138,-1.9052,-1.8157,-1.8012,-1.8037,-1.8398,-1.8713,-1.9033,-1.9262,-1.9403,-4.3479,-4.3479,-4.3479,-4.3479,-4.3479,-4.3479,-4.3479,-4.3479,-4.3479,-4.3479,-4.3479,-4.3479,-4.3479,-4.3266,-4.2393,-4.1848,-4.1402,-4.0594,-4.0138,-4.0087,-4.0087,-4.0087,-4.0087,-4.0087,-4.0087,-4.0087,-4.0087,-4.0087,-4.0087,-4.0087,-4.0087,-4.0003,-3.9868,-3.9277,-3.7859,-3.7051,-3.5966,-3.4697,-3.3804,-3.3081,-3.2613,-3.2391,-3.1943,-3.1435,-3.1285,-3.1091,-3.0522,-3.0387,-3.0088,-2.9436,-2.8286,-2.7585,-2.7081,-2.5379,-2.4492,-2.3767,-2.3039,-2.2083,-2.1719,-2.1681,-2.1694,-2.1719,-2.1644,-2.1493,-2.1481,-2.1355,-2.1192,-2.0824,-2.0665,-2.0401,-2.01,-1.9886,-1.9836,-1.9913,-1.9976,-1.9938,-1.9861,-1.9811,-1.9811,-1.9974,-2.0037,-1.9999,-1.9999,-1.9886,-1.9798,-1.9798,-1.9798,-1.9798,-1.9798,-1.9798,-1.9798,-1.9798,-2.0024,-2.015,-2.0326,-2.0439,-2.0699,-2.1004,-2.1304,-2.1487,-2.1524,-2.1559,-2.1736,-2.1616,-2.1276,-2.0587,-1.9521,-1.8767,-1.836,-1.8447,-1.8799,-1.9206,-1.964,-1.981,-1.9851,-4.3479,-4.3479,-4.3479,-4.3479,-4.3479,-4.3479,-4.3479,-4.3479,-4.3479,-4.3479,-4.3479,-4.3479,-4.3479,-4.3249,-4.2304,-4.1819,-4.1542,-4.0594,-4.0121,-4.0087,-4.0087,-4.0087,-4.0087,-4.0087,-4.0087,-4.0087,-4.0087,-4.0087,-4.0087,-4.0087,-4.0087,-4.0087,-4.007,-3.9596,-3.8537,-3.772,-3.6838,-3.5747,-3.4668,-3.3544,-3.2856,-3.2796,-3.2587,-3.1629,-3.1825,-3.1629,-3.1225,-3.1076,-3.0746,-3.0138,-2.9385,-2.8817,-2.8065,-2.675,-2.5751,-2.4851,-2.3909,-2.3072,-2.2548,-2.2422,-2.2347,-2.2397,-2.2397,-2.2447,-2.2309,-2.187,-2.1606,-2.1512,-2.1292,-2.0991,-2.0806,-2.0759,-2.0797,-2.068,-2.0416,-2.0315,-2.024,-1.9886,-1.9874,-2.0075,-2.0313,-2.0413,-2.0401,-2.0188,-2.0175,-2.0263,-2.0127,-1.9888,-1.9875,-1.9798,-1.9798,-1.9798,-2.0112,-2.0479,-2.0652,-2.084,-2.1117,-2.1411,-2.1779,-2.1956,-2.2046,-2.2163,-2.2299,-2.1914,-2.1158,-2.0455,-1.9744,-1.9332,-1.9003,-1.9061,-1.9199,-1.9561,-1.9925,-2.0216,-2.0318,-4.3603,-4.3631,-4.3548,-4.3479,-4.3479,-4.3479,-4.3479,-4.3479,-4.3479,-4.3479,-4.3479,-4.3479,-4.3479,-4.3248,-4.2386,-4.1795,-4.1707,-4.0594,-4.0221,-4.0087,-4.0087,-4.0087,-4.0087,-4.0087,-4.0087,-4.0087,-4.0087,-4.0087,-4.0087,-4.0087,-4.0087,-4.0087,-4.0087,-3.9749,-3.9139,-3.8181,-3.718,-3.6029,-3.5208,-3.4166,-3.3386,-3.3302,-3.2751,-3.2243,-3.2018,-3.1989,-3.1556,-3.1437,-3.1165,-3.0881,-3.0421,-2.9759,-2.8755,-2.7583,-2.6503,-2.5576,-2.4545,-2.3853,-2.3389,-2.3078,-2.315,-2.3125,-2.3125,-2.2962,-2.2902,-2.2309,-2.1845,-2.2001,-2.1857,-2.1644,-2.1536,-2.1403,-2.1352,-2.1222,-2.1091,-2.1008,-2.0844,-2.0539,-2.0451,-2.069,-2.0953,-2.1192,-2.1066,-2.0639,-2.0564,-2.0756,-2.0492,-2.0103,-2.004,-2.0026,-1.9935,-2.001,-2.0526,-2.0865,-2.1041,-2.128,-2.1556,-2.1907,-2.2272,-2.2631,-2.2767,-2.2787,-2.2849,-2.2151,-2.1373,-2.0952,-2.0649,-2.0211,-1.9747,-1.962,-1.958,-1.9801,-2.0131,-2.0458,-2.0848,-4.397,-4.3943,-4.3631,-4.3479,-4.3479,-4.3479,-4.3479,-4.3479,-4.3479,-4.3479,-4.3479,-4.3479,-4.3479,-4.3194,-4.2405,-4.1813,-4.1768,-4.0594,-4.0204,-4.0087,-4.0087,-4.0087,-4.0087,-4.0087,-4.0087,-4.0087,-4.0087,-4.0087,-4.0087,-4.0087,-4.0087,-4.0087,-4.0087,-4.007,-3.9506,-3.8486,-3.7178,-3.6115,-3.5419,-3.4986,-3.4248,-3.3835,-3.326,-3.2542,-3.1973,-3.1526,-3.1482,-3.1482,-3.1422,-3.13,-3.0911,-3.0283,-2.9331,-2.8175,-2.7083,-2.6109,-2.5215,-2.452,-2.4029,-2.3527,-2.3128,-2.309,-2.3125,-2.3125,-2.304,-2.3053,-2.2799,-2.2351,-2.2297,-2.2083,-2.1769,-2.1493,-2.1776,-2.1713,-2.1681,-2.1524,-2.1394,-2.1255,-2.1204,-2.1368,-2.1556,-2.1757,-2.1863,-2.1431,-2.1199,-2.1368,-2.1015,-2.0612,-2.0587,-2.0612,-2.0323,-2.0407,-2.1041,-2.1355,-2.1493,-2.1782,-2.2292,-2.2644,-2.2984,-2.3378,-2.3726,-2.3651,-2.3193,-2.2998,-2.2313,-2.1977,-2.145,-2.0606,-1.9992,-1.9895,-1.998,-2.034,-2.0664,-2.0996,-2.1293,-4.3992,-4.397,-4.3655,-4.3479,-4.3479,-4.3479,-4.3479,-4.3479,-4.3479,-4.3479,-4.3479,-4.3479,-4.3479,-4.3177,-4.2354,-4.1813,-4.1639,-4.0594,-4.0204,-4.0087,-4.0087,-4.0087,-4.0087,-4.0087,-4.0087,-4.0087,-4.0087,-4.0087,-4.0087,-4.0087,-4.0087,-4.0087,-4.0087,-4.007,-3.9575,-3.8629,-3.7272,-3.6359,-3.5674,-3.5165,-3.4658,-3.4748,-3.4218,-3.3155,-3.2976,-3.2512,-3.2183,-3.1734,-3.1541,-3.148,-3.127,-3.0671,-2.9987,-2.8828,-2.7823,-2.6775,-2.5884,-2.5126,-2.4544,-2.3979,-2.354,-2.3103,-2.3125,-2.3175,-2.3263,-2.3103,-2.3015,-2.2815,-2.2799,-2.2573,-2.2573,-2.251,-2.2514,-2.243,-2.2225,-2.2055,-2.1927,-2.1825,-2.1845,-2.1958,-2.2083,-2.2234,-2.228,-2.2309,-2.2106,-2.1926,-2.1546,-2.1186,-2.117,-2.1154,-2.0919,-2.0909,-2.1519,-2.1882,-2.202,-2.246,-2.2997,-2.3346,-2.3649,-2.3925,-2.4151,-2.3654,-2.3244,-2.3259,-2.2941,-2.2083,-2.1353,-2.0727,-2.0414,-2.037,-2.0586,-2.0947,-2.1199,-2.1448,-2.1732,-4.4271,-4.4128,-4.3789,-4.3597,-4.3513,-4.3479,-4.3479,-4.3479,-4.3479,-4.3479,-4.3479,-4.3479,-4.3479,-4.3196,-4.2346,-4.1835,-4.1508,-4.072,-4.0254,-4.0087,-4.0087,-4.0087,-4.0087,-4.0087,-4.0087,-4.0087,-4.0087,-4.0087,-4.0087,-4.0087,-4.0087,-4.0087,-4.0087,-4.0087,-3.9747,-3.8645,-3.7427,-3.6621,-3.5844,-3.5335,-3.4901,-3.4882,-3.4861,-3.3784,-3.3544,-3.3215,-3.2826,-3.2482,-3.2138,-3.1988,-3.1706,-3.1276,-3.0558,-2.9717,-2.8725,-2.7629,-2.6645,-2.5892,-2.5149,-2.4544,-2.4079,-2.3841,-2.3753,-2.3728,-2.3615,-2.3441,-2.3427,-2.3401,-2.3276,-2.315,-2.3163,-2.3,-2.2962,-2.2755,-2.267,-2.2499,-2.2493,-2.241,-2.2447,-2.251,-2.2623,-2.2698,-2.2677,-2.273,-2.2521,-2.2368,-2.201,-2.175,-2.1757,-2.1693,-2.1584,-2.1675,-2.2051,-2.233,-2.2585,-2.3062,-2.3538,-2.3943,-2.42,-2.423,-2.4188,-2.3762,-2.3173,-2.2787,-2.2366,-2.1896,-2.1449,-2.1076,-2.0869,-2.0771,-2.1143,-2.1461,-2.1792,-2.202,-2.2129,-4.4846,-4.4551,-4.414,-4.3772,-4.3513,-4.3479,-4.3479,-4.3479,-4.3479,-4.3479,-4.3479,-4.3479,-4.3479,-4.3267,-4.2372,-4.1932,-4.1595,-4.072,-4.0154,-4.0121,-4.0087,-4.0087,-4.0087,-4.0087,-4.0087,-4.0087,-4.0087,-4.0087,-4.0087,-4.0087,-4.0087,-4.0087,-4.0087,-4.007,-3.9969,-3.8557,-3.7443,-3.6633,-3.5978,-3.5504,-3.5275,-3.4996,-3.4681,-3.4442,-3.3933,-3.3604,-3.3469,-3.3215,-3.2871,-3.2572,-3.2497,-3.1901,-3.0835,-3.0447,-2.9462,-2.8072,-2.7696,-2.6867,-2.5769,-2.5121,-2.4858,-2.4594,-2.4393,-2.4469,-2.4531,-2.4305,-2.3966,-2.3954,-2.3565,-2.3314,-2.3213,-2.3163,-2.3188,-2.3315,-2.3267,-2.3242,-2.3203,-2.3226,-2.3301,-2.3351,-2.3226,-2.315,-2.3138,-2.3113,-2.2917,-2.2673,-2.2406,-2.227,-2.2288,-2.2275,-2.2194,-2.2468,-2.2774,-2.3067,-2.3376,-2.3703,-2.4116,-2.4551,-2.4745,-2.477,-2.4703,-2.4493,-2.3686,-2.2711,-2.2364,-2.2391,-2.1949,-2.1543,-2.1494,-2.1484,-2.1666,-2.1942,-2.2281,-2.2504,-2.262,-4.4909,-4.4589,-4.417,-4.3804,-4.3513,-4.3479,-4.3479,-4.3479,-4.3479,-4.3479,-4.3479,-4.3479,-4.3479,-4.3248,-4.2796,-4.2157,-4.169,-4.1105,-4.0528,-4.0121,-4.0121,-4.0087,-4.0087,-4.0087,-4.0087,-4.0087,-4.0087,-4.0087,-4.0087,-4.0087,-4.0087,-4.0087,-4.0087,-4.0087,-3.9679,-3.8668,-3.7599,-3.7199,-3.632,-3.5489,-3.5459,-3.5265,-3.5115,-3.507,-3.4472,-3.4173,-3.4128,-3.3873,-3.3499,-3.3215,-3.317,-3.2615,-3.1676,-3.1333,-3.0444,-2.9204,-2.8648,-2.7426,-2.684,-2.6427,-2.5887,-2.5347,-2.4933,-2.4946,-2.4782,-2.4682,-2.4569,-2.4431,-2.4017,-2.3916,-2.418,-2.3898,-2.3872,-2.423,-2.428,-2.4267,-2.428,-2.428,-2.4305,-2.433,-2.4268,-2.4126,-2.4096,-2.39,-2.3689,-2.3479,-2.3245,-2.3019,-2.2975,-2.2905,-2.2919,-2.3294,-2.3654,-2.3879,-2.418,-2.4406,-2.4696,-2.5014,-2.5268,-2.5319,-2.5191,-2.5002,-2.4288,-2.3271,-2.3111,-2.296,-2.2393,-2.2041,-2.2148,-2.2246,-2.2279,-2.2434,-2.2697,-2.2843,-2.2921,-4.4995,-4.4599,-4.4298,-4.3931,-4.3548,-4.3479,-4.3479,-4.3479,-4.3479,-4.3479,-4.3479,-4.3479,-4.3479,-4.3351,-4.2953,-4.2559,-4.2026,-4.1268,-4.0827,-4.0368,-4.0154,-4.0121,-4.0087,-4.0087,-4.0087,-4.0087,-4.0087,-4.0087,-4.0087,-4.0087,-4.0087,-4.0087,-4.0087,-4.0087,-3.9679,-3.8941,-3.8051,-3.7562,-3.66,-3.5782,-3.5604,-3.5444,-3.5459,-3.5355,-3.5085,-3.4846,-3.4726,-3.4442,-3.4068,-3.3933,-3.3739,-3.341,-3.266,-3.2003,-3.1282,-3.0363,-2.9323,-2.8173,-2.7703,-2.7231,-2.6603,-2.5975,-2.5548,-2.5398,-2.5322,-2.5234,-2.5121,-2.4933,-2.4556,-2.4582,-2.4644,-2.4378,-2.4519,-2.4858,-2.4875,-2.485,-2.4883,-2.4845,-2.4808,-2.4883,-2.4883,-2.4861,-2.4858,-2.477,-2.4494,-2.4305,-2.4179,-2.3916,-2.3638,-2.3616,-2.3679,-2.4028,-2.4313,-2.4568,-2.477,-2.4996,-2.5287,-2.558,-2.5799,-2.604,-2.5599,-2.5373,-2.4619,-2.3934,-2.367,-2.3342,-2.2764,-2.251,-2.2588,-2.2646,-2.2705,-2.2891,-2.3105,-2.3144,-2.3144,-4.5211,-4.4674,-4.4613,-4.4184,-4.3597,-4.3513,-4.3479,-4.3479,-4.3479,-4.3479,-4.3479,-4.3479,-4.3479,-4.3406,-4.2951,-4.2705,-4.2487,-4.1516,-4.1087,-4.0733,-4.04,-4.0237,-4.0121,-4.0087,-4.0087,-4.0087,-4.0087,-4.0087,-4.0087,-4.0087,-4.0087,-4.0087,-4.0087,-4.0087,-3.9782,-3.9385,-3.8537,-3.7762,-3.6901,-3.6072,-3.5668,-3.5489,-3.5489,-3.5444,-3.5355,-3.5325,-3.528,-3.519,-3.4936,-3.4711,-3.4472,-3.3724,-3.3095,-3.2632,-3.2031,-3.1082,-2.9984,-2.9232,-2.8265,-2.7733,-2.7457,-2.6979,-2.664,-2.6596,-2.6282,-2.585,-2.5699,-2.5473,-2.5172,-2.5046,-2.4908,-2.4935,-2.4974,-2.5049,-2.5117,-2.514,-2.5169,-2.5134,-2.5084,-2.5109,-2.5134,-2.5151,-2.5189,-2.5176,-2.5266,-2.5247,-2.5103,-2.5061,-2.4771,-2.4402,-2.4449,-2.4678,-2.4953,-2.5131,-2.541,-2.5787,-2.6114,-2.6502,-2.6703,-2.6868,-2.6359,-2.5609,-2.5013,-2.4462,-2.4084,-2.369,-2.3014,-2.2871,-2.3008,-2.3047,-2.2959,-2.2998,-2.3144,-2.3144,-2.3144,-4.5341,-4.4924,-4.4695,-4.4308,-4.3849,-4.3597,-4.3479,-4.3479,-4.3479,-4.3479,-4.3479,-4.3479,-4.3479,-4.3461,-4.3351,-4.3032,-4.2716,-4.2262,-4.1621,-4.1133,-4.075,-4.0466,-4.0254,-4.0121,-4.0121,-4.0087,-4.0087,-4.0087,-4.0087,-4.0087,-4.0087,-4.0087,-4.0087,-4.0087,-4.002,-3.9833,-3.8935,-3.8014,-3.7123,-3.6338,-3.5718,-3.5489,-3.5489,-3.5489,-3.5489,-3.5489,-3.5489,-3.5489,-3.5295,-3.522,-3.5175,-3.4681,-3.4068,-3.3826,-3.3332,-3.1162,-3.0692,-3.0401,-2.9007,-2.8524,-2.8222,-2.7758,-2.7281,-2.6841,-2.6553,-2.6357,-2.6151,-2.5925,-2.5699,-2.5536,-2.5564,-2.5552,-2.569,-2.5827,-2.5822,-2.5809,-2.5812,-2.5787,-2.5724,-2.5674,-2.5699,-2.5686,-2.5724,-2.5787,-2.5917,-2.5977,-2.6015,-2.598,-2.5866,-2.5473,-2.5339,-2.5493,-2.5715,-2.6025,-2.6427,-2.6816,-2.7081,-2.7416,-2.7574,-2.7347,-2.645,-2.5727,-2.5302,-2.4678,-2.4011,-2.3577,-2.3183,-2.3144,-2.3144,-2.3144,-2.3076,-2.3115,-2.3144,-2.3144,-2.3144,-4.54,-4.5074,-4.4751,-4.4308,-4.3804,-4.3597,-4.3479,-4.3479,-4.3479,-4.3479,-4.3479,-4.3479,-4.3479,-4.3479,-4.3461,-4.3303,-4.3032,-4.2693,-4.2244,-4.1853,-4.1133,-4.075,-4.0449,-4.0204,-4.0121,-4.0087,-4.0087,-4.0087,-4.0087,-4.0087,-4.0087,-4.0087,-4.0087,-4.0087,-4.007,-3.9952,-3.9362,-3.8421,-3.7448,-3.6538,-3.591,-3.5504,-3.5504,-3.5489,-3.5489,-3.5489,-3.5489,-3.5489,-3.5489,-3.5489,-3.5489,-3.516,-3.4592,-3.4349,-3.3908,-3.2103,-3.1778,-3.1222,-3.0086,-2.8848,-2.8522,-2.8034,-2.7431,-2.6854,-2.6603,-2.6458,-2.6377,-2.6302,-2.6138,-2.608,-2.6173,-2.6261,-2.6589,-2.6861,-2.6691,-2.659,-2.6553,-2.654,-2.6477,-2.6414,-2.6377,-2.6364,-2.6471,-2.6533,-2.6559,-2.6665,-2.6784,-2.6883,-2.6784,-2.6564,-2.6379,-2.6396,-2.6644,-2.6954,-2.7356,-2.762,-2.7616,-2.7822,-2.8167,-2.7692,-2.6671,-2.6175,-2.6064,-2.4962,-2.3533,-2.3325,-2.3299,-2.3135,-2.3144,-2.3144,-2.3144,-2.3144,-2.3144,-2.3144,-2.3144,-4.5419,-4.5137,-4.4751,-4.4184,-4.3548,-4.3479,-4.3479,-4.3479,-4.3479,-4.3479,-4.3479,-4.3479,-4.3479,-4.3479,-4.3479,-4.3479,-4.3286,-4.3014,-4.277,-4.2673,-4.175,-4.1178,-4.0767,-4.0451,-4.0256,-4.0172,-4.0087,-4.0087,-4.0087,-4.0087,-4.0087,-4.0087,-4.0087,-4.0087,-4.0087,-4.0087,-3.9615,-3.8788,-3.8023,-3.7266,-3.6098,-3.5629,-3.5569,-3.5504,-3.5489,-3.5489,-3.5489,-3.5489,-3.5489,-3.5489,-3.5415,-3.5145,-3.4876,-3.4651,-3.3986,-3.344,-3.2875,-3.1894,-3.0765,-2.9516,-2.8505,-2.7843,-2.7143,-2.6741,-2.6553,-2.6533,-2.6521,-2.6521,-2.6276,-2.6251,-2.6345,-2.6584,-2.6841,-2.6954,-2.6892,-2.6841,-2.6816,-2.6804,-2.6791,-2.6804,-2.6967,-2.7012,-2.7063,-2.7101,-2.7156,-2.7276,-2.7404,-2.7576,-2.7619,-2.7441,-2.7358,-2.7274,-2.7379,-2.7632,-2.7971,-2.8099,-2.8025,-2.8175,-2.8525,-2.79,-2.67,-2.6668,-2.6886,-2.5559,-2.4198,-2.3766,-2.3637,-2.3551,-2.3474,-2.3144,-2.3144,-2.3144,-2.3144,-2.3154,-2.3271,-4.5568,-4.5419,-4.4849,-4.4165,-4.3548,-4.3479,-4.3479,-4.3479,-4.3479,-4.3479,-4.3479,-4.3479,-4.3479,-4.3479,-4.3479,-4.3479,-4.341,-4.3286,-4.305,-4.2808,-4.2244,-4.1664,-4.1082,-4.08,-4.0492,-4.0206,-4.0087,-4.0087,-4.0087,-4.0087,-4.0087,-4.0087,-4.0087,-4.0087,-4.0087,-4.007,-3.9699,-3.9059,-3.8735,-3.7902,-3.6692,-3.6287,-3.6165,-3.5782,-3.5569,-3.5489,-3.5489,-3.5489,-3.5489,-3.5489,-3.5489,-3.5385,-3.5265,-3.525,-3.475,-3.3989,-3.3625,-3.2611,-3.1343,-3.0125,-2.9163,-2.7948,-2.7264,-2.6936,-2.6628,-2.6515,-2.6533,-2.6533,-2.6559,-2.6559,-2.6603,-2.6904,-2.7047,-2.7034,-2.713,-2.7105,-2.7092,-2.7092,-2.708,-2.7256,-2.7469,-2.7528,-2.7556,-2.764,-2.7765,-2.7825,-2.7879,-2.8,-2.8213,-2.8186,-2.8187,-2.8063,-2.7927,-2.8111,-2.8549,-2.8762,-2.8687,-2.856,-2.8805,-2.7932,-2.6811,-2.6467,-2.6376,-2.5863,-2.4965,-2.4502,-2.4255,-2.4372,-2.4125,-2.3387,-2.3144,-2.3144,-2.3271,-2.3388,-2.3515,-4.5586,-4.5513,-4.4877,-4.4184,-4.3563,-4.3479,-4.3479,-4.3479,-4.3479,-4.3479,-4.3479,-4.3479,-4.3479,-4.3479,-4.3479,-4.3479,-4.3479,-4.3479,-4.3321,-4.3105,-4.2732,-4.2302,-4.178,-4.1168,-4.0808,-4.0475,-4.0172,-4.0087,-4.0087,-4.0087,-4.0087,-4.0087,-4.0087,-4.0087,-4.0087,-4.0037,-3.9868,-3.9463,-3.9408,-3.8684,-3.7515,-3.698,-3.6538,-3.607,-3.5733,-3.5619,-3.5489,-3.5489,-3.5489,-3.5489,-3.5489,-3.5489,-3.5444,-3.5429,-3.5184,-3.4728,-3.4134,-3.3377,-3.2067,-3.0851,-2.9797,-2.8563,-2.7402,-2.71,-2.6992,-2.6879,-2.6666,-2.6678,-2.6879,-2.6904,-2.7067,-2.7344,-2.7331,-2.7306,-2.7532,-2.7657,-2.7657,-2.7657,-2.7645,-2.7708,-2.7858,-2.7848,-2.7905,-2.7915,-2.8045,-2.8409,-2.8439,-2.8664,-2.8839,-2.8864,-2.8864,-2.8867,-2.87,-2.875,-2.9189,-2.9352,-2.9377,-2.9294,-2.9118,-2.8366,-2.746,-2.6356,-2.5667,-2.5703,-2.5541,-2.5007,-2.4925,-2.4713,-2.4135,-2.3222,-2.3144,-2.3154,-2.3388,-2.3634,-2.387,-4.5531,-4.5381,-4.4849,-4.4184,-4.3548,-4.3479,-4.3479,-4.3479,-4.3479,-4.3479,-4.3479,-4.3479,-4.3479,-4.3479,-4.3479,-4.3479,-4.3479,-4.3479,-4.3444,-4.3339,-4.3014,-4.2675,-4.2203,-4.163,-4.1052,-4.0591,-4.0307,-4.0172,-4.0087,-4.0087,-4.0087,-4.0087,-4.0087,-4.0087,-4.0087,-4.007,-3.9986,-3.9952,-3.9834,-3.9632,-3.8681,-3.7543,-3.6946,-3.6399,-3.5958,-3.5554,-3.5489,-3.5489,-3.5489,-3.5489,-3.5489,-3.5489,-3.5489,-3.5489,-3.5489,-3.5133,-3.4773,-3.4008,-3.3069,-3.1566,-3.0374,-2.9151,-2.8035,-2.7477,-2.7381,-2.7281,-2.7067,-2.713,-2.7318,-2.7431,-2.7582,-2.777,-2.7733,-2.762,-2.7908,-2.8109,-2.8109,-2.8172,-2.821,-2.8222,-2.8262,-2.8349,-2.8362,-2.8299,-2.8525,-2.887,-2.9118,-2.9384,-2.9524,-2.9397,-2.9372,-2.9384,-2.9338,-2.9541,-2.9729,-2.9447,-2.9332,-2.9303,-2.8986,-2.8599,-2.8128,-2.7118,-2.6451,-2.6203,-2.599,-2.5677,-2.4978,-2.4592,-2.3804,-2.3203,-2.3496,-2.3594,-2.3624,-2.3969,-2.4287,-4.5283,-4.4781,-4.4631,-4.4184,-4.3548,-4.3479,-4.3479,-4.3479,-4.3479,-4.3479,-4.3479,-4.3479,-4.3479,-4.3479,-4.3479,-4.3479,-4.3479,-4.3479,-4.3479,-4.341,-4.3286,-4.305,-4.2598,-4.1895,-4.1128,-4.0534,-4.0189,-4.0155,-4.0087,-4.0087,-4.0087,-4.0087,-4.0087,-4.0087,-4.0087,-4.0087,-4.0087,-4.0087,-4.0087,-3.9902,-3.951,-3.8443,-3.7334,-3.6646,-3.5894,-3.5604,-3.5489,-3.5489,-3.5489,-3.5489,-3.5489,-3.5489,-3.5489,-3.5489,-3.5489,-3.5489,-3.5067,-3.4205,-3.3107,-3.2069,-3.0918,-2.9073,-2.8164,-2.7959,-2.7946,-2.7946,-2.7858,-2.7921,-2.8034,-2.7996,-2.816,-2.8511,-2.8574,-2.8222,-2.8247,-2.8273,-2.8285,-2.8561,-2.8775,-2.8925,-2.9101,-2.9126,-2.9302,-2.9264,-2.9277,-2.9512,-2.9499,-2.9677,-2.9664,-2.9767,-2.9779,-2.9779,-2.9779,-2.9779,-2.9767,-2.9081,-2.8821,-2.8858,-2.8803,-2.8503,-2.8179,-2.787,-2.7408,-2.7035,-2.6873,-2.6646,-2.5797,-2.4456,-2.4082,-2.3654,-2.3965,-2.4212,-2.4167,-2.4217,-2.4604]}]]